[[{"header":{"parameterUnit":"m.s-1","parameterCategory":1,"la1":30.6,"la2":28.766,"lo1":-90.7593,"lo2":-88.6598,"dx":0.0162,"dy":0.0183,"nx":116,"ny":114,"refTime":"2023-01-02T18:00:00:Z","depth":0,"parameterNumber":2,"parameterNumberName":"U-component_of_WINDS"},"data":[0.0,0.0,0.0,0.0,0.0,0.0,0.0,0.0,0.0,0.0,0.0,0.0,0.0,0.0,0.0,0.0,0.0,0.0,0.0,0.0,0.0,0.0,0.0,0.0,0.0,0.0,0.0,0.0,0.0,0.0,0.0,0.0,0.0,0.0,0.0,0.0,0.0,0.0,0.0,0.0,0.0,0.0,0.0,0.0,0.0,0.0,0.0,0.0,0.0,0.0,0.0,0.0,0.0,0.0,0.0,0.0,0.0,0.0,0.0,0.0,0.0,0.0,0.0,0.0,0.0,0.0,0.0,0.0,0.0,0.0,0.0,0.0,0.0,0.0,0.0,0.0,0.0,0.0,0.0,0.0,0.0,0.0,0.0,0.0,0.0,0.0,0.0,0.0,0.0,0.0,0.0,0.0,0.0,0.0,0.0,0.0,0.0,0.0,0.0,0.0,0.0,0.0,0.0,0.0,0.0,0.0,0.0,0.0,0.0,0.0,0.0,0.0,0.0,0.0,0.0,0.0,0.0,0.0,0.0,0.0,0.0,0.0,0.0,0.0,0.0,0.0,0.0,0.0,0.0,0.0,0.0,0.0,0.0,0.0,0.0,0.0,0.0,0.0,0.0,0.0,0.0,0.0,0.0,0.0,0.0,0.0,0.0,0.0,0.0,0.0,0.0,0.0,0.0,0.0,0.0,0.0,0.0,0.0,0.0,0.0,0.0,0.0,0.0,0.0,0.0,0.0,0.0,0.0,0.0,0.0,0.0,0.0,0.0,0.0,0.0,0.0,0.0,0.0,0.0,0.0,0.0,0.0,0.0,0.0,0.0,0.0,0.0,0.0,0.0,0.0,0.0,0.0,0.0,0.0,0.0,0.0,0.0,0.0,0.0,0.0,0.0,0.0,0.0,0.0,0.0,0.0,0.0,0.0,0.0,0.0,0.0,0.0,0.0,0.0,0.0,0.0,0.0,0.0,0.0,0.0,0.0,0.0,0.0,0.0,0.0,0.0,0.0,0.0,0.0,0.0,0.0,0.0,0.0,0.0,0.0,0.0,0.0,0.0,0.0,0.0,0.0,0.0,0.0,0.0,0.0,0.0,0.0,0.0,0.0,0.0,0.0,0.0,0.0,0.0,0.0,0.0,0.0,0.0,0.0,0.0,0.0,0.0,0.0,0.0,0.0,0.0,0.0,0.0,0.0,0.0,0.0,0.0,0.0,0.0,0.0,0.0,0.0,0.0,0.0,0.0,0.0,0.0,0.0,0.0,0.0,0.0,0.0,0.0,0.0,0.0,0.0,0.0,0.0,0.0,0.0,0.0,0.0,0.0,0.0,0.0,0.0,0.0,0.0,0.0,0.0,0.0,0.0,0.0,0.0,0.0,0.0,0.0,0.0,0.0,0.0,0.0,0.0,0.0,0.0,0.0,0.0,0.0,0.0,0.0,0.0,0.0,0.0,0.0,0.0,0.0,0.0,0.0,0.0,0.0,0.0,0.0,0.0,0.0,0.0,0.0,0.0,0.0,0.0,0.0,0.0,0.0,0.0,0.0,0.0,0.0,0.0,0.0,0.0,0.0,0.0,0.0,0.0,0.0,0.0,0.0,0.0,0.0,0.0,0.0,0.0,0.0,0.0,0.0,0.0,0.0,0.0,0.0,0.0,0.0,0.0,0.0,0.0,0.0,0.0,0.0,0.0,0.0,0.0,0.0,0.0,0.0,0.0,0.0,0.0,0.0,0.0,0.0,0.0,0.0,0.0,0.0,0.0,0.0,0.0,0.0,0.0,0.0,0.0,0.0,0.0,0.0,0.0,0.0,0.0,0.0,0.0,0.0,0.0,0.0,0.0,0.0,0.0,0.0,0.0,0.0,0.0,0.0,0.0,0.0,0.0,0.0,0.0,0.0,0.0,0.0,0.0,0.0,0.0,0.0,0.0,0.0,0.0,0.0,0.0,0.0,0.0,0.0,0.0,0.0,0.0,0.0,0.0,0.0,0.0,0.0,0.0,0.0,0.0,0.0,0.0,0.0,0.0,0.0,0.0,0.0,0.0,0.0,0.0,0.0,0.0,0.0,0.0,0.0,0.0,0.0,0.0,0.0,0.0,0.0,0.0,0.0,0.0,0.0,0.0,0.0,0.0,0.0,0.0,0.0,0.0,0.0,0.0,0.0,0.0,0.0,0.0,0.0,0.0,0.0,0.0,0.0,0.0,0.0,0.0,0.0,0.0,0.0,0.0,0.0,0.0,0.0,0.0,0.0,0.0,0.0,0.0,0.0,0.0,0.0,0.0,0.0,0.0,0.0,0.0,0.0,0.0,0.0,0.0,0.0,0.0,0.0,0.0,0.0,0.0,0.0,0.0,0.0,0.0,0.0,0.0,0.0,0.0,0.0,0.0,0.0,0.0,0.0,0.0,0.0,0.0,0.0,0.0,0.0,0.0,0.0,0.0,0.0,0.0,0.0,0.0,0.0,0.0,0.0,0.0,0.0,0.0,0.0,0.0,0.0,0.0,0.0,0.0,0.0,0.0,0.0,0.0,0.0,0.0,0.0,0.0,0.0,0.0,0.0,0.0,0.0,0.0,0.0,0.0,0.0,0.0,0.0,0.0,0.0,0.0,0.0,0.0,0.0,0.0,0.0,0.0,0.0,0.0,0.0,0.0,0.0,0.0,0.0,0.0,0.0,0.0,0.0,0.0,0.0,0.0,0.0,0.0,0.0,0.0,0.0,0.0,0.0,0.0,0.0,0.0,0.0,0.0,0.0,0.0,0.0,0.0,0.0,0.0,0.0,0.0,0.0,0.0,0.0,0.0,0.0,0.0,0.0,0.0,0.0,0.0,0.0,0.0,0.0,0.0,0.0,0.0,0.0,0.0,0.0,0.0,0.0,0.0,0.0,0.0,0.0,0.0,0.0,0.0,0.0,0.0,0.0,0.0,0.0,0.0,0.0,0.0,0.0,0.0,0.0,0.0,0.0,0.0,0.0,0.0,0.0,0.0,0.0,0.0,0.0,0.0,0.0,0.0,0.0,0.0,0.0,0.0,0.0,0.0,0.0,0.0,0.0,0.0,0.0,0.0,0.0,0.0,0.0,0.0,0.0,0.0,0.0,0.0,0.0,0.0,0.0,0.0,0.0,0.0,0.0,0.0,0.0,0.0,0.0,0.0,0.0,0.0,0.0,0.0,0.0,0.0,0.0,0.0,0.0,0.0,0.0,0.0,0.0,0.0,0.0,0.0,0.0,0.0,0.0,0.0,0.0,0.0,0.0,0.0,0.0,0.0,0.0,0.0,0.0,0.0,0.0,0.0,0.0,0.0,0.0,0.0,0.0,0.0,0.0,0.0,0.0,0.0,0.0,0.0,0.0,0.0,0.0,0.0,0.0,0.0,0.0,0.0,0.0,0.0,0.0,0.0,0.0,0.0,0.0,0.0,0.0,0.0,0.0,0.0,0.0,0.0,0.0,0.0,0.0,0.0,0.0,0.0,0.0,0.0,0.0,0.0,0.0,0.0,0.0,0.0,0.0,0.0,0.0,0.0,0.0,0.0,0.0,0.0,0.0,0.0,0.0,0.0,0.0,0.0,0.0,0.0,0.0,0.0,0.0,0.0,0.0,0.0,0.0,0.0,0.0,0.0,0.0,0.0,0.0,0.0,0.0,0.0,0.0,0.0,0.0,0.0,0.0,0.0,0.0,0.0,0.0,0.0,0.0,0.0,0.0,0.0,0.0,0.0,0.0,0.0,0.0,0.0,0.0,0.0,0.0,0.0,0.0,0.0,0.0,0.0,0.0,0.0,0.0,0.0,0.0,0.0,0.0,0.0,0.0,0.0,0.0,0.0,0.0,0.0,0.0,0.0,0.0,0.0,0.0,0.0,0.0,0.0,0.0,0.0,0.0,0.0,0.0,0.0,0.0,0.0,0.0,0.0,0.0,0.0,0.0,0.0,0.0,0.0,0.0,0.0,0.0,0.0,0.0,0.0,0.0,0.0,0.0,0.0,0.0,0.0,0.0,0.0,0.0,0.0,0.0,0.0,0.0,0.0,0.0,0.0,0.0,0.0,0.0,0.0,0.0,0.0,0.0,0.0,0.0,0.0,0.0,0.0,0.0,0.0,0.0,0.0,0.0,0.0,0.0,0.0,0.0,0.0,0.0,0.0,0.0,0.0,0.0,0.0,0.0,0.0,0.0,0.0,0.0,0.0,0.0,0.0,0.0,0.0,0.0,0.0,0.0,0.0,0.0,0.0,0.0,0.0,0.0,0.0,0.0,0.0,0.0,0.0,0.0,0.0,0.0,0.0,0.0,0.0,0.0,0.0,0.0,0.0,0.0,0.0,0.0,0.0,0.0,0.0,0.0,0.0,0.0,0.0,0.0,0.0,0.0,0.0,0.0,0.0,0.0,0.0,0.0,0.0,0.0,0.0,0.0,0.0,0.0,0.0,0.0,0.0,0.0,0.0,0.0,0.0,0.0,0.0,0.0,0.0,0.0,0.0,0.0,0.0,0.0,0.0,0.0,0.0,0.0,0.0,0.0,0.0,0.0,0.0,0.0,0.0,0.0,0.0,0.0,0.0,0.0,0.0,0.0,0.0,0.0,0.0,0.0,0.0,0.0,0.0,0.0,0.0,0.0,0.0,0.0,0.0,0.0,0.0,0.0,0.0,0.0,0.0,0.0,0.0,0.0,0.0,0.0,0.0,0.0,0.0,0.0,0.0,0.0,0.0,0.0,0.0,0.0,0.0,0.0,0.0,0.0,0.0,0.0,0.0,0.0,0.0,0.0,0.0,0.0,0.0,0.0,0.0,0.0,0.0,0.0,0.0,0.0,0.0,0.0,0.0,0.0,0.0,0.0,0.0,0.0,0.0,0.0,0.0,0.0,0.0,0.0,0.0,0.0,0.0,0.0,0.0,0.0,0.0,0.0,0.0,0.0,0.0,0.0,0.0,0.0,0.0,0.0,0.0,0.0,0.0,0.0,0.0,0.0,0.0,0.0,0.0,0.0,0.0,0.0,0.0,0.0,0.0,0.0,0.0,0.0,0.0,0.0,0.0,0.0,0.0,0.0,0.0,0.0,0.0,0.0,0.0,0.0,0.0,0.0,0.0,0.0,0.0,0.0,0.0,0.0,0.0,0.0,0.0,0.0,0.0,0.0,0.0,0.0,0.0,0.0,0.0,0.0,0.0,0.0,0.0,0.0,0.0,0.0,0.0,0.0,0.0,0.0,0.0,0.0,0.0,0.0,0.0,0.0,0.0,0.0,0.0,0.0,0.0,0.0,0.0,0.0,0.0,0.0,0.0,0.0,0.0,0.0,0.0,0.0,0.0,0.0,0.0,0.0,0.0,0.0,0.0,0.0,0.0,0.0,0.0,0.0,0.0,0.0,0.0,0.0,0.0,0.0,0.0,0.0,0.0,0.0,0.0,0.0,0.0,0.0,0.0,0.0,0.0,0.0,0.0,0.0,0.0,0.0,0.0,0.0,0.0,0.0,0.0,0.0,0.0,0.0,0.0,0.0,0.0,0.0,0.0,0.0,0.0,0.0,0.0,0.0,0.0,0.0,0.0,0.0,0.0,0.0,0.0,0.0,0.0,0.0,0.0,0.0,0.0,0.0,0.0,0.0,0.0,0.0,0.0,0.0,0.0,0.0,0.0,0.0,0.0,0.0,0.0,0.0,0.0,0.0,0.0,0.0,0.0,0.0,0.0,0.0,0.0,0.0,0.0,0.0,0.0,0.0,0.0,0.0,0.0,0.0,0.0,0.0,0.0,0.0,0.0,0.0,0.0,0.0,0.0,0.0,0.0,0.0,0.0,0.0,0.0,0.0,0.0,0.0,0.0,0.0,0.0,0.0,0.0,0.0,0.0,0.0,0.0,0.0,0.0,0.0,0.0,0.0,0.0,0.0,0.0,0.0,0.0,0.0,0.0,0.0,0.0,0.0,0.0,0.0,0.0,0.0,0.0,0.0,0.0,0.0,0.0,0.0,0.0,0.0,0.0,0.0,0.0,0.0,0.0,0.0,0.0,0.0,0.0,0.0,0.0,0.0,0.0,0.0,0.0,0.0,0.0,0.0,0.0,0.0,0.0,0.0,0.0,0.0,0.0,0.0,0.0,0.0,1.3062,1.1468,0.0,0.0,0.0,0.0,0.0,0.0,0.0,0.0,0.0,0.0,0.0,0.0,0.0,0.0,0.0,0.0,0.0,0.0,0.0,0.0,0.0,0.0,0.0,0.5671,0.5795,0.5795,0.5795,0.0,0.0,0.0,0.0,0.0,0.0,0.0,0.0,0.0,0.5816,0.646,0.6914,0.7721,0.8797,0.8495,0.7903,0.715,0.0,0.0,0.0,0.0,0.0,0.0,0.0,0.0,0.0,0.0,0.0,0.0,0.0,0.0,0.0,0.0,0.0,0.0,0.0,0.0,0.0,0.0,0.0,0.0,0.0,0.0,0.0,0.0,0.0,0.0,0.0,0.0,0.0,0.0,0.0,0.0,0.0,0.0,0.0,0.0,0.0,0.0,0.0,0.0,0.0,0.0,0.0,0.0,0.0,0.0,0.0,0.0,0.0,0.0,0.0,0.0,0.0,0.0,0.0,0.0,0.0,0.0,0.0,0.0,0.0,0.0,0.0,0.0,0.0,0.0,1.5152,1.3931,0.0,0.0,0.0,0.0,0.0,0.0,0.0,0.0,0.0,0.0,0.0,0.0,0.0,0.0,0.0,0.0,0.0,0.0,0.0,0.0,0.0,0.5649,0.5711,0.6086,0.6374,0.6479,0.6374,0.6312,0.623,0.5837,0.0,0.0,0.0,0.0,0.0,0.569,0.6377,0.7742,0.8218,0.9294,1.0912,1.1665,1.1297,0.9914,0.9638,0.0,0.0,0.0,0.0,0.0,0.0,0.0,0.0,0.0,0.0,0.0,0.0,0.0,0.0,0.0,0.0,0.0,0.0,0.0,0.0,0.0,0.0,0.0,0.0,0.0,0.0,0.0,0.0,0.0,0.0,0.0,0.0,0.0,0.0,0.0,0.0,0.0,0.0,0.0,0.0,0.0,0.0,0.0,0.0,0.0,0.0,0.0,0.0,0.0,0.0,0.0,0.0,0.0,0.0,0.0,0.0,0.0,0.0,0.0,0.0,0.0,0.0,0.0,1.7884,1.8132,1.8132,1.8278,1.8733,1.9313,1.745,1.6933,1.7243,1.5173,0.0,0.0,0.0,0.0,0.0,0.0,0.0,0.0,0.0,0.0,0.0,0.0,0.0,0.0,0.0,0.0,0.0,0.0,0.0,0.6189,0.6583,0.7038,0.7473,0.7887,0.7555,0.7141,0.6748,0.6293,0.0,0.0,0.0,0.0,0.6024,0.6417,0.7307,0.8724,1.1054,1.2751,1.3786,1.4291,1.4356,1.3918,1.1746,1.0676,1.0476,0.0,0.0,0.0,0.0,0.0,0.0,0.0,0.0,0.0,0.0,0.0,0.0,0.0,0.0,0.0,0.0,0.0,0.0,0.0,0.0,0.0,0.0,0.0,0.0,0.0,0.0,0.0,0.0,0.0,0.0,0.0,0.0,0.0,0.0,0.0,0.0,0.0,0.0,0.0,0.0,0.0,1.3207,1.3331,0.0,0.0,0.0,0.0,0.0,0.0,0.0,0.0,0.0,0.0,0.0,0.0,0.0,1.675,1.745,1.8299,1.8733,1.8816,1.9665,2.0058,2.0079,2.0493,2.0741,2.0824,2.0534,0.0,1.8713,1.7636,0.0,0.0,0.0,0.0,0.0,0.0,0.0,0.0,0.0,0.0,0.0,0.0,0.0,0.0,0.0,0.0,0.0,0.0,0.0,0.0,0.0,0.8218,0.8808,0.9294,0.9117,0.8735,0.8011,0.7307,0.0,0.0,0.0,0.6044,0.65,0.7473,0.9025,1.1157,1.3393,1.4727,1.5353,1.5977,1.6353,1.6356,1.5173,1.3928,1.2698,1.1485,0.0,0.0,0.0,0.0,0.0,0.0,0.0,0.0,0.0,0.0,0.0,0.0,0.0,0.0,0.0,0.0,0.0,0.0,0.0,0.0,0.0,0.0,0.0,0.0,0.0,0.0,0.0,0.0,0.0,0.0,0.0,0.0,0.0,0.0,0.0,0.0,0.0,0.0,0.0,1.2917,1.3621,1.3621,1.3434,1.316,0.0,0.0,0.0,0.0,0.0,0.0,0.0,0.0,0.0,1.7843,1.8071,1.8651,1.9624,2.0017,2.0472,2.101,2.1404,2.1735,2.1983,2.219,2.2273,2.2273,2.2273,2.1942,2.1259,1.9561,1.8133,1.6933,0.0,0.0,0.0,0.0,1.6581,1.714,0.0,0.0,0.0,0.0,0.0,0.0,0.0,0.0,0.0,0.0,0.0,0.0,0.8611,0.9489,1.0252,1.0829,1.0788,1.0412,0.9659,0.8487,0.7493,0.6686,0.6395,0.6624,0.7328,0.9149,1.1199,1.3455,1.5122,1.6077,1.6297,1.6881,1.7334,1.759,1.7427,1.6468,1.488,1.3788,1.2582,1.1251,0.0,0.0,0.0,0.0,0.0,0.0,0.0,0.0,0.0,0.0,0.0,0.0,0.0,0.0,0.0,0.0,0.0,0.0,0.0,0.0,0.0,0.0,0.0,0.0,0.0,0.0,0.0,0.0,0.0,0.0,0.0,0.0,0.0,0.0,0.0,0.0,0.0,1.3683,1.4324,1.4324,1.4531,1.4449,0.0,0.0,0.0,0.0,0.0,0.0,1.7036,1.7491,1.8361,1.9727,1.9893,2.0493,2.1631,2.1652,2.2004,2.2666,2.2666,2.2853,2.3184,2.3184,2.3184,2.3184,2.3184,2.3184,2.306,2.1342,2.0224,1.9561,1.921,1.8961,1.8796,1.9003,1.9375,1.9893,0.0,0.0,0.0,0.0,0.0,0.0,0.0,0.0,0.0,0.0,0.0,0.9129,1.0004,1.093,1.182,1.2665,1.2399,1.2006,1.1508,0.9825,0.862,0.8114,0.7245,0.7411,0.8787,1.1799,1.3869,1.4883,1.6132,1.6786,1.6786,1.6807,1.6976,1.7234,1.7213,1.7233,1.7128,1.5636,1.4695,1.3983,1.148,0.0,0.0,0.0,0.0,0.0,0.0,0.0,0.0,0.0,0.0,0.0,0.0,0.0,0.0,0.0,0.0,0.0,0.0,0.0,0.0,0.0,0.0,0.0,0.0,0.0,0.0,0.0,0.0,0.0,0.0,0.0,0.0,0.0,0.0,0.0,0.0,0.0,0.0,1.6249,1.6995,0.0,0.0,0.0,0.0,1.7472,1.7595,1.8009,1.8899,1.9443,2.0265,2.1631,2.2087,2.2563,2.308,2.308,2.3101,2.3143,2.3143,2.3163,2.3184,2.3184,2.3184,2.3184,2.3184,2.3184,2.3184,2.306,2.2232,2.101,2.099,2.0452,1.9789,2.0659,2.128,2.1797,0.0,0.0,0.0,0.5915,0.5745,0.5633,0.5501,0.5919,0.6463,0.7162,0.8446,0.9874,1.1385,1.2337,1.3269,1.4179,1.4117,1.3703,1.2937,1.1199,1.0246,1.0407,0.9211,0.9736,1.2316,1.3765,1.509,1.6312,1.6701,1.7189,1.7722,1.79,1.8174,1.8467,1.8722,1.8862,1.8759,1.722,1.6095,1.5223,1.3661,1.2031,0.0,0.0,0.0,0.0,0.0,0.0,0.0,0.0,0.0,0.0,0.0,0.0,0.0,0.0,0.0,0.0,0.0,0.0,0.0,0.0,0.0,0.0,0.0,0.0,0.0,0.0,0.0,0.0,0.0,0.0,0.0,0.0,0.0,0.0,0.0,0.0,0.0,1.6829,1.7595,0.0,1.7305,1.8071,1.8713,1.9023,1.9851,2.0617,2.1238,2.1714,2.219,2.2687,2.2853,2.3018,2.3184,2.3184,2.3329,2.3639,2.3639,2.3784,2.4053,2.4053,2.4053,2.4053,2.4053,2.4053,2.4053,2.4053,2.3598,2.2915,2.3205,2.3122,2.2873,2.3205,2.3432,2.3619,0.0,0.0,0.0,0.6043,0.5874,0.5745,0.552,0.6192,0.701,0.7873,0.9294,1.0867,1.2544,1.3393,1.4221,1.5152,1.5235,1.4966,1.4366,1.2606,1.1737,1.2006,1.1118,1.1923,1.4718,1.5214,1.6063,1.7224,1.7444,1.7853,1.8416,1.8698,1.8939,1.9179,1.944,1.9499,1.949,1.8542,1.7679,1.6807,1.5613,1.4121,1.2407,0.0,0.0,0.0,0.0,0.0,0.0,0.0,0.0,0.0,0.0,0.0,0.0,0.0,0.0,0.0,0.0,0.0,0.0,0.0,0.0,0.0,0.0,0.0,0.0,0.0,0.0,0.0,0.0,0.0,0.0,0.0,0.0,0.0,0.0,1.6857,1.7818,1.7698,1.8651,1.9065,1.8485,1.952,2.0348,2.0659,2.1673,2.2418,2.2708,2.3018,2.3267,2.3412,2.3412,2.3494,2.3639,2.3639,2.3805,2.4095,2.4095,2.426,2.455,2.455,2.455,2.455,2.455,2.455,2.455,2.455,2.4364,2.4136,2.4426,2.455,2.455,2.455,2.455,2.455,0.0,0.0,0.6535,0.608,0.6007,0.5897,0.556,0.6647,0.7852,0.8787,1.0511,1.2109,1.3496,1.4055,1.4718,1.5628,1.5711,1.5711,1.5711,1.3972,1.2892,1.2892,1.2975,1.389,1.5691,1.6187,1.685,1.7698,1.8355,1.872,1.8742,1.9044,1.9224,1.9224,1.9246,1.9224,1.9306,1.9604,1.9424,1.8804,1.7312,1.6095,1.497,0.0,0.0,0.0,0.0,0.0,0.0,0.0,0.0,0.0,0.0,0.0,0.0,0.0,0.0,0.0,0.0,0.0,0.0,0.0,0.0,0.0,0.0,0.0,0.0,0.0,0.0,0.0,0.0,0.0,0.0,0.0,0.0,0.0,1.7719,1.7961,1.8454,1.906,2.0327,2.0803,2.0004,2.1466,2.2522,2.2542,2.2956,2.3205,2.3225,2.3225,2.3432,2.3888,2.3888,2.4115,2.4529,2.455,2.455,2.455,2.455,2.455,2.455,2.455,2.455,2.455,2.455,2.4571,2.4506,2.4506,2.4506,2.4571,2.4464,2.455,2.455,2.455,2.455,2.4485,0.6858,0.6681,0.6458,0.6183,0.6116,0.5952,0.5558,0.6762,0.7988,0.8787,1.0781,1.2629,1.3972,1.4821,1.5546,1.6146,1.6187,1.6187,1.6187,1.4449,1.3434,1.3434,1.4976,1.609,1.6605,1.7336,1.7861,1.8195,1.8638,1.8871,1.9017,1.9597,1.9852,1.9852,2.0421,2.0631,2.0694,2.0756,2.0458,1.993,1.9149,1.8001,1.6646,0.0,0.0,0.0,0.0,0.0,0.0,0.0,0.0,0.0,0.0,0.0,0.0,0.0,0.0,0.0,0.0,0.0,0.0,0.0,0.0,0.0,0.0,0.0,0.0,0.0,0.0,0.0,0.0,0.0,0.0,0.0,1.6777,1.7872,1.7962,1.9283,2.0339,2.0555,2.1487,2.2025,2.1776,2.2501,2.3143,2.3474,2.3619,2.3826,2.4157,2.4178,2.4219,2.4364,2.4364,2.4426,2.455,2.455,2.455,2.455,2.455,2.455,2.455,2.455,2.4716,2.5047,2.5047,2.5213,2.5502,2.5502,2.5502,2.544,2.4799,2.455,2.455,2.455,2.4757,2.5088,0.6908,0.6765,0.6561,0.6254,0.6183,0.6089,0.5792,0.7037,0.8347,0.9327,1.1261,1.3062,1.4449,1.5256,1.5877,1.6332,1.6374,1.6291,1.6105,1.509,1.4573,1.4759,1.6172,1.7162,1.7595,1.803,1.8406,1.8671,1.8996,1.9318,1.9528,2.0031,2.0442,2.0571,2.1019,2.1233,2.1233,2.1233,2.0986,2.0687,2.0412,1.9516,1.8276,1.7771,1.7037,1.6141,1.5176,1.4626,1.4373,1.396,0.0,0.0,0.0,0.0,0.0,0.0,0.0,0.0,0.0,0.0,0.0,0.0,0.0,0.0,0.0,0.0,0.0,0.0,0.0,0.0,0.0,0.0,0.0,0.0,1.8125,1.9272,1.9535,2.0507,2.1369,2.1618,2.2335,2.2791,2.2791,2.3205,2.3598,2.3867,2.4053,2.426,2.4529,2.455,2.455,2.455,2.455,2.455,2.455,2.4206,2.4288,2.4819,2.4472,2.4641,2.5109,2.5109,2.5254,2.5502,2.5502,2.5647,2.5875,2.5875,2.5875,2.5834,0.0,0.0,0.0,0.0,2.5275,2.5544,0.6908,0.696,0.6834,0.6421,0.6385,0.6385,0.6297,0.7497,0.8836,1.006,1.1799,1.3455,1.4842,1.5421,1.5877,1.6332,1.6374,1.6187,1.5711,1.5794,1.6001,1.6374,1.6912,1.7574,1.8361,1.8487,1.8716,1.9065,1.9462,1.9791,2.0031,2.0442,2.0764,2.1146,2.1169,2.1233,2.1233,2.1233,2.1233,2.1233,2.1233,2.0595,1.9723,1.9241,1.9034,1.8873,1.7955,1.7358,1.683,1.6003,0.0,0.0,0.0,0.0,0.0,0.0,0.0,0.0,0.0,0.0,0.0,0.0,0.0,0.0,0.0,0.0,0.0,0.0,0.0,0.0,0.0,0.0,0.0,0.0,1.9819,2.1247,2.163,2.171,2.197,2.2505,2.2977,2.3267,2.3267,2.3681,2.395,2.395,2.4322,2.455,2.455,2.455,0.0,0.0,0.0,2.4571,2.4612,2.4008,2.423,2.5316,2.4654,2.4946,2.5875,2.5875,2.5916,2.5958,2.5958,2.5978,2.6041,2.6041,2.6041,2.602,2.5916,2.5875,2.5896,2.5937,2.5958,2.5958,0.6986,0.724,0.7462,0.7225,0.7085,0.7079,0.728,0.8283,0.935,1.0256,1.184,1.3455,1.4842,1.5421,1.5877,1.6332,1.6374,1.6187,1.5711,1.6374,1.6663,1.6394,1.7491,1.8195,1.8382,1.9015,1.9312,1.9065,1.9726,1.9922,1.9726,2.0313,2.0635,2.07,2.1042,2.1233,2.1233,2.1233,2.1233,2.1233,2.1233,2.0802,2.0251,2.0159,1.9884,1.9516,1.931,1.9195,1.9126,1.931,1.8506,1.7352,1.7185,1.583,0.0,0.0,0.0,0.0,0.0,0.0,0.0,0.0,0.0,0.0,0.0,0.0,0.0,0.0,0.0,0.0,0.0,0.0,0.0,1.931,2.0611,2.1748,2.2715,2.3207,2.331,2.3101,2.3474,2.3743,2.3743,2.4157,2.4405,2.4405,2.4488,2.455,2.455,2.455,2.455,2.455,2.455,2.4716,2.5088,2.4913,2.5139,2.5751,2.5661,0.0,2.5875,2.5875,2.6082,2.6434,2.6434,2.6641,2.6993,2.6993,2.6993,2.691,2.6165,2.5875,2.5916,2.631,2.6434,2.6496,0.6996,0.758,0.8056,0.7854,0.7711,0.7717,0.7923,0.8755,0.9701,1.0608,1.211,1.3465,1.4531,1.4863,1.509,1.5318,1.5339,1.5442,1.567,1.6332,1.6808,1.7036,1.8093,1.8678,1.8713,1.9291,1.955,1.933,1.966,1.9922,2.0118,2.0442,2.07,2.0892,2.1106,2.1233,2.1233,2.1233,2.1233,2.1233,2.1233,2.1009,2.0779,2.0779,2.0641,2.0389,2.0136,2.0044,2.0044,2.0044,1.9422,1.8566,1.8148,1.7154,1.5825,0.0,0.0,0.0,0.0,0.0,0.0,0.0,0.0,0.0,0.0,0.0,0.0,0.0,0.0,1.6147,1.6373,0.0,1.9473,2.0496,2.1666,2.2655,2.3474,2.3743,2.3784,2.3557,2.3929,2.4219,2.4219,2.4405,2.455,2.455,2.455,2.455,2.455,2.4757,2.4881,2.4881,2.5109,2.5316,2.5564,2.5186,2.5411,2.6227,2.5839,2.6054,2.6579,2.6579,2.6703,2.691,2.691,2.7179,2.7614,2.7841,2.7945,2.7883,2.7427,2.7117,2.6951,2.7427,2.7593,2.7614,0.7153,0.7972,0.8666,0.8346,0.8249,0.8318,0.8532,0.9096,0.9871,1.0929,1.2127,1.3186,1.4028,1.4021,1.4021,1.4159,1.4262,1.4697,1.5628,1.6208,1.687,1.7698,1.8407,1.8933,1.9131,1.933,1.955,1.9615,1.9681,1.9987,2.0571,2.07,2.0892,2.1233,2.1233,2.1233,2.1233,2.1233,2.1233,2.1233,2.1233,2.1233,2.1233,2.1233,2.1233,2.1164,2.071,2.0549,2.0504,2.0113,1.9704,1.9246,1.8607,1.8143,1.7445,1.549,1.5139,0.0,0.0,0.0,0.0,0.0,0.0,0.0,0.0,1.422,1.499,1.575,1.6788,1.7789,1.8385,1.9707,2.1011,2.179,2.2737,2.3474,2.395,2.4012,2.4012,2.4012,2.4322,2.455,2.455,2.455,2.455,2.455,2.455,2.4571,2.4674,2.5026,2.5275,2.5357,2.5689,2.5916,2.602,2.5452,2.5675,2.6703,2.6121,2.6364,2.7386,2.7386,2.7448,2.7531,2.7531,2.7717,2.809,2.8462,2.8607,2.8628,2.8711,2.8524,2.8235,2.8504,2.8607,2.8607,0.7614,0.8573,0.9227,0.8662,0.8663,0.8924,0.9461,0.9521,0.9855,1.0886,1.1344,1.2055,1.3207,1.2996,1.3036,1.3621,1.4076,1.4697,1.5628,1.6498,1.7142,1.7719,1.8217,1.8653,1.9065,1.9131,1.9264,1.9615,1.9922,2.0248,2.0635,2.0978,2.1169,2.1233,2.1233,2.1233,2.1233,2.1233,2.1233,2.1233,2.1233,2.1233,2.1233,2.1233,2.1233,2.121,2.1101,2.1078,2.1078,2.1072,2.071,2.0198,1.9801,1.916,1.8414,1.744,1.6743,1.605,1.4966,1.4469,1.4155,1.3917,1.4506,1.5465,0.0,1.7154,1.7736,1.8233,1.9442,2.0463,2.0658,2.1372,2.2351,2.3453,2.3764,2.395,2.4405,2.4467,2.4467,2.4467,2.4509,2.455,2.455,2.455,2.455,2.455,2.455,2.4716,2.513,2.5213,2.5399,2.5792,2.5854,2.6082,2.6496,2.6403,2.6724,2.7179,2.7179,2.7311,2.7841,2.7841,2.8069,2.8462,2.8462,2.8483,2.8545,2.8587,2.8607,2.8649,2.9063,2.9187,2.9104,2.8752,2.8607,2.8607,0.7214,0.8181,0.8913,0.8657,0.9105,0.9541,0.9661,0.9709,0.9935,1.0465,1.0721,1.1164,1.1897,1.1502,1.1567,1.2487,1.3128,1.4014,1.5214,1.6315,1.7026,1.7305,1.8131,1.8575,1.8651,1.9138,1.9462,1.9615,1.9726,2.0053,2.0571,2.0764,2.0978,2.1233,2.1233,2.1233,2.1233,2.1233,2.1233,2.1233,2.1233,2.1233,2.1233,2.1233,2.1233,2.1187,2.0825,2.0733,0.0,2.0523,2.0138,1.9794,1.9397,1.8689,1.7884,1.7336,1.677,1.6287,1.6535,1.6249,1.5936,1.6176,1.6904,1.7586,1.7736,1.8176,1.8754,1.9621,2.0272,2.0837,2.157,2.2145,2.2872,2.3763,2.4095,2.4322,2.4509,2.455,2.455,2.455,2.455,2.455,2.455,2.455,2.4654,2.4923,2.4943,2.513,2.5585,2.5875,2.6082,2.6268,2.6537,2.6786,2.6972,2.722,2.7448,2.7655,2.7924,2.8152,2.8317,2.8317,2.8421,2.8628,2.8897,2.9021,2.9042,2.9311,2.9415,2.9435,2.9622,2.9704,2.9684,2.9497,2.9415,2.9415,0.6908,0.7815,0.8605,0.8605,0.9427,0.9995,0.9736,0.973,0.984,1.0069,1.0223,1.0392,1.0609,1.0144,1.0261,1.1292,1.2069,1.3186,1.4718,1.5888,1.6665,1.7015,1.7768,1.8275,1.8425,1.8973,1.9401,1.9615,1.9615,1.9922,2.0442,2.0442,2.07,2.1019,2.1019,2.1106,2.1233,2.1233,2.1233,2.1233,2.1233,2.1233,2.1146,2.0946,2.0808,2.0772,2.0343,2.0205,2.0076,1.9343,1.9059,1.8846,1.8351,1.7765,1.7323,1.722,1.6884,1.6665,1.7305,1.7471,1.7513,1.7961,1.8774,1.929,1.8759,1.9104,1.9811,2.0659,2.1124,2.166,2.2551,2.2972,2.3442,2.3969,2.4322,2.455,2.455,2.455,2.455,2.455,2.455,2.4592,2.4716,2.4736,2.4861,2.5213,2.5337,2.5606,2.6041,2.6392,2.662,2.6765,2.72,2.7448,2.7448,2.7883,2.811,2.811,2.8442,2.869,2.8814,2.8938,2.9001,2.9021,2.9352,2.9497,2.9518,2.9849,2.9994,3.0015,3.0139,3.018,3.0201,3.0325,3.0222,3.0015,0.6908,0.7815,0.8605,0.8605,0.9543,1.0148,0.9762,0.9526,0.9501,0.9758,0.982,0.9731,0.9484,0.9139,0.9294,1.0149,1.1095,1.2379,1.42,1.5194,1.6105,1.6935,1.7057,1.7471,1.8361,1.8402,1.8825,1.9615,1.9615,1.9791,2.0096,2.0096,2.0313,2.0635,2.0635,2.0828,2.1233,2.1233,2.1233,2.1233,2.1233,2.1233,2.1101,2.0308,1.9916,1.9746,1.9723,1.9723,1.947,1.7761,1.7472,1.7678,1.6591,1.6577,1.6999,1.7511,1.7698,1.7574,1.7121,1.7678,1.8438,1.8725,1.9456,2.0131,1.9907,2.0643,2.1451,2.1491,2.2696,2.3846,2.3846,2.4219,2.4444,2.4529,2.4444,2.455,2.455,2.455,2.455,2.455,2.455,2.4716,2.5171,2.5213,2.5213,2.5233,2.5627,2.6061,2.6517,2.6558,2.6786,2.722,2.7676,2.7903,2.7903,2.8359,2.8587,2.8587,2.8607,2.8856,2.929,2.9746,2.9953,2.9953,2.9973,2.9973,2.9973,2.9994,2.9994,3.0036,3.0491,3.0677,3.0719,3.1174,3.076,3.0056,0.7371,0.8057,0.8735,0.9122,0.9804,1.0199,0.9919,0.9659,0.9441,0.941,0.9074,0.0,0.0,0.0,0.0,0.0,1.0988,1.1902,1.3724,1.4871,1.5699,1.6125,1.69,1.7361,1.7491,1.7802,1.8238,1.8804,1.8804,1.9167,1.9791,1.9791,1.9922,2.0313,2.0313,2.0355,2.0484,2.0484,2.0571,2.0764,2.0764,2.0773,2.0687,2.0785,2.0,1.885,0.0,1.7943,1.7743,1.6742,1.6537,1.6634,1.6419,1.6035,1.5666,1.5891,1.656,1.7368,1.8175,1.8837,1.9582,2.0512,2.1267,2.168,2.1666,2.2129,2.2696,2.3002,2.2899,2.2917,2.3742,2.3655,2.3483,2.4011,2.4343,2.455,2.455,2.455,2.455,2.455,2.4819,2.5068,2.5213,2.5233,2.5482,2.6082,2.6248,2.6537,2.6993,2.7034,2.7241,2.7676,2.7841,2.8069,2.838,2.8835,2.9063,2.9083,2.9394,2.9622,2.9766,2.9932,2.9994,2.9994,2.9994,3.018,3.045,3.045,3.0636,3.0926,3.1091,3.1153,3.1153,3.1319,3.1174,3.0946,0.0,0.8005,0.8474,0.907,0.9645,0.0,0.0,0.0,0.0,0.0,0.0,0.0,0.0,0.0,0.0,0.0,0.0,1.1385,1.302,1.3972,1.4734,1.5173,1.5917,1.6398,1.656,1.6684,1.714,1.7905,1.7905,1.826,1.8912,1.8912,1.9105,1.9403,1.9403,1.9467,1.9615,1.9615,2.0092,2.0859,2.0142,2.011,2.0494,1.9803,1.8757,0.0,1.6453,1.6005,1.5807,1.5107,1.5006,1.5249,1.5154,1.5194,1.5277,1.5442,1.6456,1.7843,1.9375,2.0017,2.0576,2.1963,2.2522,2.267,2.241,2.294,2.3433,2.3472,2.3,2.2818,2.3701,2.341,2.3162,2.3763,2.4385,2.4736,2.4485,2.4588,2.4778,2.4778,2.5047,2.5357,2.5689,2.5709,2.5958,2.6517,2.6724,2.6951,2.7241,2.7262,2.7469,2.7903,2.809,2.84,2.8856,2.9311,2.9559,2.9559,2.9849,3.0077,3.0243,3.0243,3.0325,3.0491,3.0491,3.0657,3.0926,3.0926,3.1112,3.1402,3.1547,3.1609,3.1629,3.1795,3.1857,3.1836,0.0,0.0,0.7901,0.0,0.0,0.0,0.0,0.0,0.0,0.0,0.0,0.0,0.0,0.0,0.0,0.0,0.0,0.0,1.2152,1.2606,1.3269,1.4159,1.4262,1.4718,1.5608,1.5214,1.5649,1.6915,1.6915,1.7142,1.7595,1.7595,1.778,1.8126,1.8126,1.8309,1.8715,1.8715,1.9691,2.1127,1.9157,1.9284,2.0272,1.7678,1.6304,1.5727,1.4721,1.4139,1.3803,1.2913,1.3173,1.3672,1.3261,1.4345,1.5856,1.6332,1.7409,1.8837,2.0638,2.1155,2.1507,2.2853,2.3205,2.3063,2.2389,2.3061,2.3721,2.2988,2.2939,2.3246,2.3619,2.3391,2.3267,2.3701,2.4571,2.5047,2.4526,2.4943,2.5233,2.5233,2.5275,2.5627,2.6475,2.6579,2.6599,2.6599,2.7013,2.7262,2.7262,2.7282,2.7489,2.7945,2.84,2.8876,2.9332,2.9766,2.9994,2.9994,2.9994,3.0243,3.0677,3.0677,3.0946,3.1381,3.1381,3.1381,3.1422,3.1422,3.1422,3.1485,3.1919,3.2085,3.2126,3.2561,3.2727,3.2664,0.0,0.0,0.0,0.0,0.0,0.0,0.0,0.0,0.0,0.0,0.0,0.0,0.0,0.0,0.0,0.0,0.0,0.0,1.1199,1.1675,1.2172,1.2796,1.3765,1.4428,1.4656,1.4883,1.5339,1.6042,1.6042,1.627,1.6726,1.6726,1.6784,1.6842,1.6842,1.69,1.7017,1.7017,1.744,1.8013,1.7513,1.7431,1.7634,1.7335,1.6339,1.5021,1.4765,1.4026,1.3215,1.3319,1.3951,1.4809,1.567,1.6255,1.685,1.7636,1.8609,1.9665,2.0803,2.1611,2.2315,2.3018,2.3453,2.3701,2.3453,2.3885,2.4093,2.3248,2.2628,2.1983,2.1404,2.1776,2.219,2.2315,2.3681,2.4674,2.455,2.4943,2.5233,2.5233,2.5834,2.633,2.6558,2.6889,2.7076,2.7076,2.72,2.7262,2.7262,2.7572,2.7966,2.8421,2.8876,2.9352,2.9808,2.9932,2.9994,2.9994,2.9994,3.0243,3.0677,3.0677,3.0946,3.1381,3.1381,3.1567,3.1878,3.1878,3.2064,3.2395,3.252,3.2561,3.2561,3.2685,3.2727,3.2706,0.0,0.0,0.0,0.0,0.0,0.0,0.0,0.0,0.0,0.0,0.0,0.0,0.0,0.0,0.0,0.0,0.0,0.0,0.0,1.0971,1.1281,1.1965,1.2689,1.3207,1.3414,1.3476,1.391,1.478,1.4573,1.4821,1.5463,1.5256,1.5173,1.5173,1.538,1.5463,1.5484,1.5691,1.6329,0.0,0.0,1.5998,1.6373,1.5611,1.4612,1.3715,1.3926,1.3909,1.3931,1.4593,1.5297,1.6022,1.6905,1.7366,1.7802,1.8713,1.9644,2.0596,2.1714,2.2563,2.3205,2.366,2.3971,2.3928,2.2981,2.3207,2.3185,2.1558,2.0872,2.0452,1.9934,2.0741,2.1569,2.1776,2.3515,2.484,2.484,2.5233,2.5585,2.5792,2.6268,2.6641,2.6848,2.7117,2.7262,2.7262,2.7262,2.7345,2.7552,2.78,2.8235,2.8897,2.9166,2.9518,2.9994,2.9994,2.9994,2.9994,3.0201,3.0532,3.0988,3.1195,3.1526,3.1981,3.1981,3.2106,3.2333,3.2333,3.2499,3.2727,3.2727,3.2727,3.2727,3.2727,3.2727,3.2727,0.0,0.0,0.0,0.0,0.0,0.0,0.0,0.0,0.0,0.0,0.0,1.0795,1.1126,1.1228,0.0,0.0,0.0,0.0,0.0,0.0,1.0578,1.1364,1.1549,1.1799,1.2214,1.1882,1.2254,1.3434,1.3041,1.3248,1.4035,1.3621,1.3434,1.3455,1.3848,1.4076,1.4159,1.4552,1.5657,1.6963,1.4765,1.4637,1.5622,0.0,1.2425,1.2359,1.2772,1.3807,1.5132,1.6063,1.6746,1.7243,1.7672,1.8239,1.892,1.9768,2.0596,2.1507,2.2832,2.3474,2.3908,2.4405,2.455,2.4008,2.199,2.1967,2.1706,1.9163,1.8745,1.8775,1.8733,1.9872,2.101,2.1528,2.3598,2.5171,2.5233,2.5668,2.6123,2.6517,2.662,2.6827,2.722,2.7262,2.7282,2.7345,2.7345,2.751,2.7903,2.8048,2.8504,2.9373,2.9394,2.958,2.9994,2.9994,2.9994,2.9994,3.047,3.0926,3.1402,3.1836,3.2292,3.2727,3.2727,3.2727,3.2727,3.2727,3.2727,3.2727,3.2727,3.2727,3.2727,3.2727,3.2727,3.2727,0.0,0.0,0.0,0.0,0.0,0.0,0.0,0.0,0.0,0.0,1.2608,1.1981,0.0,0.0,0.0,0.0,0.0,0.0,0.0,0.0,0.0,1.0417,1.1178,1.1653,1.1736,1.2027,1.2297,1.2546,1.2463,1.2505,1.2671,1.2567,1.2546,1.2546,1.2629,1.2813,1.3165,1.3248,1.3689,1.4237,1.3398,1.3232,1.3403,1.2632,0.0,0.0,1.2772,1.3807,1.5132,1.6063,1.716,1.834,1.9547,2.0203,2.0741,2.128,2.1569,2.1901,2.2915,2.3246,2.3494,2.4322,2.455,2.4093,2.2652,2.2113,2.13,1.8931,1.7905,1.7284,1.6912,1.8257,1.9686,2.0534,2.2915,2.4799,2.5171,2.5937,2.6475,2.6558,2.691,2.7179,2.7262,2.7262,2.7407,2.7779,2.78,2.7841,2.7924,2.8649,2.9311,2.9849,2.987,2.9911,2.9994,2.9994,2.9994,2.9994,3.047,3.0926,3.1402,3.1836,3.2292,3.2727,3.2727,3.2727,3.2727,3.2727,3.2727,3.2727,3.2727,3.2727,3.2727,3.2727,3.2727,3.2727,0.0,0.0,0.0,0.0,0.0,0.0,0.0,1.3226,1.4193,1.5395,1.5205,1.4396,1.2912,1.2473,1.2018,0.0,0.0,0.0,0.0,0.0,0.0,1.0541,1.1012,1.124,1.124,1.1447,1.1675,1.1944,0.0,1.1675,1.1944,1.1675,1.1571,1.1571,1.184,1.2069,1.2234,1.2482,1.271,1.2875,1.2399,1.2213,1.2172,1.1737,0.0,0.0,1.2503,1.3621,1.507,1.5504,1.687,1.8609,1.9996,2.0907,2.1507,2.1735,2.1983,2.2315,2.2998,2.337,2.3701,2.4385,2.455,2.3991,2.1901,2.1073,1.9955,1.7181,1.627,1.5918,1.5691,1.7326,1.9003,1.9934,2.2397,2.4447,2.513,2.5999,2.6662,2.691,2.7117,2.7262,2.7262,2.7469,2.7696,2.7903,2.8359,2.8649,2.8649,2.929,2.9766,2.9994,2.9994,2.9994,2.9994,2.9994,2.9994,2.9994,3.0719,3.1153,3.1402,3.2085,3.252,3.2727,3.2727,3.2727,3.2727,3.2727,3.2727,3.2727,3.2727,3.2727,3.2727,3.2727,3.2727,3.2727,0.0,0.0,0.0,0.0,0.0,0.0,0.0,1.4559,1.5735,1.7356,1.7565,1.6814,1.4828,1.368,1.2722,0.0,0.0,0.0,0.0,0.0,0.0,0.0,0.0,0.0,1.0891,0.0,0.0,1.1426,1.1095,0.0,0.0,0.0,0.0,0.0,1.1344,1.1549,1.1468,1.1965,1.2214,0.0,0.0,1.1612,1.157,0.0,0.0,0.0,0.0,1.3248,1.4593,1.4904,1.6312,1.8175,1.9437,2.0679,2.1652,2.1652,2.1983,2.248,2.3039,2.3453,2.3867,2.4405,2.4467,2.3701,2.1031,1.9913,1.8609,1.5608,1.4842,1.4759,1.4966,1.6622,1.834,1.963,2.1921,2.3971,2.5068,2.5999,2.6744,2.72,2.7262,2.7262,2.7262,2.7655,2.7966,2.8069,2.8938,2.9456,2.9456,2.9808,2.9994,2.9994,2.9994,2.9994,2.9994,2.9994,3.0036,3.016,3.0988,3.1422,3.1547,3.2354,3.2727,3.2727,3.2727,3.2727,3.2727,3.2727,3.2727,3.2727,3.2727,3.2727,3.2727,3.2727,3.2727,3.2727,0.0,0.0,0.0,0.0,0.0,0.0,0.0,1.5604,1.7382,1.8584,1.8741,1.8296,1.7053,1.5515,1.4025,0.0,0.0,0.0,0.0,0.0,0.0,0.0,0.0,0.0,0.0,0.0,0.0,1.0953,1.0912,0.0,0.0,0.0,0.0,0.0,0.0,1.1344,1.1012,1.1487,0.0,0.0,0.0,0.0,0.0,0.0,0.0,0.0,0.0,1.2627,1.331,1.4573,1.5691,1.6726,1.7678,1.9458,2.1176,2.1176,2.1507,2.2066,2.2956,2.3225,2.3453,2.4322,2.424,2.3329,2.0969,1.9437,1.7843,1.5484,1.4324,1.3993,1.4842,1.5856,1.7264,1.9484,2.1362,2.3225,2.4985,2.5999,2.6744,2.72,2.7262,2.7262,2.7262,2.7655,2.809,2.8524,2.9415,2.9932,2.9932,2.9973,2.9994,2.9994,2.9994,2.9994,2.9994,2.9994,3.0201,3.0636,3.1133,3.1588,3.2002,3.2499,3.2727,3.2727,3.2727,3.2727,3.2727,3.2727,3.2727,3.2727,3.2727,3.2727,3.2727,3.2727,3.2727,3.2727,0.0,0.0,0.0,0.0,0.0,0.0,1.4036,1.5657,1.7382,1.9211,1.9447,1.9133,1.8323,1.7031,1.5311,1.2948,0.0,0.0,0.0,0.0,0.0,0.0,0.0,0.0,0.0,0.0,1.1178,1.0891,1.1178,0.0,0.0,0.0,0.0,0.0,0.0,1.1508,1.1342,1.1471,0.0,0.0,0.0,0.0,0.0,0.0,0.0,0.0,0.0,0.0,1.3062,1.389,1.478,1.5608,1.598,1.7471,1.9292,2.0389,2.1031,2.1652,2.2853,2.3184,2.335,2.3991,2.3805,2.2853,2.0555,1.8961,1.7429,1.5401,1.4262,1.389,1.4821,1.5525,1.6705,1.8982,2.0659,2.2211,2.3784,2.5026,2.5937,2.6372,2.6682,2.6951,2.7241,2.7655,2.8235,2.898,2.9622,2.9994,2.9994,2.9994,2.9994,2.9994,2.9994,2.9994,2.9994,2.9994,3.0222,3.0698,3.1153,3.1609,3.2064,3.252,3.2727,3.2727,3.2727,3.2727,3.2727,3.2727,3.2727,3.2727,3.2727,3.2727,3.2727,3.2727,3.2727,3.2727,0.0,0.0,0.0,0.0,0.0,1.2646,1.4559,1.5866,1.7329,1.929,1.9525,1.9316,1.8741,1.7486,1.5867,1.381,1.3035,0.0,0.0,0.0,0.0,0.0,0.0,0.0,0.0,0.0,1.1975,1.1499,1.1855,1.1942,0.0,0.0,1.2006,1.211,0.0,0.0,0.0,0.0,0.0,0.0,0.0,0.0,0.0,0.0,0.0,0.0,0.0,0.0,0.0,0.0,0.0,1.48,1.48,1.5877,1.7491,1.9292,2.0348,2.1176,2.2439,2.2873,2.3101,2.3557,2.3225,2.2211,2.0058,1.8506,1.6956,1.5173,1.4159,1.389,1.4821,1.538,1.6394,1.8526,2.0017,2.1445,2.2977,2.424,2.5233,2.5813,2.6165,2.6537,2.7013,2.7717,2.8504,2.9435,2.9808,2.9994,2.9994,2.9994,2.9994,2.9994,2.9994,2.9994,2.9994,2.9994,3.0305,3.0884,3.1215,3.1671,3.225,3.2582,3.2727,3.2727,3.2727,3.2727,3.2727,3.2727,3.2727,3.2727,3.2727,3.2727,3.2727,3.2727,3.2727,3.2727,0.0,0.0,0.0,0.0,0.0,0.0,1.5134,1.6467,1.7617,1.8767,1.8924,1.8715,1.8166,1.6545,1.5462,1.5361,1.3393,0.0,0.0,0.0,0.0,0.0,0.0,0.0,0.0,0.0,1.3447,1.2993,1.2993,1.2742,1.2297,1.271,1.2441,1.1653,0.0,0.0,0.0,0.0,0.0,0.0,0.0,0.0,0.0,0.0,0.0,0.0,0.0,0.0,0.0,0.0,0.0,0.0,0.0,1.4945,1.6063,1.7864,1.9354,2.0638,2.1569,2.2149,2.2625,2.308,2.2501,2.1342,1.9499,1.803,1.6461,1.4697,1.3952,1.389,1.4821,1.538,1.6291,1.8092,1.9541,2.1073,2.2936,2.3971,2.4881,2.5771,2.5875,2.6061,2.6537,2.78,2.898,2.9911,2.9994,2.9994,2.9994,2.9994,2.9994,2.9994,2.9994,2.9994,2.9994,2.9994,3.047,3.136,3.1381,3.1857,3.2727,3.2727,3.2727,3.2727,3.2727,3.2727,3.2727,3.2727,3.2727,3.2727,3.2727,3.2727,3.2727,3.2727,3.2727,3.2727,0.0,0.0,0.0,0.0,0.0,0.0,0.0,1.5291,1.6441,1.7591,1.7748,1.7826,1.8061,1.6545,1.5317,1.4889,1.3437,0.0,0.0,0.0,0.0,0.0,0.0,0.0,0.0,1.2881,1.3593,1.3488,1.3811,1.3885,1.3714,1.3521,1.3434,1.3448,1.3192,1.2773,0.0,0.0,0.0,0.0,0.0,0.0,0.0,0.0,0.0,0.0,0.0,0.0,0.0,0.0,0.0,0.0,0.0,0.0,0.0,1.5815,1.7471,1.923,2.0162,2.0741,2.1031,2.0886,2.0389,1.9624,1.8423,1.7098,1.5856,1.4966,1.4159,1.389,1.4821,1.5111,1.6022,1.8464,1.9479,2.0617,2.2459,2.3764,0.0,2.5357,2.6248,2.6889,2.7034,2.7986,2.8731,2.9021,2.9642,2.9994,2.9994,2.9994,2.9994,2.9994,2.9994,2.9994,2.9994,3.0305,3.0781,3.1381,3.1692,3.2147,3.2727,3.2727,3.2727,3.2727,3.2727,3.2727,3.2727,3.2727,3.2727,3.2727,3.2727,3.2727,3.2727,3.2727,3.2727,3.2727,0.0,0.0,0.0,0.0,0.0,0.0,0.0,1.4689,1.55,1.6441,1.6362,1.6441,1.7042,1.5552,1.4454,1.4297,1.3011,0.0,0.0,0.0,0.0,0.0,0.0,0.0,1.2224,1.365,1.4512,1.4806,1.5304,1.5355,1.4946,1.4858,1.4767,1.4582,1.3905,1.3488,0.0,0.0,0.0,0.0,0.0,0.0,1.1872,0.0,0.0,0.0,0.0,0.0,0.0,0.0,0.0,0.0,0.0,0.0,0.0,0.0,1.5856,1.7388,1.8651,1.9437,1.9851,1.9561,1.9147,1.8526,1.7471,1.6436,1.5463,1.4635,1.4159,1.4097,1.4863,1.5277,1.6125,1.8009,1.9127,2.0348,2.2004,2.3412,0.0,2.5378,2.6372,2.7076,2.7241,2.8069,2.869,2.8856,2.9559,2.9994,2.9994,2.9994,2.9994,2.9994,2.9994,2.9994,2.9994,3.0284,3.0739,3.1381,3.165,3.2126,3.2727,3.2727,3.2727,3.2727,3.2727,3.2727,0.0,3.2727,3.2727,3.2727,3.2727,3.2727,3.2727,3.2727,3.2727,3.2727,0.0,0.0,0.0,0.0,0.0,0.0,0.0,1.4559,1.4794,1.5343,1.4899,1.4742,1.5317,1.3853,1.3043,1.3566,0.0,0.0,0.0,0.0,0.0,0.0,0.0,0.0,1.363,1.4972,1.5959,1.6614,1.7266,1.7051,1.6079,1.6613,1.6286,1.5267,1.5124,1.4718,1.4045,0.0,0.0,0.0,1.2256,1.2159,0.0,0.0,0.0,0.0,0.0,0.0,0.0,0.0,0.0,0.0,0.0,0.0,0.0,0.0,0.0,0.0,0.0,1.8154,1.8816,1.8796,1.8464,1.7802,1.656,1.5918,0.0,1.3931,1.3972,1.4428,1.4987,1.5753,1.6498,1.708,1.8692,2.0307,2.1714,2.3163,0.0,2.5875,2.6372,2.6806,2.7262,2.811,2.8794,2.9228,2.9704,2.9994,2.9994,2.9994,2.9994,2.9994,2.9994,2.9994,2.9994,3.0056,3.0532,3.1381,3.1443,3.1919,3.2727,3.2727,3.2727,3.2727,3.2727,3.2727,3.2727,3.2727,3.2727,3.2727,3.2727,3.2727,3.2727,3.2727,3.2727,3.2727,0.0,0.0,0.0,0.0,0.0,0.0,0.0,0.0,0.0,0.0,1.4324,1.4036,1.4167,1.3017,1.2099,0.0,0.0,0.0,0.0,0.0,0.0,0.0,0.0,0.0,1.3938,1.4714,1.5552,1.6523,1.7517,1.7892,1.7673,1.8258,1.792,1.6835,1.5981,1.4809,1.3406,1.3138,0.0,0.0,1.2945,1.2763,0.0,0.0,0.0,0.0,1.1994,1.2086,0.0,0.0,0.0,0.0,0.0,0.0,0.0,0.0,1.4097,1.4573,1.4987,0.0,1.6394,1.6042,1.5877,1.5711,0.0,1.4966,1.4531,1.4221,1.3952,1.4242,1.5773,1.5649,1.6167,1.8713,1.9768,2.0866,2.2625,2.4633,0.0,2.7324,2.7241,2.7282,2.7717,2.8276,2.8669,2.8773,2.9539,2.9994,2.9994,2.9994,2.9994,2.9994,2.9994,2.9994,2.9994,3.0698,3.1153,3.1381,3.2085,3.252,3.2727,3.2727,3.2727,3.2727,3.2727,3.2727,3.2727,3.2727,3.2727,3.2727,3.2727,3.2727,3.2727,3.2727,3.2727,3.2727,0.0,0.0,0.0,0.0,0.0,0.0,0.0,0.0,0.0,0.0,0.0,1.3278,1.3017,1.218,0.0,0.0,0.0,0.0,0.0,0.0,0.0,0.0,0.0,1.3149,1.4462,1.4752,1.5668,1.73,1.8405,1.8932,1.8957,1.928,1.8834,1.7702,1.6089,1.4705,1.3584,1.3023,1.2973,1.3173,1.2922,0.0,0.0,0.0,0.0,0.0,1.215,1.2137,0.0,1.2962,1.3194,1.3361,0.0,0.0,0.0,0.0,1.3978,1.3993,1.3993,1.4987,1.5939,1.5691,1.5628,1.5587,1.5359,1.48,1.4242,1.4035,1.4138,1.4614,1.5835,1.6332,1.7181,1.9127,2.0348,2.1838,0.0,0.0,2.7365,2.7862,2.7717,2.7572,2.7614,2.8214,2.8607,2.8607,2.9477,2.9994,2.9994,2.9994,2.9994,2.9994,2.9994,2.9994,2.9994,3.0698,3.1174,3.1381,3.2085,3.252,3.2727,3.2727,3.2727,3.2727,3.2727,3.2727,3.2727,3.2727,3.2727,3.2727,3.2727,3.2727,3.2727,3.2727,3.2727,3.2727,0.0,0.0,0.0,0.0,0.0,0.0,0.0,0.0,0.0,0.0,0.0,0.0,0.0,0.0,0.0,0.0,0.0,0.0,0.0,0.0,0.0,0.0,1.2974,1.3983,1.4993,1.5043,1.6011,1.7953,1.9284,1.9886,1.9811,2.0162,1.956,1.8103,1.5944,1.4676,1.4022,1.2956,1.2772,1.3148,1.273,0.0,0.0,0.0,0.0,0.0,0.0,0.0,0.0,1.3254,1.3591,1.385,1.4698,0.0,0.0,0.0,0.0,0.0,1.3894,1.5258,1.6566,1.621,1.6273,1.6294,1.5696,1.4914,1.4221,1.389,1.4449,1.5235,1.6063,1.7388,1.8671,1.9561,2.1176,2.3163,2.5544,2.6993,2.7841,2.7924,2.7862,2.7696,2.7386,2.811,2.8607,2.8607,2.9477,2.9994,2.9994,2.9994,2.9994,2.9994,2.9994,2.9994,3.0099,3.0639,3.0988,3.1381,3.1899,3.2354,3.2727,3.2727,3.2727,3.2727,3.2727,3.2727,3.2841,3.2727,3.2727,3.2841,3.2727,3.2727,3.2841,3.2727,3.2727,3.2841,0.0,0.0,0.0,0.0,0.0,0.0,0.0,0.0,0.0,0.0,0.0,0.0,0.0,0.0,0.0,0.0,0.0,0.0,0.0,0.0,0.0,1.2698,1.3252,1.4053,1.4993,1.55,1.6077,1.6773,1.9309,2.0288,1.9836,2.1744,2.1041,1.8129,1.6346,1.5054,1.4047,1.3383,1.3123,1.3198,1.3098,0.0,0.0,0.0,0.0,0.0,0.0,0.0,0.0,1.3146,1.3493,1.3716,1.4261,0.0,0.0,0.0,0.0,0.0,1.5213,1.6707,1.74,1.5235,1.5676,1.6383,1.5358,1.4708,1.4407,1.4718,1.4904,1.5732,1.8112,1.8464,1.9292,2.2108,2.3764,2.4985,2.5771,2.6744,2.751,2.7883,2.7593,2.7489,2.78,2.8297,2.8607,2.8607,2.9477,2.9994,2.9994,2.9994,2.9994,2.9994,2.9994,3.0203,3.0681,3.1037,3.1298,3.1381,3.223,3.2664,3.2727,3.2727,3.2727,3.2727,3.2727,3.2955,3.3409,3.2955,3.2955,3.3409,3.2841,3.3069,3.3409,3.2841,3.3069,3.3523,0.0,0.0,0.0,0.0,0.0,0.0,0.0,0.0,0.0,0.0,0.0,0.0,0.0,0.0,0.0,0.0,0.0,0.0,0.0,0.0,1.2542,1.3749,1.4654,1.5363,1.5962,1.6616,1.7568,1.8902,2.08,2.1736,2.1762,2.1473,2.0062,1.7677,1.5994,1.5004,1.4475,1.3584,1.3198,1.3198,0.0,0.0,0.0,0.0,0.0,0.0,0.0,0.0,0.0,0.0,1.3688,1.3753,1.4766,0.0,0.0,0.0,0.0,0.0,1.5268,1.6815,1.7984,1.6921,1.797,1.9148,1.8725,1.7978,1.7444,1.769,1.7619,1.8186,2.0377,2.0471,2.1178,2.4126,2.5594,2.6689,2.7588,2.8136,2.8731,2.9379,2.8869,2.8455,2.8317,2.8976,2.9204,2.8607,2.9477,2.9994,2.9994,2.9994,2.9994,2.9994,3.0287,3.0599,3.0785,3.1529,3.1797,3.1797,3.2405,3.2841,3.3182,3.3182,3.3182,3.3182,3.3501,3.3614,3.3636,3.3296,3.3409,3.3523,3.3296,3.3409,3.3636,3.3614,3.3818,3.4043,0.0,0.0,0.0,0.0,0.0,0.0,0.0,0.0,0.0,0.0,0.0,0.0,0.0,0.0,0.0,0.0,0.0,0.0,0.0,1.1603,1.2698,1.4324,1.5683,1.6699,1.7265,1.8029,1.9269,2.0985,2.226,2.289,2.2992,2.0974,1.8982,1.7124,1.5734,1.4953,1.4651,1.3634,1.3232,1.3267,0.0,0.0,0.0,0.0,0.0,0.0,0.0,0.0,0.0,0.0,0.0,0.0,0.0,0.0,0.0,1.5806,1.5668,1.5379,1.5564,1.6979,1.8408,1.8858,2.0009,2.1181,2.1844,2.0925,2.0159,2.0711,2.0618,2.0982,2.2541,2.3032,2.3874,2.5766,2.7059,2.812,2.9007,2.9373,2.9836,3.0536,3.0001,2.9399,2.9117,2.998,3.0068,2.9006,2.9866,3.0287,2.9994,3.0099,3.0203,3.0203,3.0703,3.1094,3.1197,3.204,3.2426,3.2426,3.2721,3.3182,3.384,3.384,3.384,3.384,3.4267,3.4267,3.3952,3.3749,3.3727,3.3952,3.3727,3.3727,3.384,3.4491,3.4692,3.4692,0.0,0.0,0.0,0.0,0.0,0.0,0.0,0.0,0.0,0.0,0.0,0.0,0.0,0.0,0.0,0.0,0.0,0.0,0.0,1.1395,1.2542,1.3801,1.5474,1.7105,1.861,1.9723,2.0578,2.1144,2.2814,2.2981,2.1792,2.1024,1.9158,1.6547,1.5919,1.5104,1.4097,1.3483,1.3267,1.3378,1.3378,0.0,0.0,0.0,0.0,0.0,0.0,0.0,0.0,0.0,0.0,0.0,0.0,0.0,1.5463,1.6218,1.5932,1.5674,1.6905,1.7844,1.8758,1.9737,1.997,2.0435,2.2392,2.1308,2.0521,2.2698,2.3124,2.3485,2.4699,2.6211,2.7281,2.7044,2.8208,2.9095,2.8769,2.9573,3.0125,3.0216,3.0216,3.0125,3.0079,3.1159,3.1376,3.009,3.114,3.1278,3.0099,3.0495,3.0785,3.0785,3.13,3.1812,3.2319,3.2779,3.3071,3.3071,3.339,3.384,3.4491,3.4491,3.4491,3.4491,3.4469,3.4825,3.5157,3.4065,3.4289,3.5157,3.4065,3.3952,3.4491,3.5157,3.5378,3.5378,0.0,0.0,0.0,0.0,0.0,0.0,0.0,0.0,0.0,0.0,0.0,0.0,0.0,0.0,0.0,0.0,0.0,0.0,0.0,1.1577,1.2855,1.4768,1.584,1.7356,1.9399,2.0912,2.2083,2.2881,2.3412,2.3039,2.1665,2.037,1.8803,1.7062,1.622,1.545,1.4726,1.4094,1.3674,1.3446,1.3412,1.3412,0.0,0.0,0.0,0.0,0.0,0.0,0.0,0.0,1.3599,1.4002,1.4739,1.5171,1.5565,1.6288,1.6479,1.6461,1.6841,1.8248,1.9737,2.0093,2.0898,2.2063,2.3988,2.4317,2.4616,2.6169,2.6254,2.6022,2.6107,2.7419,2.8369,2.8179,2.9154,3.0145,3.0728,3.1124,3.1601,3.2302,3.1865,3.1512,3.1512,3.2448,3.2488,3.0919,3.2286,3.2555,3.1116,3.171,3.1812,3.13,3.1812,3.2218,3.242,3.322,3.3816,3.4155,3.4142,3.4491,3.5046,3.5046,3.5046,3.5046,3.5488,3.5488,3.5378,3.4936,3.4936,3.5378,3.4936,3.5046,3.5598,3.5927,3.5927,3.5927,0.0,0.0,0.0,0.0,0.0,0.0,0.0,0.0,0.0,0.0,0.0,0.0,0.0,0.0,0.0,0.0,0.0,0.0,1.1187,1.1856,1.3084,1.49,1.6102,1.7651,1.9554,2.1374,2.2771,2.3696,2.3702,2.2814,2.0985,1.9838,1.8541,1.727,1.6328,1.5732,1.5428,1.4622,1.4085,1.3805,1.3557,1.348,0.0,0.0,0.0,0.0,0.0,0.0,0.0,0.0,1.329,1.3589,1.4687,1.5247,1.5607,1.6201,1.6948,1.7575,1.7357,1.8554,2.0064,2.0887,2.1754,2.3058,2.5472,2.6253,2.7011,2.8809,2.8747,2.8325,2.8057,2.868,2.9184,2.9263,3.0258,3.1223,3.2005,3.234,3.2846,3.3641,3.3104,3.2735,3.2735,3.382,3.3784,3.2112,3.3624,3.3923,3.2398,3.2801,3.2801,3.2218,3.2521,3.2622,3.2622,3.3925,3.4657,3.4808,3.5233,3.5576,3.5708,3.5708,3.5708,3.5708,3.6145,3.6059,3.5708,3.5488,3.5378,3.5378,3.5598,3.5927,3.6277,3.6277,3.6277,3.6277,0.0,0.0,0.0,0.0,0.0,0.0,0.0,0.0,1.3679,1.2914,1.3944,0.0,0.0,0.0,0.0,0.0,0.0,0.0,1.1151,1.2197,1.3151,1.3768,1.6179,1.8019,1.9169,2.105,2.2431,2.321,2.3638,2.2389,1.9616,1.9471,1.8477,1.6905,1.6273,1.6057,1.6006,1.4875,1.4449,1.4443,1.3848,1.3615,1.3615,0.0,0.0,0.0,0.0,0.0,0.0,0.0,1.2729,1.3168,1.4696,1.5349,1.5566,1.5903,1.7351,1.8852,1.8621,1.8719,1.949,2.2231,2.2485,2.3,2.657,2.6642,2.685,3.0028,3.0394,3.0241,3.0622,3.0394,3.0139,3.0368,3.1342,3.2085,3.2085,3.3034,3.3725,3.3725,3.3725,3.3725,3.3725,3.5011,3.5302,3.3875,3.5164,3.5281,3.3997,3.3773,3.3598,3.3598,3.3446,3.3292,3.3292,3.5152,3.5568,3.4808,3.6626,3.7096,3.6277,3.6277,3.6277,3.6277,3.6277,3.6277,3.6277,3.5708,3.5378,3.5488,3.6059,3.6277,3.6277,3.6277,3.6277,3.6277,0.0,0.0,0.0,0.0,0.0,0.0,0.0,0.0,1.3135,1.2901,1.358,0.0,0.0,0.0,0.0,0.0,0.0,0.0,1.1151,1.178,1.2675,1.3768,1.4854,1.6278,1.7991,1.9349,2.088,2.2662,2.1901,2.068,1.9071,1.8952,1.8209,1.6973,1.7222,1.6954,1.6257,1.5389,1.4857,1.4523,1.3882,1.3648,1.3689,0.0,0.0,0.0,0.0,0.0,0.0,0.0,0.0,0.0,1.3848,1.5023,1.6036,1.5569,1.6824,1.8122,1.7161,1.9331,2.1875,2.1794,2.4098,2.6608,2.7686,2.8032,2.8608,3.0485,3.0596,3.0368,3.0622,3.0622,3.0546,3.0622,3.1577,3.238,3.246,3.3364,3.4063,3.4147,3.423,3.423,3.423,3.5271,3.5657,3.4675,3.6259,3.6615,3.5138,3.5547,3.5547,3.4969,3.4993,3.4896,3.4896,3.6232,3.6464,3.5592,3.692,3.7096,3.6277,3.6277,3.6277,3.6277,3.6277,3.6277,3.6277,3.6168,3.6036,3.6036,3.6277,3.6277,3.6277,3.6277,3.6277,3.6323,0.0,0.0,0.0,0.0,0.0,0.0,1.2033,1.2568,1.2826,1.2584,1.3058,1.3184,0.0,0.0,0.0,1.1652,1.1924,1.1936,1.1399,1.2182,1.2991,1.3768,1.483,1.6141,1.7653,1.8341,1.9294,2.0353,2.0353,1.9648,1.8403,1.9061,1.8812,1.7774,1.8613,1.835,1.7329,1.6415,1.5744,1.5238,1.4332,1.4054,1.4036,0.0,0.0,0.0,0.0,0.0,0.0,0.0,0.0,0.0,1.3448,1.4602,1.5735,1.5918,1.7479,1.9107,1.8988,2.1407,2.4021,2.4372,2.6219,2.8144,2.908,2.9548,2.9991,3.0843,3.0748,3.0596,3.0773,3.0773,3.0698,3.0849,3.1811,3.254,3.2698,3.361,3.423,3.4397,3.4397,3.4397,3.4397,3.5443,3.5921,3.548,3.6949,3.7505,3.6546,3.6615,3.6521,3.6048,3.5763,3.5571,3.5571,3.6924,3.7269,3.6488,3.7861,3.8056,3.7311,3.658,3.6277,3.6277,3.6277,3.6277,3.6277,3.6277,3.6277,3.6277,3.6277,3.6277,3.6386,3.6688,3.658,3.6432,0.0,0.0,0.0,0.0,0.0,0.0,1.2096,1.2551,1.2712,1.2103,1.2485,1.2592,0.0,0.0,0.0,1.179,1.179,1.179,1.179,1.2957,1.3675,1.3769,1.5651,1.7072,1.7869,1.7863,1.7655,1.7264,1.9044,1.914,1.768,1.952,1.9879,1.8937,1.9997,1.9871,1.8771,1.7571,1.6802,1.6323,1.5112,1.4577,1.4524,1.392,0.0,0.0,0.0,0.0,0.0,0.0,0.0,0.0,1.3278,1.4062,1.4899,1.6493,1.8689,2.0961,2.2426,2.3942,2.5746,2.8386,2.8438,2.8386,3.0503,3.0973,3.0973,3.0973,3.0849,3.0773,3.0999,3.0849,3.0773,3.0999,3.194,3.2698,3.2698,3.3666,3.4397,3.4397,3.4397,3.4397,3.4397,3.5443,3.6096,3.6096,3.722,3.79,3.79,3.7201,3.6803,3.6803,3.6143,3.5763,3.5763,3.7632,3.8063,3.7294,3.9221,3.9647,3.8792,3.712,3.6363,3.6363,3.6472,3.6472,3.6363,3.6472,3.6495,3.6277,3.6495,3.6495,3.6472,3.7311,3.7203,3.682,0.0,0.0,0.0,0.0,0.0,0.0,1.2096,1.2198,1.2259,1.2106,1.2134,1.2143,1.197,1.1949,0.0,1.179,1.179,1.179,1.179,1.2059,1.2688,1.3765,1.5651,1.6784,1.6956,1.6986,1.6924,1.6828,1.8068,1.8108,1.7033,1.928,1.9789,1.8854,1.9887,1.9683,1.8491,1.7218,1.6661,1.6443,1.5253,1.4625,1.4327,1.3209,1.2281,0.0,0.0,0.0,0.0,0.0,0.0,0.0,1.2151,1.3409,1.4663,1.5055,1.7434,1.9969,1.9865,2.3001,2.6452,2.7079,2.8752,3.0372,3.0869,3.0973,3.0973,3.0973,3.0999,3.0924,3.0973,3.0999,3.0924,3.0973,3.194,3.2698,3.2698,3.3666,3.4397,3.4397,3.4397,3.4397,3.4397,3.5443,3.6096,3.6096,3.722,3.79,3.79,3.7716,3.7598,3.7598,3.7505,3.7413,3.7413,3.8739,3.8897,3.8088,3.9424,3.9647,3.8792,3.7737,3.7203,3.7311,3.795,3.7844,3.7311,3.795,3.7524,3.6386,3.7737,3.7844,3.7311,3.8161,3.8372,3.8388,0.0,0.0,0.0,0.0,0.0,0.0,0.0,0.0,1.2464,1.2179,1.2075,1.2033,1.2033,1.1991,0.0,0.0,1.1863,1.1811,1.179,1.2133,1.2914,1.4214,1.5261,1.5771,1.5771,1.6099,1.6129,1.5771,1.7277,1.7819,1.7451,1.9891,2.0655,2.0029,2.1037,2.0514,1.8826,1.7782,1.7242,1.6908,1.5674,1.5273,1.5291,1.373,1.2842,1.232,1.0974,0.0,0.0,0.0,0.0,0.0,0.0,0.0,1.401,1.5134,1.712,1.9264,2.0623,2.355,2.6608,2.7994,2.9666,3.0973,3.0973,3.0973,3.0973,3.0973,3.0973,3.0973,3.0973,3.0973,3.1078,3.1339,3.2123,3.2803,3.3091,3.3849,3.4397,3.4397,3.4397,3.4397,3.4397,3.5443,3.6096,3.6096,3.722,3.79,3.79,3.79,3.79,3.79,3.79,3.79,3.79,3.9024,3.9407,3.8923,4.0153,4.0262,3.944,3.8477,3.8161,3.8161,3.8582,3.8582,3.8161,3.8582,3.8267,3.7524,3.8477,3.8477,3.8267,3.9104,3.9104,3.9019,0.0,0.0,0.0,0.0,0.0,0.0,0.0,0.0,0.0,1.2251,1.2169,1.2096,1.2096,1.2033,1.197,0.0,0.0,0.0,1.1811,1.2509,1.3383,1.442,1.4599,1.4659,1.4633,1.5169,1.5319,1.4962,1.6578,1.7789,1.8622,2.0796,2.16,2.1295,2.2191,2.1312,1.9126,1.8281,1.7667,1.7114,1.5806,1.5608,1.5863,1.4193,1.3516,1.3178,1.141,1.1198,1.1635,1.0735,0.0,0.0,0.0,0.0,1.3017,1.516,1.6754,1.8427,2.1381,2.3968,2.6504,2.9405,3.0555,3.0973,3.0973,3.0973,3.0973,3.0973,3.0973,3.0973,3.0973,3.0973,3.1182,3.1757,3.2333,3.2908,3.3509,3.4058,3.4397,3.4397,3.4397,3.4397,3.4397,3.5338,3.5992,3.6096,3.7116,3.7795,3.79,3.79,3.79,3.79,3.79,3.7952,3.8031,3.9076,3.9651,3.9756,4.0801,4.0896,4.0287,3.9544,3.9104,3.9,3.9208,3.9104,3.9,3.9208,3.9104,3.8792,3.9104,3.9104,3.9104,3.9955,3.9903,3.964,0.0,0.0,0.0,0.0,0.0,0.0,0.0,0.0,0.0,0.0,1.219,1.2169,1.2127,1.2033,1.197,1.1927,1.1906,1.1906,1.1906,0.0,0.0,1.3071,1.3665,1.3995,1.3944,1.4034,1.4573,1.5679,1.5948,1.7535,2.0393,2.1317,2.1503,2.1175,2.1621,2.0712,1.8708,1.7436,1.6545,1.5921,1.4587,1.395,1.3762,1.2921,1.2138,1.146,1.116,1.1493,1.1939,1.1224,1.1272,0.0,0.0,0.0,1.1686,1.2996,1.4899,1.6833,1.7748,2.1825,2.6504,2.9405,3.0555,3.0973,3.0973,3.0973,3.0973,3.0973,3.0973,3.0973,3.0973,3.0973,3.1182,3.1757,3.2333,3.2908,3.3509,3.4058,3.4397,3.4397,3.4397,3.4397,3.4397,3.4999,3.56,3.607,3.6724,3.7351,3.7874,3.79,3.79,3.79,3.79,3.8135,3.8606,3.9259,3.9834,4.0305,4.0984,4.1224,4.1123,4.0997,4.0593,3.9955,4.0694,4.0593,3.9955,4.0694,4.016,3.8896,4.0364,4.0593,4.0058,4.0795,4.1409,4.1827,0.0,0.0,0.0,0.0,0.0,0.0,0.0,0.0,0.0,0.0,0.0,1.219,1.2169,1.2075,1.2033,1.2012,1.2012,1.1991,1.197,1.2264,1.2554,1.2801,1.3148,1.3455,1.3795,1.3825,1.4094,1.4663,1.5079,1.6727,1.96,2.0258,2.1257,2.2473,2.1555,2.0438,1.9121,1.7056,1.6039,1.5679,1.4333,1.482,1.6128,1.3583,1.3532,1.4482,1.2125,1.1703,1.2215,1.1787,1.1774,1.1952,1.2262,0.0,0.0,0.0,1.3613,1.5108,1.827,2.2165,2.6033,2.8935,3.0085,3.0581,3.0921,3.0973,3.0973,3.0973,3.0973,3.0973,3.0973,3.0973,3.1287,3.2176,3.2542,3.3012,3.3927,3.4241,3.4397,3.4397,3.4397,3.4397,3.4397,3.5208,3.5835,3.6096,3.6985,3.7612,3.79,3.79,3.79,3.79,3.79,3.8161,3.871,3.9311,4.0043,4.0932,4.1193,4.1324,4.1324,4.1324,4.1097,4.0795,4.1123,4.1123,4.0795,4.1097,4.0896,4.0262,4.0997,4.1097,4.0795,4.1224,4.1664,4.2239,0.0,0.0,0.0,0.0,0.0,0.0,0.0,0.0,0.0,0.0,0.0,1.221,1.221,0.0,0.0,0.0,1.2096,1.2014,1.179,1.1607,1.1688,1.2073,1.2117,1.2388,1.2777,1.2957,1.3226,1.3555,1.442,1.6158,1.8702,1.939,2.0917,2.3041,2.1605,2.0498,1.951,1.6908,1.5799,1.5709,1.4692,1.577,1.7715,1.5439,1.6069,1.7712,1.3885,1.2927,1.3396,1.2549,1.2363,1.2487,1.2694,1.2592,0.0,0.0,0.0,1.3682,1.8534,2.1586,2.4284,2.7538,2.8969,2.9836,3.0581,3.0869,3.0973,3.0973,3.0973,3.0973,3.0973,3.0973,3.1365,3.2489,3.2698,3.3091,3.4241,3.4397,3.4397,3.4397,3.4397,3.4397,3.4397,3.5312,3.594,3.6096,3.709,3.7743,3.79,3.79,3.79,3.79,3.79,3.824,3.8919,3.9677,4.0461,4.1324,4.1324,4.1324,4.1324,4.1324,4.1324,4.1324,4.1324,4.1324,4.1324,4.1324,4.1324,4.1324,4.1324,4.1324,4.1324,4.1324,4.1768,4.2448,0.0,0.0,0.0,0.0,0.0,0.0,0.0,0.0,0.0,0.0,0.0,1.221,1.221,1.2148,1.2096,1.2096,1.2096,1.1851,1.1208,1.0553,1.0167,1.0139,1.017,0.0,1.0109,1.0711,1.1623,1.2861,1.4231,1.6188,1.8702,1.939,2.0438,2.1784,2.1695,2.0917,1.951,1.6908,1.5799,1.5799,1.5739,1.5799,1.6218,1.8497,1.942,1.9241,1.6518,1.595,1.6099,1.359,1.3026,1.3234,1.2599,1.2277,1.1992,0.0,0.0,0.0,1.639,1.8343,2.0398,2.4654,2.6996,2.8612,2.9869,3.0607,3.0973,3.0973,3.0973,3.0973,3.0973,3.0973,3.1365,3.2489,3.2698,3.3091,3.4241,3.4397,3.4397,3.4397,3.4397,3.4397,3.4397,3.4972,3.5547,3.607,3.6698,3.7299,3.7874,3.79,3.79,3.79,3.79,3.8423,3.9547,4.0671,4.1246,4.1324,4.1324,4.1324,4.1324,4.1324,4.1324,4.1324,4.1324,4.1324,4.1324,4.1324,4.1324,4.1324,4.1324,4.1324,4.1324,4.1324,4.203,4.2971,0.0,0.0,0.0,0.0,0.0,0.0,0.0,0.0,0.0,0.0,0.0,0.0,0.0,1.2436,1.2322,1.2783,1.1984,1.1166,1.0504,1.0233,1.0075,0.9988,1.0005,1.017,1.0531,1.0387,1.0961,1.2201,1.2306,1.3875,1.6847,1.7505,1.8732,2.0378,1.9959,1.975,1.948,1.6458,1.5409,1.5829,1.6219,1.7416,1.9001,1.951,2.0737,2.1844,1.9211,0.0,1.6637,1.6129,1.5205,1.4172,1.3519,1.3136,1.2675,1.1452,1.1901,1.3261,1.5446,1.7263,1.932,2.2736,2.5679,2.7884,2.8665,3.0388,3.1616,3.1123,3.0973,3.0973,3.0973,3.0973,3.1365,3.2489,3.2698,3.3091,3.4241,3.4397,3.4397,3.4397,3.4397,3.4397,3.4397,3.4946,3.5521,3.607,3.6671,3.7273,3.7874,3.79,3.79,3.79,3.79,3.8449,3.9599,4.0749,4.1324,4.1324,4.1324,4.1324,4.1324,4.1324,4.1324,4.1324,4.1324,4.1324,4.1324,4.1324,4.1324,4.1324,4.1324,4.1324,4.135,4.1716,4.2343,4.3075,0.0,0.0,0.0,0.0,0.0,0.0,0.0,0.0,1.2867,1.2867,0.0,0.0,0.0,0.0,1.2734,1.3144,1.1912,1.0817,1.0154,0.968,0.9387,0.9369,0.9369,0.9566,0.9952,0.9775,1.0212,1.1232,1.1463,1.2787,1.5169,1.6009,1.7206,1.8672,1.7807,1.8407,1.9839,1.6757,1.5949,1.6878,1.7954,1.9176,2.0498,2.1575,2.2682,2.337,2.1714,0.0,1.8792,1.9276,1.859,1.724,1.562,1.4083,1.2639,1.163,1.2192,1.335,1.4282,1.575,1.7777,2.0796,2.3348,2.5744,2.8083,2.9968,3.1194,3.1383,3.1542,3.169,3.1394,3.1394,3.1642,3.2568,3.2909,3.3384,3.4241,3.4397,3.4397,3.4397,3.4397,3.4397,3.4397,3.4946,3.5521,3.607,3.6671,3.7273,3.7874,3.79,3.79,3.79,3.8266,3.8841,3.9599,4.0749,4.1324,4.1324,4.1324,4.1324,4.1324,4.1324,4.1324,4.1324,4.1324,4.1324,4.1324,4.1324,4.1324,4.1324,4.1324,4.1324,4.1376,4.1951,4.2526,4.3101,0.0,0.0,0.0,0.0,0.0,0.0,0.0,0.0,1.2303,1.2334,0.0,0.0,0.0,0.0,0.0,1.3236,1.1943,1.0817,1.0158,0.8865,0.8109,0.8109,0.8112,0.8099,0.8099,0.8728,0.9352,0.9869,1.1846,1.3118,1.3795,1.5137,1.6068,1.6607,1.5407,1.6999,2.0408,1.7742,1.7413,1.8852,2.0827,2.0887,2.0325,2.4866,2.5435,2.3863,2.4053,2.3558,2.2873,2.3009,2.2959,2.2233,1.8706,1.4962,1.182,1.182,1.2269,1.2831,0.0,0.0,0.0,1.8769,2.01,2.2119,2.7844,2.9149,2.9739,3.1619,3.2609,3.2919,3.229,3.2146,3.226,3.2698,3.3274,3.3936,3.438,3.4481,3.4481,3.4481,3.4481,3.4481,3.4481,3.492,3.5495,3.607,3.6645,3.7246,3.7874,3.79,3.79,3.79,3.9024,3.9599,3.9599,4.0749,4.1324,4.1324,4.1324,4.1324,4.1324,4.1324,4.1324,4.1324,4.1324,4.1324,4.1324,4.1324,4.1324,4.1324,4.1324,4.1324,4.1402,4.1977,4.2552,4.3127,0.0,0.0,0.0,0.0,0.0,1.3082,1.3575,1.4067,1.456,0.0,0.0,0.0,1.5298,1.496,1.4467,1.3975,1.2682,1.1389,1.0189,0.9296,0.8603,0.8109,0.8096,0.8096,0.8096,0.828,0.8666,0.9229,1.0309,1.1364,1.2523,1.3835,1.4773,1.5377,1.5016,1.5679,1.7059,1.5321,1.589,1.8041,1.9121,2.0843,2.3088,2.6253,2.8082,2.9031,2.9568,2.8414,2.6576,2.6623,2.4346,2.0744,1.6848,1.4184,1.2441,1.1939,1.2628,1.3406,1.2951,0.0,0.0,0.0,0.0,0.0,2.3217,2.5185,2.7202,2.9572,3.0248,3.0908,3.2598,3.3353,3.3677,3.367,3.3288,3.3619,3.526,3.5384,3.5359,3.5359,3.5359,3.5359,3.5359,3.4944,3.5305,3.6882,3.6603,3.6802,3.7848,3.79,3.79,3.79,3.9024,3.9599,3.9599,4.0749,4.1324,4.1324,4.1324,4.1324,4.1324,4.1324,4.1324,4.1324,4.1324,4.1324,4.1324,4.1324,4.1324,4.1324,4.1324,4.1559,4.2004,4.2579,4.3154,4.3729,0.0,0.0,1.2642,1.2642,1.339,1.4067,1.419,1.4775,1.536,0.0,0.0,0.0,1.6133,1.6622,1.6407,1.5145,1.3821,1.2559,1.1482,1.0219,0.9204,0.8541,0.8788,0.8804,0.8541,0.851,0.8819,0.9477,0.9552,1.0266,1.1596,1.2364,1.3068,1.3679,1.3377,1.3745,1.4502,1.3154,1.4599,1.7927,2.0002,2.1873,2.3837,2.7347,2.897,2.9642,3.1736,3.0738,2.8596,2.9824,2.664,2.168,1.9088,1.6337,1.388,1.2897,1.3765,1.4785,1.3885,1.4872,1.6308,1.6847,0.0,0.0,2.3288,2.482,2.6504,2.9903,3.1025,3.1846,3.3072,3.3869,3.4361,3.4629,3.414,3.4235,3.5655,3.6036,3.6188,3.6188,3.6188,3.6188,3.6188,3.5413,3.576,3.7868,3.6791,3.6645,3.7848,3.8213,3.833,3.79,3.9024,3.9599,3.9599,4.0749,4.1324,4.1324,4.1324,4.1324,4.1324,4.1324,4.1324,4.1324,4.1324,4.1324,4.1324,4.1324,4.1324,4.1324,4.1324,4.1664,4.2239,4.2814,4.3389,4.3964,0.0,0.0,1.3236,1.339,1.4467,1.5145,1.4621,1.5114,1.5549,0.0,1.5729,1.6037,1.6686,1.8253,1.8562,1.6714,1.5237,1.4067,1.3281,1.1428,1.0055,0.9313,0.9855,0.9855,0.9173,0.9127,0.9374,0.9895,0.931,0.9627,1.0796,1.1005,1.1352,1.1769,1.1291,1.1698,1.2644,1.1746,1.392,1.8331,2.1909,2.3345,2.3834,2.8482,2.9373,2.8583,3.2447,3.2039,3.009,3.2308,2.9287,2.442,2.3336,2.0031,1.6278,1.4513,1.547,1.6787,1.5381,1.589,1.7115,1.8313,1.7742,0.0,2.5016,2.5674,2.6139,3.0425,3.2372,3.3151,3.282,3.3245,3.3944,3.4584,3.4824,3.5176,3.5967,3.6626,3.7049,3.7049,3.7049,3.7049,3.7049,3.6267,3.6711,3.8746,3.747,3.7016,3.8004,3.8881,3.8881,3.79,3.9092,3.9695,3.9599,4.0848,4.1398,4.1324,4.1398,4.1398,4.1324,4.1324,4.1324,4.1324,4.1324,4.1324,4.1324,4.1324,4.1324,4.1324,4.1324,4.1716,4.2317,4.284,4.3415,4.4042,1.2056,1.2744,1.3544,1.4621,1.5457,1.6133,1.6532,1.7178,1.7823,1.8439,1.8963,1.958,2.0224,1.9703,1.9148,1.8747,1.693,1.516,1.3534,1.2549,1.154,1.0445,1.0509,1.0235,0.9529,0.9381,0.9119,0.8635,0.8941,0.9219,0.9479,1.0596,1.0853,1.0486,1.0845,1.118,1.1566,1.3418,1.6246,1.9562,2.0222,2.2754,2.6596,3.0797,3.3255,3.4663,3.6625,3.6603,3.5294,3.313,3.0867,2.8183,2.357,2.1918,2.0825,1.6638,1.727,1.8869,1.6877,1.6906,1.7563,1.7802,1.8104,0.0,1.945,2.0258,2.1535,2.4104,2.5193,2.6314,2.836,2.9258,2.9759,2.9953,3.2109,3.4558,3.6773,3.7594,3.7947,3.7947,3.7947,3.7947,3.7947,3.7155,3.7557,3.9629,3.9759,3.9491,3.8944,3.9826,3.959,3.7992,3.9694,4.0401,3.9599,4.1576,4.2039,4.1324,4.2137,4.2039,4.1324,4.1324,4.1324,4.1324,4.1324,4.1324,4.1324,4.1324,4.1324,4.1324,4.1324,4.1951,4.2866,4.2971,4.3676,4.4565,1.2682,1.379,1.4929,1.558,1.6838,1.779,1.7938,1.8531,1.9311,2.0226,2.1526,2.1932,2.0686,2.1043,2.0955,1.9878,1.8053,1.6423,1.5185,1.3691,1.2269,1.0969,1.1254,1.111,1.0349,0.9938,0.9562,0.9188,0.886,0.8847,0.9127,1.0312,1.1246,1.1927,1.153,1.214,1.3461,1.3636,1.5442,1.8482,2.1587,2.5512,2.9817,3.3255,3.5477,3.6907,3.8253,3.8101,3.6972,3.4471,3.2106,2.9706,2.6923,2.5161,2.3336,0.0,1.9844,2.0865,1.8443,1.8227,1.8792,1.9121,0.0,0.0,0.0,2.0677,2.1455,2.4088,2.4627,2.5196,2.72,2.759,2.7829,2.8487,3.1091,3.3245,3.3873,3.6467,3.8413,3.8767,3.8797,3.8797,3.8797,3.8023,3.8053,3.931,4.0977,4.1365,4.0,4.0774,4.083,3.9761,4.1023,4.1718,4.1462,4.2901,4.3273,4.2819,4.3273,4.3273,4.2819,4.2819,4.2528,4.2065,4.2625,4.2262,4.1424,4.2333,4.2528,4.1967,4.1498,4.203,4.3023,4.3023,4.3755,4.483,1.3382,1.4764,1.6181,1.6428,1.8098,1.9342,1.921,1.9654,2.0416,2.1632,2.3353,2.3638,2.1373,2.2891,2.3353,2.1564,1.9987,1.8583,1.7384,1.54,1.3766,1.2661,1.2475,1.2349,1.2179,1.1071,1.0312,1.0012,0.9024,0.8694,0.8987,1.0096,1.151,1.3134,1.2732,1.3678,0.0,0.0,0.0,1.8879,2.4319,2.8082,3.0826,3.4432,3.6224,3.6987,3.8725,3.8685,3.7621,3.6157,3.3756,3.1246,3.0434,2.8576,2.6046,2.2635,0.0,0.0,0.0,0.0,0.0,0.0,0.0,2.0092,0.0,0.0,0.0,2.4567,2.4747,2.4777,2.5854,2.5615,2.5674,2.6871,2.9175,3.0522,2.9684,3.3574,3.6896,3.7973,3.8751,3.914,3.8871,3.8266,3.8243,3.923,4.1175,4.1901,4.0916,4.1728,4.2016,4.159,4.2326,4.2918,4.342,4.416,4.4499,4.4312,4.4499,4.4499,4.4312,4.4312,4.3843,4.3177,4.3937,4.3368,4.1967,4.3654,4.3843,4.2985,4.21,4.2488,4.3618,4.3544,4.423,4.5449,1.3497,1.4578,1.613,1.7314,1.8772,2.0035,2.0891,2.0831,2.1275,2.2959,2.3935,2.4843,2.5707,2.6222,2.6143,2.5363,2.4577,2.2826,1.9651,1.8593,1.8076,1.8017,1.4939,1.4133,1.6,1.3322,1.1137,0.9654,0.9521,0.9097,0.8424,0.9918,1.064,1.084,1.4202,1.5352,0.0,0.0,2.1151,2.5446,2.7433,2.6825,2.5537,3.2169,3.4756,3.5284,3.8738,3.9919,3.9581,3.8233,3.679,3.4956,3.1292,3.1197,3.1313,2.5377,0.0,0.0,0.0,0.0,2.3254,2.2122,2.2152,2.197,1.9899,0.0,2.0633,1.9779,0.0,2.0408,2.0557,0.0,0.0,2.1485,2.331,2.4986,2.6004,2.8218,3.0612,3.3006,3.6387,3.8063,3.6926,3.6738,3.7953,4.0918,3.9785,3.9772,4.1749,4.2659,4.2679,4.1677,4.2911,4.3541,4.342,4.4891,4.5144,4.4312,4.5235,4.5144,4.4312,4.4312,4.4219,4.4125,4.4219,4.4219,4.3937,4.4219,4.4219,4.4087,4.3585,4.4409,4.5706,4.5384,4.6189,4.7661,1.349,1.5562,1.7286,1.7092,1.8896,2.0512,2.0874,2.2468,2.3391,2.2832,2.4906,2.63,2.6054,2.6495,2.6852,2.7091,2.5983,2.4076,2.1317,1.991,1.8801,1.7937,1.5624,1.4775,1.569,1.3196,1.1319,1.0169,0.9454,0.884,0.8454,1.0114,1.1976,1.4015,1.6586,0.0,2.0821,0.0,2.2325,2.3979,2.6314,2.6015,2.5211,3.3854,3.7381,3.7956,3.9512,4.0087,4.002,3.9429,3.7902,3.6024,3.5085,3.3822,3.2123,2.9092,2.8449,0.0,2.5391,2.4902,2.4689,2.297,2.3047,2.2863,2.0618,2.0171,2.0158,2.008,0.0,0.0,0.0,0.0,0.0,0.0,2.1534,2.2495,2.2244,2.4942,2.803,3.1001,3.2796,3.4382,3.5789,3.6267,3.7853,4.1145,3.9529,3.9682,4.2562,4.309,4.3456,4.3712,4.4343,4.4991,4.5668,4.6315,4.6462,4.6077,4.6462,4.6462,4.6077,4.6077,4.5718,4.5235,4.5808,4.5355,4.4406,4.5537,4.5949,4.5774,4.5902,4.6011,4.6126,4.6345,4.7058,4.8066,1.3737,1.6006,1.7828,1.7241,1.9164,2.0891,2.1246,2.3234,2.4339,2.3358,2.5547,2.7091,2.685,2.7526,2.8456,2.9445,2.8455,2.6758,2.4282,2.2286,2.0939,2.0217,1.7358,1.6155,1.6994,1.4021,1.1876,1.0684,0.9806,0.9189,0.8886,1.0628,1.2908,1.5662,1.8356,2.1311,2.428,0.0,2.4578,2.5246,2.7391,2.8474,2.9468,3.569,3.8903,4.0087,4.0087,4.0087,4.0054,3.9851,3.8405,3.6771,3.7435,3.5752,3.338,3.2364,3.1304,2.9886,2.7534,2.7092,2.6722,2.402,2.3668,2.3397,2.1247,2.0576,2.054,2.0946,2.0485,0.0,0.0,0.0,1.9031,1.9748,0.0,2.0677,1.9713,2.1873,0.0,0.0,2.9026,3.0941,3.4113,3.4203,3.5848,4.0247,3.8392,3.8871,4.312,4.3329,4.3928,4.5244,4.5304,4.5933,4.7309,4.7309,4.7309,4.7309,4.7309,4.7309,4.7309,4.7309,4.6931,4.6255,4.7019,4.6462,4.5235,4.6726,4.7229,4.731,4.7834,4.7688,4.7252,4.7685,4.8198,4.8993,1.433,1.5425,1.6907,1.8294,1.9744,2.1172,2.259,2.2564,2.3144,2.5238,2.5576,2.6759,2.9631,3.0806,3.191,3.3413,3.3716,3.2486,2.9386,2.7019,2.6304,2.7673,2.1291,1.9104,2.2099,1.7071,1.3244,1.091,1.0972,1.0588,0.9786,1.1477,1.2573,1.3361,1.8713,2.1446,2.2252,2.6051,2.9732,3.3051,3.3152,3.5757,3.9309,3.6705,3.755,4.0087,4.0087,4.0087,3.9986,3.9276,3.864,3.7934,3.6572,3.6598,3.6745,3.4738,3.5013,3.5331,3.2028,3.1117,3.0038,2.5443,2.4287,2.3579,2.0757,2.1155,2.1919,2.1166,2.1979,2.2677,2.207,2.1379,2.071,2.0096,1.9489,0.0,0.0,0.0,0.0,0.0,0.0,0.0,3.139,2.9355,3.0821,3.7943,3.5489,3.6477,4.297,4.3329,4.3928,4.5244,4.5304,4.5933,4.7309,4.7309,4.7309,4.7309,4.7309,4.7309,4.7309,4.7309,4.7309,4.7222,4.7309,4.7309,4.7222,4.7309,4.7698,4.8356,4.9015,4.9552,4.9994,4.9668,5.0191,5.1105,1.5076,1.5768,1.6486,1.7063,1.914,2.1126,2.2324,2.3245,2.436,2.5883,2.7165,2.9066,3.1847,3.2672,3.3665,3.5214,3.5435,3.441,3.1826,2.9453,2.8391,2.887,2.3187,2.1027,2.3142,1.8438,1.5069,1.3295,1.2366,1.1487,1.0689,1.1791,1.316,1.4905,1.9258,2.2907,0.0,0.0,0.0,3.2747,3.3728,3.6231,3.9309,3.8768,3.9208,4.0087,4.0087,4.0087,4.0054,3.9783,3.9277,3.8723,3.874,3.8002,3.7162,3.6916,3.6266,3.5402,3.4277,3.4218,3.3419,2.9134,2.8084,2.7176,2.3538,2.3119,2.309,2.1535,2.2225,2.2683,2.113,2.0676,2.0308,1.9531,1.9192,0.0,0.0,0.0,0.0,0.0,0.0,0.0,0.0,0.0,3.145,3.6118,3.6237,3.8033,4.2462,4.309,4.3928,4.5244,4.5304,4.5933,4.7309,4.7309,4.7309,4.7309,4.7309,4.7309,4.7309,4.7309,4.7309,4.7309,4.7309,4.7309,4.7309,4.7309,4.7967,4.8955,4.9164,4.9942,5.0807,5.0733,5.0917,5.1229,1.6726,1.6895,1.6998,1.7439,1.9591,2.1697,2.2907,2.4384,2.5876,2.7128,2.8897,3.098,3.3533,3.4286,3.5282,3.6835,3.7016,3.5958,3.3338,3.2029,3.0996,3.0173,2.648,2.4846,2.5685,2.1131,1.7895,1.6129,1.4362,1.3058,1.2314,1.2855,1.3971,1.5731,1.8944,2.2835,2.7232,3.0006,3.2408,3.4404,3.5893,3.7652,3.9411,3.9884,3.9918,3.9715,3.9986,4.0087,4.0087,4.0087,3.9749,3.9445,3.9918,3.9211,3.8321,3.9057,3.8384,3.7279,3.6861,3.7034,3.6356,3.2498,3.1405,3.025,2.6308,2.5655,2.5434,2.398,2.4021,2.4327,2.4176,2.2734,2.1335,2.0649,1.9767,0.0,0.0,1.6537,0.0,0.0,0.0,0.0,0.0,0.0,0.0,3.54,3.528,3.7135,4.2102,4.2761,4.3688,4.5244,4.5304,4.5933,4.7309,4.7309,4.7309,4.7309,4.7309,4.7309,4.7309,4.7309,4.7309,4.7309,4.7396,4.7396,4.7396,4.7396,4.8175,4.9434,4.9434,5.0245,5.1323,5.1229,5.1229,5.1323,1.8973,1.8575,1.8414,1.9465,2.1088,2.2767,2.4286,2.5839,2.7436,2.9002,3.068,3.2569,3.4822,3.5865,3.6947,3.8356,3.8618,3.7413,3.4369,3.4816,3.4232,3.2101,3.1031,3.0208,2.973,2.5035,2.1524,1.9337,1.691,1.5325,1.4528,1.4528,1.4952,1.5697,1.7896,2.1414,2.5913,2.9634,3.3829,3.8125,3.9512,4.0054,4.002,4.0121,3.9681,3.914,3.9884,4.0121,4.0155,4.0189,4.0189,4.0189,4.0189,4.0189,4.0324,4.1035,4.1271,4.0998,3.984,3.9534,3.8783,3.5498,3.4104,3.2629,2.9198,2.8845,2.9098,2.8315,2.751,2.7762,3.0435,2.7203,2.3909,2.3163,0.0,0.0,0.0,0.0,0.0,0.0,0.0,0.0,0.0,0.0,0.0,0.0,0.0,0.0,0.0,4.2329,4.318,4.5244,4.5304,4.5933,4.7279,4.7309,4.7309,4.7309,4.7309,4.7309,4.7309,4.7309,4.7309,4.7396,4.7568,4.7624,4.7624,4.7654,4.8437,4.9613,4.9643,5.0457,5.1572,5.1323,5.1386,5.1572,1.8346,1.9644,2.1021,2.1556,2.1603,2.2241,2.4218,2.5493,2.7363,3.0546,3.2445,3.4553,3.7335,3.8343,3.8928,3.9307,3.9939,3.9698,3.8274,3.73,3.6784,3.6835,3.3265,3.1751,3.2827,2.7124,2.3579,2.2453,1.8958,1.6576,1.5325,1.5325,1.5426,1.5697,1.7896,2.1684,2.6623,2.9837,3.4404,3.9546,3.9918,3.9749,3.9377,4.0493,4.046,3.9918,4.0663,4.0933,4.1001,4.1542,4.1711,4.1711,4.1711,4.1711,4.1745,4.1948,4.2016,4.1982,4.1673,4.1553,4.1115,3.9127,3.7836,3.6572,3.4545,3.4362,3.4039,3.2367,3.2602,3.2262,2.9344,2.8176,2.6562,2.3121,2.07,0.0,0.0,0.0,0.0,0.0,0.0,0.0,0.0,0.0,0.0,0.0,0.0,0.0,4.1641,4.0919,4.1896,4.5185,4.5304,4.6017,4.7538,4.7538,4.7538,4.7538,4.7538,4.7538,4.7538,4.7538,4.7624,4.7794,4.788,4.788,4.791,4.8425,4.9122,4.994,5.0455,5.1152,5.188,5.1787,5.1695,5.1572,2.045,2.2219,2.3541,2.3011,2.371,2.4769,2.5939,2.6853,2.8459,3.1273,3.3618,3.5697,3.7422,3.9146,4.0215,4.0215,4.0629,4.025,3.8756,3.878,3.847,3.7619,3.6027,3.527,3.5518,3.1102,2.774,2.5589,2.1778,1.889,1.7016,1.6035,1.5764,1.6136,1.8065,2.1075,2.5135,3.0378,3.5148,3.9208,4.0189,4.0324,0.0,4.1238,4.1407,4.117,4.1914,4.1948,4.1745,4.2151,4.2286,4.2286,4.2286,4.2286,4.2354,4.2692,4.2794,4.2861,4.32,4.3301,4.3098,4.2252,4.1317,4.0117,3.8304,3.7736,3.7236,3.6104,3.5723,3.5177,3.3972,3.1272,2.7767,2.3192,2.0912,0.0,0.0,0.0,0.0,0.0,0.0,0.0,0.0,0.0,0.0,0.0,0.0,0.0,0.0,0.0,4.1203,4.5484,4.5363,4.5996,4.7794,4.7437,4.7437,4.7794,4.7794,4.7794,4.7794,4.7794,4.788,4.7964,4.8133,4.8133,4.8194,4.8834,4.9535,5.0266,5.121,5.182,5.2155,5.2246,5.2155,5.1941,2.3556,2.5193,2.585,2.432,2.6642,2.8767,2.8939,2.9521,3.0551,3.2204,3.4967,3.6801,3.6904,3.9284,4.0871,4.0871,4.0871,3.9996,3.7909,3.9721,3.9698,3.6947,3.8653,3.9077,3.7801,3.5311,3.2135,2.8356,2.4423,2.1173,1.8572,1.6542,1.5933,1.6631,1.8302,2.0737,2.415,3.1495,3.6062,3.8497,4.0426,4.1271,4.1407,4.2151,4.2422,4.2523,4.3301,4.3098,4.2455,4.2557,4.2591,4.2591,4.2591,4.2591,4.2726,4.3369,4.3572,4.3707,4.4384,4.4587,4.4587,4.4587,4.4079,4.3064,4.1102,4.0189,3.9715,3.9715,3.8159,3.7686,4.0527,3.5127,2.8777,2.4214,2.2373,0.0,0.0,0.0,0.0,0.0,0.0,0.0,0.0,0.0,0.0,0.0,0.0,0.0,0.0,0.0,4.0709,4.5688,4.5354,4.593,4.7775,4.741,4.741,4.7775,4.7958,4.8049,4.8049,4.8049,4.8049,4.8133,4.8301,4.8385,4.8416,4.9212,4.9978,5.0774,5.1938,5.2306,5.2397,5.2608,5.2518,5.2306,2.4184,2.6273,2.76,2.6673,2.9076,3.1554,3.2865,3.3175,3.4002,3.6053,3.7964,3.9353,4.0008,4.056,4.0871,4.0871,4.0871,4.0698,4.0319,4.0664,4.0629,4.0112,3.9836,3.956,3.9319,3.5828,3.241,2.911,2.4667,2.0654,1.7071,1.6069,1.5663,1.59,1.8606,2.3875,3.0904,3.4075,3.7462,4.0815,4.1086,4.1576,4.2185,4.2929,4.3234,4.3335,4.4113,4.3876,4.3335,4.3944,4.4181,4.4181,4.4181,4.4181,4.4215,4.435,4.4384,4.4418,4.4553,4.4587,4.4587,4.4587,4.4485,4.4282,4.3876,4.3673,4.3606,4.3606,4.3267,4.2455,4.0629,3.6658,3.2562,2.9282,2.8073,0.0,0.0,0.0,0.0,0.0,0.0,2.7807,0.0,0.0,0.0,0.0,0.0,0.0,0.0,0.0,3.875,4.4959,4.5566,4.6042,4.6539,4.7546,4.7546,4.657,4.7668,4.8218,4.8218,4.8218,4.8385,4.8552,4.8521,4.8521,4.8644,4.9904,5.1164,5.227,5.2516,5.2608,5.2608,5.2698,5.2698,5.2608,2.6218,2.7845,2.9315,2.9524,3.1453,3.3589,3.5559,3.649,3.6973,3.6784,3.7792,3.8698,3.9077,4.0181,4.0871,4.0871,4.0871,4.0871,4.0871,4.0871,4.0871,4.0871,4.0526,4.0112,3.9698,3.7895,3.4857,3.0553,2.6747,2.2925,1.9049,1.7093,1.6191,1.636,2.0145,2.5193,3.1045,3.4823,3.7921,4.0489,4.2005,4.2751,4.3105,4.3851,4.4067,4.4079,4.4529,4.4372,4.4079,4.4451,4.4587,4.4587,4.4587,4.4587,4.4587,4.4587,4.4587,4.4587,4.4587,4.4587,4.4587,4.4587,4.4587,4.4587,4.4587,4.4587,4.4587,4.4587,4.4587,4.3673,4.0663,3.7347,3.4607,3.3186,3.1055,0.0,0.0,0.0,0.0,0.0,0.0,0.0,0.0,0.0,0.0,0.0,0.0,0.0,0.0,0.0,3.8402,0.0,4.5611,4.6333,4.7487,4.7794,4.7794,4.7487,4.8131,4.8469,4.8469,4.8469,4.8521,4.8604,4.8604,4.882,4.9281,5.0636,5.1805,5.2698,5.2698,5.2698,5.2698,5.2698,5.2698,5.2698,2.882,3.0051,3.1466,3.2383,3.3938,3.5663,3.7456,3.8974,3.9319,3.7491,3.7836,3.8215,3.8215,3.9802,4.0871,4.0871,4.0871,4.0871,4.0871,4.0871,4.0871,4.0871,4.0871,4.0595,3.9974,3.9767,3.7309,3.241,2.9008,2.5377,2.1506,1.8597,1.7827,1.9073,2.2869,2.7026,3.1428,3.5848,3.8721,4.0603,4.2911,4.3917,4.4048,4.4593,4.4776,4.4665,4.4776,4.4776,4.4665,4.4643,4.4643,4.4587,4.4587,4.4587,4.4587,4.4587,4.4587,4.4587,4.4587,4.4587,4.4587,4.4587,4.4587,4.4587,4.4587,4.4587,4.4587,4.4587,4.4587,4.3673,4.0629,3.8667,3.7144,3.6062,3.3829,3.3051,0.0,0.0,0.0,0.0,0.0,0.0,0.0,0.0,0.0,0.0,0.0,0.0,3.5696,0.0,0.0,4.4962,4.5308,4.616,4.7657,4.7793,4.7927,4.8173,4.8481,4.8604,4.8604,4.8604,4.8604,4.8604,4.8604,4.9097,4.9989,5.1221,5.2113,5.2698,5.2698,5.2698,5.2698,5.2698,5.2698,5.2729,3.1489,3.3298,3.476,3.4869,3.6697,3.8249,3.8456,3.9802,4.0698,4.0491,4.0526,4.056,4.056,4.0767,4.0871,4.0871,4.0871,4.0871,4.0871,4.0871,4.0871,4.0871,4.0871,4.0836,4.0767,4.0077,3.8067,3.4788,3.0349,2.6258,2.2432,2.0069,2.1541,2.6165,2.7295,3.1442,3.7693,3.8733,4.0891,4.3666,4.3818,4.4278,4.4892,4.4961,4.4995,4.4995,4.4995,4.4995,4.494,4.4831,4.4665,4.4587,4.4587,4.4587,4.4587,4.4587,4.4587,4.4587,4.4587,4.4587,4.4587,4.4587,4.4587,4.4587,4.4587,4.4587,4.4587,4.4587,4.4587,4.3673,4.0663,4.2083,4.2185,3.7449,3.8058,3.9242,0.0,0.0,0.0,0.0,0.0,0.0,0.0,2.8482,0.0,0.0,0.0,0.0,0.0,0.0,0.0,4.3555,4.4211,4.4642,4.4871,4.7322,4.7927,4.6788,4.8019,4.8604,4.8604,4.8604,4.8604,4.8604,4.8604,4.9374,5.0667,5.1405,5.2113,5.2698,5.2698,5.2698,5.2698,5.2698,5.2698,5.279,3.4878,3.5309,3.6071,3.7619,3.7905,3.8387,3.9767,4.0491,4.0871,4.0871,4.0871,4.0871,4.0871,4.0871,4.0871,4.0871,4.0871,4.0871,4.0871,4.0871,4.0871,4.0871,4.0871,4.0871,4.0871,4.056,3.9146,3.6517,3.238,2.887,2.5987,2.4104,2.5583,2.9899,3.2063,3.5057,3.8677,4.1257,4.3047,4.4268,4.4611,4.4936,4.5123,4.5123,4.5069,4.5049,4.5069,4.5069,4.5063,4.5528,4.5282,4.4831,4.472,4.5026,4.5343,4.5343,4.5625,4.5906,4.5906,4.5906,4.5805,4.5365,4.5263,4.5128,4.4688,4.4587,4.4587,4.4587,4.4587,4.4215,4.2997,4.2286,4.1779,4.1508,4.0696,4.073,4.2523,0.0,0.0,0.0,0.0,0.0,0.0,0.0,0.0,0.0,0.0,0.0,0.0,0.0,3.7648,4.0662,4.4898,4.6877,4.6461,4.8387,4.9108,4.8607,4.9139,4.9097,4.8604,4.9178,4.9066,4.8666,4.9497,5.0174,5.079,5.1867,5.2483,5.2698,5.2698,5.2698,5.2698,5.2698,5.2698,5.2852,3.758,3.7263,3.7603,3.9686,3.9181,3.9008,4.0629,4.0871,4.0871,4.0871,4.0871,4.0871,4.0871,4.0871,4.0871,4.0871,4.0871,4.0871,4.0871,4.0871,4.0871,4.0871,4.0871,4.0871,4.0871,4.0871,4.0077,3.8491,3.4829,3.2242,3.0625,2.8801,3.0106,3.4054,3.6268,3.8332,4.041,4.3388,4.463,4.4665,4.5216,4.5371,4.523,4.523,4.5211,4.5157,4.5505,4.5554,4.5603,4.6412,4.6254,4.5754,4.5589,4.5908,4.6294,4.6294,4.6554,4.6844,4.6844,4.6844,4.6684,4.6143,4.6007,4.5872,4.5365,4.5229,4.5229,4.5229,4.5229,4.5229,4.5229,4.3504,4.2455,4.3707,4.2861,4.2489,4.3741,4.4113,0.0,4.4654,4.2016,4.0493,4.1441,3.6028,0.0,0.0,0.0,0.0,0.0,0.0,0.0,4.1194,4.606,4.8437,4.8074,4.9555,5.026,5.026,5.026,4.9789,4.9015,4.9309,4.9147,4.8696,5.0082,5.0697,5.079,5.2144,5.2698,5.2698,5.2698,5.2698,5.2698,5.2698,5.2821,5.3191,3.9044,3.9431,3.9905,4.0733,4.0836,4.0836,4.0871,4.0871,4.0871,4.0871,4.0871,4.0871,4.0871,4.0871,4.0871,4.0871,4.0871,4.0871,4.0871,4.0871,4.0871,4.0871,4.0871,4.0871,4.0871,4.0871,4.0871,4.0836,3.7767,3.6249,3.6146,3.3869,3.5249,3.9595,3.9629,4.1354,4.4251,4.5079,4.5423,4.5423,4.5423,4.5423,4.5423,4.5423,4.5371,4.5474,4.632,4.6596,4.6645,4.7292,4.7589,4.7644,4.7329,4.7273,4.7307,4.7307,4.7135,4.702,4.702,4.6903,4.6786,4.6786,4.6786,4.6786,4.6786,4.6752,4.6752,4.6752,4.6752,4.6752,4.6752,4.6718,4.5737,4.2794,4.479,4.5669,4.2726,4.2963,4.3166,4.2422,3.6468,3.5013,4.1644,3.4912,0.0,0.0,0.0,0.0,0.0,0.0,0.0,4.6524,4.7428,4.8134,4.8895,5.0366,5.107,5.107,5.107,5.0691,4.9868,4.9015,4.8604,4.8696,5.0082,5.0697,5.079,5.2144,5.2698,5.2698,5.2698,5.2698,5.2698,5.2698,5.3129,5.3806,4.0315,4.0444,4.0595,4.0836,4.0871,4.0871,4.0871,4.0871,4.0871,4.0871,4.0871,4.0871,4.0871,4.0871,4.0871,4.0871,4.0871,4.0871,4.0871,4.0871,4.0871,4.0871,4.0871,4.0871,4.0871,4.0871,4.1112,4.163,3.9112,3.8112,3.8594,3.787,3.9422,4.2837,4.2837,4.3664,4.5079,4.532,4.5423,4.5423,4.5423,4.5423,4.5423,4.5423,4.5423,4.5527,4.632,4.6596,4.6803,4.7989,4.8402,4.8506,4.8999,4.8678,4.8175,4.8175,4.8436,4.8635,4.8515,4.8455,4.8293,4.7699,4.7564,4.7428,4.6921,4.6786,4.6786,4.6786,4.6786,4.6786,4.6786,4.6786,4.6481,4.55,4.6177,4.6447,4.55,4.5568,4.5838,4.6109,4.3775,4.32,4.5872,4.1001,0.0,0.0,0.0,0.0,0.0,0.0,4.3137,4.3707,4.8332,5.0522,4.9749,5.1181,5.1915,5.1915,5.1915,5.1769,5.1549,5.0691,5.0561,5.1072,5.2029,5.2699,5.3177,5.4102,5.4147,5.3664,5.4232,5.4094,5.3577,5.3577,5.4451,5.5548,4.0918,4.0871,4.0871,4.0871,4.0871,4.0871,4.0871,4.0871,4.0871,4.0871,4.0871,4.0871,4.0871,4.0871,4.0871,4.0871,4.0871,4.0871,4.0871,4.0871,4.0871,4.0871,4.1147,4.1285,4.1285,4.1595,4.1974,4.2423,4.1285,4.0974,4.1423,4.1698,4.2871,4.4699,4.4699,4.4975,4.5423,4.5423,4.5423,4.5423,4.5423,4.5423,4.5405,4.5768,4.5872,4.601,4.7079,4.7458,4.7631,4.8872,4.9252,4.9355,4.9838,4.9608,4.9114,4.9114,4.9365,4.953,4.9411,4.935,4.9188,4.8625,4.8489,4.8388,4.7912,4.781,4.781,4.7751,4.7657,4.7691,4.7631,4.7631,4.753,4.7259,4.7462,4.753,4.7259,4.7462,4.7394,4.6752,4.6007,4.5838,4.6583,4.3876,4.2252,4.2726,0.0,0.0,0.0,4.2997,4.4451,4.6007,5.0405,5.23,5.1386,5.2268,5.2764,5.2764,5.2449,5.2307,5.2307,5.1443,5.1459,5.228,5.2916,5.3596,5.4388,5.5021,5.4985,5.4569,5.5067,5.4985,5.4485,5.4485,5.5481,5.6802,4.0965,4.0918,4.0905,4.094,4.0905,4.0905,4.1009,4.0974,4.0974,4.1043,4.1043,4.1043,4.1043,4.1043,4.1043,4.1043,4.094,4.0905,4.094,4.0974,4.0974,4.1043,4.1698,4.2078,4.2078,4.2802,4.3232,4.3301,4.4009,4.4354,4.4389,4.5079,4.5423,4.5423,4.5423,4.5423,4.5423,4.5423,4.5423,4.5423,4.5423,4.5405,4.5596,4.632,4.6631,4.6872,4.8321,4.8838,4.8941,4.9735,5.0011,5.0011,5.0011,5.0011,5.0011,5.0011,4.986,4.9708,4.9708,4.959,4.9471,4.9471,4.9471,4.9471,4.9471,4.9471,4.9411,4.9229,4.9229,4.9168,4.908,4.9018,4.8781,4.8105,4.8578,4.8781,4.8071,4.8578,4.797,4.5196,4.4248,4.4079,4.4823,4.4248,4.5196,4.8511,0.0,0.0,4.9932,4.5365,4.5703,5.2097,5.3078,5.3518,5.3518,5.3518,5.3518,5.3518,5.2764,5.2378,5.2378,5.1623,5.1717,5.2498,5.3071,5.3786,5.4612,5.5182,5.5442,5.5393,5.5474,5.5474,5.5393,5.5393,5.6351,5.7553,4.1117,4.1012,4.1078,4.163,4.125,4.1285,4.2506,4.2112,4.194,4.261,4.2679,4.2679,4.2679,4.2679,4.2679,4.2679,4.1609,4.1112,4.1698,4.1733,4.1974,4.2645,4.2802,4.2955,4.2955,4.3128,4.3508,4.4009,4.4768,4.5147,4.5147,4.5354,4.5423,4.5423,4.5423,4.5423,4.5423,4.5423,4.5423,4.5423,4.5423,4.5803,4.6355,4.6527,4.6975,4.7562,4.8493,4.8838,4.8941,4.9735,5.0011,5.0011,5.0011,5.0011,5.0011,5.0011,4.9952,4.9918,4.9708,4.9649,4.9649,4.953,4.9471,4.9471,4.9471,4.9471,4.9471,4.9411,4.929,4.9168,4.9168,4.9046,4.8951,4.8781,4.8883,4.8951,4.8781,4.8883,4.8748,4.8037,4.78,4.7767,4.7936,4.78,4.7361,4.6549,4.7158,4.7834,4.8409,4.78,4.8917,5.2198,5.3078,5.3518,5.3518,5.3518,5.3518,5.3518,5.328,5.3212,5.3212,5.3041,5.3676,5.4917,5.5013,5.5816,5.7063,5.723,5.692,5.6381,5.6996,5.6844,5.627,5.627,5.7586,5.9354,4.23,4.2159,4.2154,4.2506,4.2181,4.2216,4.3093,4.2852,4.2699,4.3162,4.3232,4.3232,4.3232,4.3232,4.3232,4.3232,4.2437,4.2112,4.2492,4.2526,4.2733,4.3197,4.3492,4.3715,4.3715,4.4009,4.4389,4.4803,4.5216,4.5423,4.5423,4.5423,4.5423,4.5423,4.5423,4.5423,4.5423,4.5423,4.5423,4.5405,4.5803,4.6217,4.6665,4.7355,4.7872,4.8321,4.9079,4.9355,4.9424,4.9873,5.0011,5.0011,5.0011,5.0011,5.0011,5.0011,5.0011,5.0011,4.986,4.986,4.9801,4.9742,4.9742,4.9742,4.9742,4.9742,4.9683,4.959,4.953,4.9411,4.935,4.929,4.9229,4.9229,4.9229,4.9229,4.9229,4.9229,4.9168,4.9107,4.9107,4.9046,4.9018,4.9289,4.8984,4.78,4.8714,4.9492,4.9898,5.0642,5.1623,5.2807,5.3281,5.3518,5.3518,5.3518,5.3518,5.3518,5.3518,5.3518,5.3518,5.3518,5.4329,5.5716,5.5716,5.6562,5.7881,5.7881,5.7662,5.7256,5.7735,5.7628,5.7214,5.7549,5.8724,6.0072,4.371,4.3568,4.3541,4.3469,4.335,4.3301,4.3508,4.3423,4.3439,4.3492,4.3526,4.3526,4.3526,4.3526,4.3526,4.3526,4.3526,4.3457,4.3354,4.3404,4.3439,4.3492,4.4113,4.4458,4.4458,4.5079,4.5423,4.5423,4.5423,4.5423,4.5423,4.5423,4.5423,4.5423,4.5423,4.5423,4.5423,4.5561,4.5596,4.5665,4.6458,4.6837,4.7079,4.8355,4.8907,4.9079,4.9769,5.0011,5.0011,5.0011,5.0011,5.0011,5.0011,5.0011,5.0011,5.0011,5.0011,5.0011,5.0011,5.0011,5.0011,5.0011,5.0011,5.0011,5.0011,5.0011,4.9918,4.9767,4.9708,4.9649,4.953,4.953,4.9368,4.9026,4.9266,4.9368,4.9026,4.9266,4.9411,4.929,4.9229,4.9202,4.9215,4.9729,5.0168,5.0405,5.1589,5.2367,5.2469,5.3145,5.3518,5.3518,5.3518,5.3518,5.3518,5.3518,5.3518,5.3518,5.3518,5.3518,5.3518,5.3619,5.4431,5.5716,5.5818,5.663,5.7881,5.7881,5.7881,5.7881,5.7881,5.7881,5.7983,5.8727,5.9471,6.0216,4.4163,4.4025,4.3968,4.4376,4.3875,4.3811,4.4872,4.4527,4.432,4.501,4.5079,4.5079,4.5079,4.5079,4.5079,4.5079,4.5079,4.4803,4.4147,4.4113,4.4389,4.5044,4.5182,4.5251,4.5251,4.5354,4.5423,4.5423,4.5423,4.5423,4.5423,4.5423,4.5423,4.5423,4.5423,4.5423,4.5458,4.6148,4.6424,4.6493,4.7251,4.7907,4.8493,4.8734,4.9252,4.9838,4.9976,5.0011,5.0011,5.0011,5.0011,5.0011,5.0011,5.0011,5.0011,5.0011,5.0011,5.0011,5.0011,5.0011,5.0011,5.0011,5.0011,5.0011,5.0011,5.0011,5.0011,4.9952,4.9801,4.9708,4.9649,4.959,4.8856,4.6942,4.8241,4.8821,4.6908,4.8275,4.9471,4.9471,4.929,4.9501,5.0085,5.0096,5.0608,5.186,5.2164,5.2604,5.3281,5.345,5.3518,5.3518,5.3518,5.3518,5.3518,5.3518,5.3518,5.3518,5.3518,5.3518,5.3518,5.416,5.4905,5.575,5.6359,5.7103,5.7881,5.7881,5.7881,5.7881,5.7881,5.7881,5.7983,5.8727,5.9471,6.0216,4.5574,4.5435,4.5351,4.546,4.5117,4.5018,4.5749,4.554,4.5436,4.5819,4.5701,4.5598,4.5598,4.5476,4.5423,4.5423,4.5423,4.5285,4.4906,4.4906,4.5044,4.5423,4.5423,4.5423,4.5423,4.5423,4.5423,4.5423,4.5423,4.5423,4.5423,4.5423,4.5423,4.5458,4.5872,4.6079,4.6113,4.6872,4.7217,4.7286,4.801,4.8528,4.8872,4.9286,4.97,5.0011,5.0011,5.0206,5.0397,5.0092,5.0206,5.0341,5.0126,5.0011,5.0011,5.0011,5.0011,5.0011,5.0011,5.0011,5.0011,5.0011,5.0011,5.0011,5.0011,5.0011,5.0114,5.0528,5.0538,5.0445,5.0445,5.0385,4.988,4.8438,4.9399,4.9845,4.8403,4.9433,5.036,5.03,5.0146,5.0393,5.1117,5.1337,5.1719,5.2397,5.2838,5.3144,5.3484,5.3551,5.3551,5.3518,5.3518,5.3518,5.3518,5.3518,5.3518,5.3518,5.3518,5.3518,5.3518,5.4262,5.5006,5.575,5.6494,5.7205,5.7881,5.7881,5.7881,5.7881,5.7881,5.7881,5.8017,5.9167,5.981,6.0283,4.6731,4.6637,4.6578,4.635,4.6204,4.607,4.6204,4.6204,4.6204,4.6204,4.602,4.587,4.587,4.5649,4.5528,4.5528,4.5423,4.5423,4.5423,4.5476,4.5476,4.5423,4.5423,4.5423,4.5423,4.5423,4.5423,4.5423,4.5423,4.5423,4.5423,4.563,4.5699,4.5734,4.6527,4.6872,4.6906,4.7665,4.7976,4.8045,4.8803,4.9114,4.9148,4.9769,5.0011,5.0011,5.0149,5.0453,5.0749,5.0285,5.0453,5.0694,5.0149,5.0011,5.0011,5.0011,5.0011,5.0011,5.0011,5.0011,5.0011,5.0011,5.0149,5.0252,5.0252,5.039,5.0666,5.1252,5.1356,5.1356,5.1356,5.1356,5.1011,4.9907,5.0666,5.0976,4.9873,5.0666,5.133,5.1176,5.121,5.1424,5.2056,5.2482,5.2762,5.2932,5.3443,5.3717,5.3618,5.3651,5.3651,5.3518,5.3518,5.3518,5.3518,5.3518,5.3518,5.3518,5.3518,5.3518,5.3551,5.4431,5.5175,5.5784,5.6664,5.7374,5.7881,5.7881,5.7881,5.7881,5.7881,5.7881,5.8084,5.9573,6.0114,6.0317,4.6998,4.6998,4.6906,4.6637,4.6542,4.6495,4.6253,4.6204,4.6204,4.6204,4.6168,4.6204,4.6204,4.592,4.5803,4.5803,4.5546,4.5423,4.5423,4.5649,4.5649,4.5423,4.5423,4.5423,4.5423,4.5423,4.5423,4.5423,4.5423,4.5423,4.5458,4.6182,4.6527,4.6562,4.732,4.7631,4.77,4.8424,4.8734,4.8803,4.9597,4.9907,4.9942,4.9976,5.0011,5.0068,5.0564,5.0749,5.0803,5.0749,5.0749,5.0694,5.0149,5.0011,5.0011,5.0011,5.0011,5.0011,5.0011,5.0011,5.0011,5.0011,5.0528,5.1045,5.1045,5.1563,5.208,5.2114,5.2149,5.2149,5.2149,5.2149,5.1425,4.9252,5.0735,5.139,4.9217,5.0769,5.2149,5.2149,5.2027,5.218,5.2935,5.2917,5.316,5.3844,5.3946,5.398,5.398,5.3783,5.3651,5.3518,5.3518,5.3518,5.3518,5.3518,5.3518,5.3518,5.3518,5.3518,5.3551,5.4972,5.5683,5.5784,5.7205,5.7848,5.7881,5.7881,5.7881,5.7881,5.7881,5.7881,5.8084,5.9573,6.0114,6.0317,4.6998,4.6998,4.6998,4.6906,4.6824,4.6824,4.6684,4.6684,4.6684,4.6684,4.6542,4.6447,4.6447,4.6204,4.602,4.602,4.5955,4.5905,4.5905,4.6005,4.5955,4.5649,4.5803,4.5752,4.5423,4.5546,4.5546,4.5423,4.5423,4.5665,4.6182,4.6458,4.6837,4.732,4.8079,4.839,4.8459,4.9217,4.9562,4.9562,5.0237,5.0509,5.0564,5.0857,5.1017,5.1017,5.1192,5.15,5.175,5.1398,5.1296,5.1192,5.0675,5.0263,5.0011,5.0011,5.0011,5.0011,5.0011,5.0011,5.0114,5.0562,5.0907,5.1218,5.1701,5.2011,5.2356,5.2839,5.2942,5.2942,5.2942,5.2942,5.2494,5.1149,5.208,5.2494,5.1114,5.208,5.2942,5.2942,5.2881,5.3191,5.3914,5.3827,5.3802,5.4076,5.411,5.411,5.398,5.3915,5.3849,5.3817,5.3817,5.3685,5.3518,5.3518,5.3518,5.3518,5.3518,5.3518,5.3551,5.504,5.5716,5.5784,5.7273,5.7881,5.7881,5.7881,5.7881,5.7881,5.7881,5.7881,5.8084,5.9573,6.0114,6.0317,4.6998,4.6998,4.6998,4.6998,4.6998,4.6998,4.6998,4.6998,4.6998,4.6998,4.6824,4.6731,4.6731,4.6495,4.635,4.635,4.6253,4.6204,4.6204,4.6301,4.6204,4.5955,4.607,4.6055,4.5649,4.5854,4.5959,4.6031,4.5927,4.6289,4.7049,4.7237,4.7617,4.819,4.8951,4.9296,4.9331,4.9884,5.0068,5.0068,5.0397,5.0675,5.0857,5.1228,5.1449,5.1601,5.1601,5.1848,5.2078,5.15,5.1347,5.128,5.0694,5.032,5.0011,5.0011,5.0011,5.0011,5.0011,5.0183,5.0459,5.0976,5.1459,5.1977,5.2459,5.277,5.308,5.3632,5.377,5.377,5.377,5.377,5.3563,5.3011,5.3391,5.3563,5.3011,5.3391,5.377,5.377,5.377,5.3942,5.446,5.4367,5.4303,5.4303,5.4303,5.4239,5.4045,5.4045,5.4045,5.398,5.398,5.3849,5.3685,5.3618,5.3551,5.3518,5.3518,5.3619,5.389,5.5141,5.5852,5.6122,5.734,5.7881,5.7881,5.7881,5.7881,5.7881,5.7881,5.8017,5.8389,5.9641,6.0325,6.0732,4.6998,4.6998,4.6998,4.6998,4.6998,4.6998,4.6998,4.6998,4.6998,4.6998,4.6998,4.6998,4.6998,4.6778,4.659,4.659,4.635,4.6204,4.6204,4.6447,4.6495,4.6253,4.6204,4.6204,4.6204,4.6204,4.659,4.7397,4.7142,4.7369,4.8135,4.8571,4.9007,4.9318,5.0084,5.0397,5.0397,5.0397,5.0263,5.0011,5.0011,5.032,5.0803,5.0803,5.1175,5.1601,5.1601,5.1601,5.15,5.1017,5.0803,5.0694,5.0149,5.0011,5.0011,5.0011,5.0011,5.0011,5.0011,5.0562,5.1114,5.1114,5.2252,5.3391,5.3425,5.3977,5.4494,5.4494,5.4494,5.4494,5.4494,5.4494,5.4494,5.4494,5.4494,5.4494,5.4494,5.4494,5.4494,5.4494,5.4494,5.4494,5.4494,5.4494,5.4494,5.4494,5.4494,5.4431,5.4239,5.4239,5.4175,5.398,5.398,5.398,5.398,5.3783,5.3651,5.3518,5.3518,5.389,5.46,5.5378,5.6122,5.6833,5.7577,5.7881,5.7881,5.7881,5.7881,5.7881,5.7881,5.8355,5.9099,5.9844,6.074,6.1673,4.6998,4.6998,4.6998,4.6998,4.6998,4.6998,4.6998,4.6998,4.6998,4.6998,4.6998,4.6998,4.6998,4.6952,4.6906,4.6906,4.6778,4.6731,4.6731,4.686,4.6824,4.6778,4.6731,4.6838,4.7011,4.7245,4.7632,4.8256,4.8153,4.8487,4.9223,4.9361,4.9746,5.0379,5.0589,5.064,5.064,5.064,5.0509,5.0285,5.0694,5.107,5.1398,5.175,5.2268,5.2717,5.2717,5.2717,5.2717,5.2545,5.2221,5.175,5.0857,5.032,5.0011,5.0011,5.0011,5.0114,5.0631,5.1321,5.1873,5.1873,5.2632,5.3529,5.4046,5.4356,5.4494,5.4494,5.4494,5.4494,5.4494,5.4494,5.4494,5.4494,5.4494,5.4494,5.4494,5.4494,5.4494,5.4494,5.4494,5.4494,5.4494,5.4494,5.4494,5.4494,5.4494,5.4431,5.4431,5.4431,5.4367,5.4367,5.4367,5.4303,5.4175,5.398,5.3783,5.3651,5.3651,5.4058,5.4839,5.5448,5.6263,5.7291,5.7865,5.8205,5.8348,5.8348,5.8348,5.8348,5.8348,5.8647,5.9321,6.0217,6.1,6.1673,4.6998,4.6998,4.6998,4.6998,4.6998,4.6998,4.6998,4.6998,4.6998,4.6998,4.6998,4.6998,4.6998,4.6998,4.6998,4.6998,4.6998,4.6998,4.6998,4.7283,4.7461,4.7461,4.7747,4.7856,4.7745,4.8125,4.8742,4.9372,4.927,4.9607,5.0295,5.0189,5.0435,5.0999,5.0999,5.0999,5.0999,5.0999,5.0838,5.062,5.091,5.1244,5.1651,5.2078,5.2545,5.3017,5.2937,5.29,5.2857,5.268,5.2232,5.1601,5.0749,5.0263,5.0011,5.0011,5.0218,5.0528,5.0976,5.1873,5.2701,5.2701,5.3253,5.3942,5.4391,5.4494,5.4494,5.4494,5.4494,5.4494,5.4494,5.4494,5.4494,5.4494,5.4494,5.4494,5.4494,5.4494,5.4494,5.4494,5.4494,5.4494,5.4494,5.4494,5.4494,5.4494,5.4494,5.4494,5.4494,5.4494,5.4494,5.4494,5.4494,5.4431,5.4303,5.4239,5.4045,5.3849,5.3849,5.4395,5.5451,5.5757,5.6609,5.7841,5.8144,5.8419,5.849,5.849,5.849,5.849,5.849,5.9068,5.995,6.0501,6.1394,6.2309,4.6998,4.6998,4.6998,4.6998,4.6998,4.6998,4.6998,4.6998,4.6998,4.6998,4.6998,4.6998,4.6998,4.6998,4.6998,4.6998,4.6998,4.6998,4.6998,4.7747,4.8175,4.8175,4.8996,4.9103,4.8389,4.9067,4.9817,5.0602,5.0353,5.0642,5.135,5.1052,5.1052,5.135,5.135,5.135,5.135,5.135,5.1158,5.0857,5.0857,5.1175,5.1601,5.1848,5.2315,5.2761,5.2599,5.2563,5.2472,5.2018,5.1465,5.0857,5.0285,5.0092,5.0068,5.008,5.0621,5.1208,5.1287,5.2382,5.3452,5.3494,5.4011,5.4494,5.4494,5.4494,5.4494,5.4494,5.4494,5.4494,5.4494,5.4494,5.4494,5.4494,5.4494,5.4494,5.4494,5.4494,5.4494,5.4494,5.4494,5.4494,5.4494,5.4494,5.4494,5.4494,5.4494,5.4494,5.4494,5.4494,5.4494,5.4494,5.4494,5.4494,5.4494,5.4494,5.4303,5.4045,5.4045,5.4766,5.6235,5.6235,5.7055,5.8561,5.8561,5.8561,5.8561,5.8561,5.8561,5.8561,5.8561,5.9484,6.0711,6.0711,6.185,6.3302,4.6998,4.6998,4.6998,4.6998,4.6998,4.6998,4.6998,4.6998,4.6998,4.6998,4.6998,4.6998,4.6998,4.6998,4.6998,4.6998,4.6998,4.6998,4.6998,4.7747,4.8175,4.8175,4.9495,5.0174,4.9995,5.0174,5.0637,5.1422,5.1372,5.1429,5.1607,5.1521,5.1521,5.1607,5.1607,5.1607,5.1607,5.1607,5.1418,5.1158,5.1158,5.1367,5.1601,5.1651,5.203,5.2499,5.2769,5.2893,5.29,5.3072,5.2652,5.2018,5.1479,5.1035,5.0669,5.0818,5.1292,5.1961,5.2684,5.3445,5.4091,5.4205,5.4391,5.4494,5.4494,5.4494,5.4494,5.4494,5.4494,5.4494,5.4494,5.4494,5.4494,5.4494,5.4494,5.4494,5.4494,5.4494,5.4494,5.4494,5.4494,5.4494,5.4494,5.4494,5.4494,5.4494,5.4494,5.4494,5.4494,5.4494,5.4494,5.4494,5.4494,5.4494,5.4494,5.4494,5.4367,5.4175,5.4175,5.4964,5.6438,5.6303,5.7158,5.8875,5.8771,5.8771,5.8875,5.8875,5.8875,5.8875,5.8875,5.9734,6.0964,6.1074,6.2071,6.3302,4.6998,4.6998,4.6998,4.6998,4.6998,4.6998,4.6998,4.6998,4.6998,4.6998,4.6998,4.6998,4.6998,4.6998,4.6998,4.6998,4.7354,4.7568,4.7568,4.8639,4.9281,4.9281,5.0423,5.1066,5.1066,5.1066,5.128,5.1708,5.1708,5.1708,5.1708,5.1708,5.1708,5.1708,5.1708,5.1708,5.1708,5.1708,5.1658,5.1505,5.1505,5.1571,5.1637,5.1786,5.1982,5.2304,5.2672,5.29,5.303,5.3157,5.282,5.2289,5.1922,5.1465,5.1105,5.179,5.2411,5.3085,5.395,5.4719,5.5129,5.4939,5.4957,5.4834,5.4557,5.4494,5.4494,5.4494,5.4494,5.4494,5.4494,5.4745,5.4957,5.4957,5.5164,5.5284,5.4957,5.4957,5.4834,5.4494,5.4494,5.4494,5.4494,5.4494,5.4494,5.4494,5.4494,5.4494,5.4494,5.4494,5.4494,5.4494,5.4772,5.4772,5.4494,5.4807,5.471,5.4367,5.4367,5.5159,5.6638,5.6505,5.7397,5.9012,5.8909,5.8978,5.9012,5.9012,5.9012,5.9047,5.9426,6.0219,6.1215,6.1665,6.2527,6.3452,4.6998,4.6998,4.6998,4.6998,4.6998,4.6998,4.6998,4.6998,4.6998,4.6998,4.6998,4.6998,4.6998,4.7105,4.7212,4.7212,4.7925,4.8318,4.8247,4.9674,5.0495,5.0423,5.1244,5.1708,5.1708,5.1708,5.1708,5.1708,5.1708,5.1708,5.1708,5.1708,5.1708,5.1708,5.1708,5.1708,5.1708,5.1708,5.1708,5.1708,5.1708,5.1722,5.1822,5.2018,5.2162,5.2257,5.259,5.2944,5.3203,5.3078,5.2777,5.2417,5.2159,5.1884,5.1872,5.2874,5.3713,5.4434,5.5133,5.5848,5.6276,5.5543,5.5461,5.5343,5.4772,5.4557,5.4494,5.462,5.4683,5.4683,5.4772,5.5224,5.5543,5.5543,5.5943,5.6111,5.5601,5.5461,5.5224,5.4745,5.4557,5.4494,5.4494,5.4494,5.4557,5.462,5.4683,5.4683,5.4683,5.4683,5.462,5.4494,5.5079,5.5104,5.4529,5.5104,5.5104,5.4494,5.4758,5.5554,5.6805,5.6943,5.7736,5.9012,5.9012,5.9012,5.9012,5.9012,5.9012,5.9081,5.9737,6.053,6.1427,6.2324,6.3048,6.36,4.6998,4.6998,4.6998,4.6998,4.6998,4.6998,4.6998,4.6998,4.6998,4.6998,4.6998,4.6998,4.6998,4.7604,4.8032,4.8032,4.871,4.8996,4.8568,4.9781,5.0388,5.0174,5.1137,5.1708,5.1708,5.1708,5.1708,5.1708,5.1708,5.1708,5.1708,5.1708,5.1708,5.1708,5.1708,5.1708,5.1708,5.1708,5.1708,5.1708,5.1708,5.1871,5.2173,5.2137,5.2408,5.2761,5.3072,5.344,5.3717,5.3678,5.36,5.3437,5.2907,5.3126,5.3634,5.3999,5.4977,5.5921,5.6132,5.6613,5.6757,5.5658,5.5636,5.5751,5.5343,5.4896,5.4683,5.5164,5.5284,5.5461,5.5943,5.6111,5.6166,5.6166,5.6221,5.6276,5.6166,5.5716,5.5402,5.5284,5.4834,5.4494,5.4494,5.4494,5.4745,5.5224,5.5284,5.5284,5.5284,5.5284,5.5079,5.4494,5.5079,5.5104,5.4529,5.5104,5.5104,5.4529,5.5741,5.6481,5.6805,5.746,5.8219,5.9012,5.9012,5.9012,5.9012,5.9012,5.9012,5.9012,5.9116,6.0047,6.1461,6.291,6.3496,6.36,4.6998,4.6998,4.6998,4.6998,4.6998,4.6998,4.6998,4.6998,4.6998,4.6998,4.6998,4.7176,4.7604,4.8354,4.8817,4.8817,4.9531,4.9888,4.9674,5.0602,5.1101,5.0994,5.1458,5.1708,5.1708,5.1708,5.1708,5.1708,5.1708,5.1708,5.1708,5.1708,5.1708,5.1708,5.1708,5.1708,5.1708,5.192,5.1982,5.1982,5.2257,5.2361,5.2545,5.2545,5.2672,5.285,5.3193,5.34,5.3561,5.3717,5.3676,5.344,5.3404,5.375,5.4342,5.5066,5.5998,5.6887,5.7386,5.769,5.7642,5.6773,5.6668,5.6668,5.615,5.5872,5.5738,5.5887,5.5887,5.5999,5.6276,5.6546,5.6757,5.6757,5.7015,5.7116,5.6809,5.6276,5.5658,5.4957,5.5284,5.5402,5.5079,5.5284,5.5601,5.5887,5.5887,5.5773,5.5402,5.5402,5.5284,5.5018,5.5601,5.5773,5.5519,5.5773,5.5985,5.6153,5.6867,5.7095,5.684,5.7925,5.8885,5.9516,5.9149,5.9182,5.9516,5.9149,5.9012,5.9047,5.9495,6.0599,6.2082,6.3186,6.36,6.36]},{"header":{"parameterUnit":"m.s-1","parameterCategory":1,"la1":30.6,"la2":28.766,"lo1":-90.7593,"lo2":-88.6598,"dx":0.0162,"dy":0.0183,"nx":116,"ny":114,"refTime":"2023-01-02T18:00:00:Z","depth":0,"parameterNumber":3,"parameterNumberName":"V-component_of_WINDS"},"data":[0.0,0.0,0.0,0.0,0.0,0.0,0.0,0.0,0.0,0.0,0.0,0.0,0.0,0.0,0.0,0.0,0.0,0.0,0.0,0.0,0.0,0.0,0.0,0.0,0.0,0.0,0.0,0.0,0.0,0.0,0.0,0.0,0.0,0.0,0.0,0.0,0.0,0.0,0.0,0.0,0.0,0.0,0.0,0.0,0.0,0.0,0.0,0.0,0.0,0.0,0.0,0.0,0.0,0.0,0.0,0.0,0.0,0.0,0.0,0.0,0.0,0.0,0.0,0.0,0.0,0.0,0.0,0.0,0.0,0.0,0.0,0.0,0.0,0.0,0.0,0.0,0.0,0.0,0.0,0.0,0.0,0.0,0.0,0.0,0.0,0.0,0.0,0.0,0.0,0.0,0.0,0.0,0.0,0.0,0.0,0.0,0.0,0.0,0.0,0.0,0.0,0.0,0.0,0.0,0.0,0.0,0.0,0.0,0.0,0.0,0.0,0.0,0.0,0.0,0.0,0.0,0.0,0.0,0.0,0.0,0.0,0.0,0.0,0.0,0.0,0.0,0.0,0.0,0.0,0.0,0.0,0.0,0.0,0.0,0.0,0.0,0.0,0.0,0.0,0.0,0.0,0.0,0.0,0.0,0.0,0.0,0.0,0.0,0.0,0.0,0.0,0.0,0.0,0.0,0.0,0.0,0.0,0.0,0.0,0.0,0.0,0.0,0.0,0.0,0.0,0.0,0.0,0.0,0.0,0.0,0.0,0.0,0.0,0.0,0.0,0.0,0.0,0.0,0.0,0.0,0.0,0.0,0.0,0.0,0.0,0.0,0.0,0.0,0.0,0.0,0.0,0.0,0.0,0.0,0.0,0.0,0.0,0.0,0.0,0.0,0.0,0.0,0.0,0.0,0.0,0.0,0.0,0.0,0.0,0.0,0.0,0.0,0.0,0.0,0.0,0.0,0.0,0.0,0.0,0.0,0.0,0.0,0.0,0.0,0.0,0.0,0.0,0.0,0.0,0.0,0.0,0.0,0.0,0.0,0.0,0.0,0.0,0.0,0.0,0.0,0.0,0.0,0.0,0.0,0.0,0.0,0.0,0.0,0.0,0.0,0.0,0.0,0.0,0.0,0.0,0.0,0.0,0.0,0.0,0.0,0.0,0.0,0.0,0.0,0.0,0.0,0.0,0.0,0.0,0.0,0.0,0.0,0.0,0.0,0.0,0.0,0.0,0.0,0.0,0.0,0.0,0.0,0.0,0.0,0.0,0.0,0.0,0.0,0.0,0.0,0.0,0.0,0.0,0.0,0.0,0.0,0.0,0.0,0.0,0.0,0.0,0.0,0.0,0.0,0.0,0.0,0.0,0.0,0.0,0.0,0.0,0.0,0.0,0.0,0.0,0.0,0.0,0.0,0.0,0.0,0.0,0.0,0.0,0.0,0.0,0.0,0.0,0.0,0.0,0.0,0.0,0.0,0.0,0.0,0.0,0.0,0.0,0.0,0.0,0.0,0.0,0.0,0.0,0.0,0.0,0.0,0.0,0.0,0.0,0.0,0.0,0.0,0.0,0.0,0.0,0.0,0.0,0.0,0.0,0.0,0.0,0.0,0.0,0.0,0.0,0.0,0.0,0.0,0.0,0.0,0.0,0.0,0.0,0.0,0.0,0.0,0.0,0.0,0.0,0.0,0.0,0.0,0.0,0.0,0.0,0.0,0.0,0.0,0.0,0.0,0.0,0.0,0.0,0.0,0.0,0.0,0.0,0.0,0.0,0.0,0.0,0.0,0.0,0.0,0.0,0.0,0.0,0.0,0.0,0.0,0.0,0.0,0.0,0.0,0.0,0.0,0.0,0.0,0.0,0.0,0.0,0.0,0.0,0.0,0.0,0.0,0.0,0.0,0.0,0.0,0.0,0.0,0.0,0.0,0.0,0.0,0.0,0.0,0.0,0.0,0.0,0.0,0.0,0.0,0.0,0.0,0.0,0.0,0.0,0.0,0.0,0.0,0.0,0.0,0.0,0.0,0.0,0.0,0.0,0.0,0.0,0.0,0.0,0.0,0.0,0.0,0.0,0.0,0.0,0.0,0.0,0.0,0.0,0.0,0.0,0.0,0.0,0.0,0.0,0.0,0.0,0.0,0.0,0.0,0.0,0.0,0.0,0.0,0.0,0.0,0.0,0.0,0.0,0.0,0.0,0.0,0.0,0.0,0.0,0.0,0.0,0.0,0.0,0.0,0.0,0.0,0.0,0.0,0.0,0.0,0.0,0.0,0.0,0.0,0.0,0.0,0.0,0.0,0.0,0.0,0.0,0.0,0.0,0.0,0.0,0.0,0.0,0.0,0.0,0.0,0.0,0.0,0.0,0.0,0.0,0.0,0.0,0.0,0.0,0.0,0.0,0.0,0.0,0.0,0.0,0.0,0.0,0.0,0.0,0.0,0.0,0.0,0.0,0.0,0.0,0.0,0.0,0.0,0.0,0.0,0.0,0.0,0.0,0.0,0.0,0.0,0.0,0.0,0.0,0.0,0.0,0.0,0.0,0.0,0.0,0.0,0.0,0.0,0.0,0.0,0.0,0.0,0.0,0.0,0.0,0.0,0.0,0.0,0.0,0.0,0.0,0.0,0.0,0.0,0.0,0.0,0.0,0.0,0.0,0.0,0.0,0.0,0.0,0.0,0.0,0.0,0.0,0.0,0.0,0.0,0.0,0.0,0.0,0.0,0.0,0.0,0.0,0.0,0.0,0.0,0.0,0.0,0.0,0.0,0.0,0.0,0.0,0.0,0.0,0.0,0.0,0.0,0.0,0.0,0.0,0.0,0.0,0.0,0.0,0.0,0.0,0.0,0.0,0.0,0.0,0.0,0.0,0.0,0.0,0.0,0.0,0.0,0.0,0.0,0.0,0.0,0.0,0.0,0.0,0.0,0.0,0.0,0.0,0.0,0.0,0.0,0.0,0.0,0.0,0.0,0.0,0.0,0.0,0.0,0.0,0.0,0.0,0.0,0.0,0.0,0.0,0.0,0.0,0.0,0.0,0.0,0.0,0.0,0.0,0.0,0.0,0.0,0.0,0.0,0.0,0.0,0.0,0.0,0.0,0.0,0.0,0.0,0.0,0.0,0.0,0.0,0.0,0.0,0.0,0.0,0.0,0.0,0.0,0.0,0.0,0.0,0.0,0.0,0.0,0.0,0.0,0.0,0.0,0.0,0.0,0.0,0.0,0.0,0.0,0.0,0.0,0.0,0.0,0.0,0.0,0.0,0.0,0.0,0.0,0.0,0.0,0.0,0.0,0.0,0.0,0.0,0.0,0.0,0.0,0.0,0.0,0.0,0.0,0.0,0.0,0.0,0.0,0.0,0.0,0.0,0.0,0.0,0.0,0.0,0.0,0.0,0.0,0.0,0.0,0.0,0.0,0.0,0.0,0.0,0.0,0.0,0.0,0.0,0.0,0.0,0.0,0.0,0.0,0.0,0.0,0.0,0.0,0.0,0.0,0.0,0.0,0.0,0.0,0.0,0.0,0.0,0.0,0.0,0.0,0.0,0.0,0.0,0.0,0.0,0.0,0.0,0.0,0.0,0.0,0.0,0.0,0.0,0.0,0.0,0.0,0.0,0.0,0.0,0.0,0.0,0.0,0.0,0.0,0.0,0.0,0.0,0.0,0.0,0.0,0.0,0.0,0.0,0.0,0.0,0.0,0.0,0.0,0.0,0.0,0.0,0.0,0.0,0.0,0.0,0.0,0.0,0.0,0.0,0.0,0.0,0.0,0.0,0.0,0.0,0.0,0.0,0.0,0.0,0.0,0.0,0.0,0.0,0.0,0.0,0.0,0.0,0.0,0.0,0.0,0.0,0.0,0.0,0.0,0.0,0.0,0.0,0.0,0.0,0.0,0.0,0.0,0.0,0.0,0.0,0.0,0.0,0.0,0.0,0.0,0.0,0.0,0.0,0.0,0.0,0.0,0.0,0.0,0.0,0.0,0.0,0.0,0.0,0.0,0.0,0.0,0.0,0.0,0.0,0.0,0.0,0.0,0.0,0.0,0.0,0.0,0.0,0.0,0.0,0.0,0.0,0.0,0.0,0.0,0.0,0.0,0.0,0.0,0.0,0.0,0.0,0.0,0.0,0.0,0.0,0.0,0.0,0.0,0.0,0.0,0.0,0.0,0.0,0.0,0.0,0.0,0.0,0.0,0.0,0.0,0.0,0.0,0.0,0.0,0.0,0.0,0.0,0.0,0.0,0.0,0.0,0.0,0.0,0.0,0.0,0.0,0.0,0.0,0.0,0.0,0.0,0.0,0.0,0.0,0.0,0.0,0.0,0.0,0.0,0.0,0.0,0.0,0.0,0.0,0.0,0.0,0.0,0.0,0.0,0.0,0.0,0.0,0.0,0.0,0.0,0.0,0.0,0.0,0.0,0.0,0.0,0.0,0.0,0.0,0.0,0.0,0.0,0.0,0.0,0.0,0.0,0.0,0.0,0.0,0.0,0.0,0.0,0.0,0.0,0.0,0.0,0.0,0.0,0.0,0.0,0.0,0.0,0.0,0.0,0.0,0.0,0.0,0.0,0.0,0.0,0.0,0.0,0.0,0.0,0.0,0.0,0.0,0.0,0.0,0.0,0.0,0.0,0.0,0.0,0.0,0.0,0.0,0.0,0.0,0.0,0.0,0.0,0.0,0.0,0.0,0.0,0.0,0.0,0.0,0.0,0.0,0.0,0.0,0.0,0.0,0.0,0.0,0.0,0.0,0.0,0.0,0.0,0.0,0.0,0.0,0.0,0.0,0.0,0.0,0.0,0.0,0.0,0.0,0.0,0.0,0.0,0.0,0.0,0.0,0.0,0.0,0.0,0.0,0.0,0.0,0.0,0.0,0.0,0.0,0.0,0.0,0.0,0.0,0.0,0.0,0.0,0.0,0.0,0.0,0.0,0.0,0.0,0.0,0.0,0.0,0.0,0.0,0.0,0.0,0.0,0.0,0.0,0.0,0.0,0.0,0.0,0.0,0.0,0.0,0.0,0.0,0.0,0.0,0.0,0.0,0.0,0.0,0.0,0.0,0.0,0.0,0.0,0.0,0.0,0.0,0.0,0.0,0.0,0.0,0.0,0.0,0.0,0.0,0.0,0.0,0.0,0.0,0.0,0.0,0.0,0.0,0.0,0.0,0.0,0.0,0.0,0.0,0.0,0.0,0.0,0.0,0.0,0.0,0.0,0.0,0.0,0.0,0.0,0.0,0.0,0.0,0.0,0.0,0.0,0.0,0.0,0.0,0.0,0.0,0.0,0.0,0.0,0.0,0.0,0.0,0.0,0.0,0.0,0.0,0.0,0.0,0.0,0.0,0.0,0.0,0.0,0.0,0.0,0.0,0.0,0.0,0.0,0.0,0.0,0.0,0.0,0.0,0.0,0.0,0.0,0.0,0.0,0.0,0.0,0.0,0.0,0.0,0.0,0.0,0.0,0.0,0.0,0.0,0.0,0.0,0.0,0.0,0.0,0.0,0.0,0.0,0.0,0.0,0.0,0.0,0.0,0.0,0.0,0.0,0.0,0.0,0.0,0.0,0.0,0.0,0.0,0.0,0.0,0.0,0.0,0.0,0.0,0.0,0.0,0.0,0.0,0.0,0.0,0.0,0.0,0.0,0.0,0.0,0.0,0.0,0.0,0.0,0.0,0.0,0.0,0.0,0.0,0.0,0.0,0.0,0.0,0.0,0.0,0.0,0.0,0.0,0.0,0.0,0.0,0.0,0.0,0.0,0.0,0.0,0.0,0.0,0.0,0.0,0.0,0.0,0.0,0.0,0.0,0.0,0.0,0.0,0.0,0.0,0.0,0.0,0.0,0.0,0.0,0.0,0.0,0.0,0.0,0.0,0.0,0.0,0.0,0.0,0.0,0.0,0.0,0.0,0.0,0.0,0.0,0.0,0.0,0.0,0.0,0.0,0.0,0.0,0.0,0.0,0.0,0.0,0.0,0.0,0.0,0.0,0.0,0.0,0.0,0.0,0.0,0.0,0.0,0.0,0.0,0.0,0.0,0.0,0.0,0.0,0.0,0.0,0.0,0.0,0.0,0.0,0.0,0.0,0.0,0.0,0.0,0.0,0.0,-2.0903,-1.8352,0.0,0.0,0.0,0.0,0.0,0.0,0.0,0.0,0.0,0.0,0.0,0.0,0.0,0.0,0.0,0.0,0.0,0.0,0.0,0.0,0.0,0.0,0.0,-0.9031,-0.923,-0.923,-0.923,0.0,0.0,0.0,0.0,0.0,0.0,0.0,0.0,0.0,-0.9217,-1.0288,-1.1064,-1.2356,-1.4079,-1.3207,-1.2287,-1.1331,0.0,0.0,0.0,0.0,0.0,0.0,0.0,0.0,0.0,0.0,0.0,0.0,0.0,0.0,0.0,0.0,0.0,0.0,0.0,0.0,0.0,0.0,0.0,0.0,0.0,0.0,0.0,0.0,0.0,0.0,0.0,0.0,0.0,0.0,0.0,0.0,0.0,0.0,0.0,0.0,0.0,0.0,0.0,0.0,0.0,0.0,0.0,0.0,0.0,0.0,0.0,0.0,0.0,0.0,0.0,0.0,0.0,0.0,0.0,0.0,0.0,0.0,0.0,0.0,0.0,0.0,0.0,0.0,0.0,0.0,-2.4249,-2.2294,0.0,0.0,0.0,0.0,0.0,0.0,0.0,0.0,0.0,0.0,0.0,0.0,0.0,0.0,0.0,0.0,0.0,0.0,0.0,0.0,0.0,-0.8953,-0.9052,-0.9739,-1.025,-1.0369,-1.025,-1.0151,-1.0018,-0.9296,0.0,0.0,0.0,0.0,0.0,-0.9019,-1.0156,-1.2389,-1.3151,-1.4874,-1.7548,-1.8135,-1.7396,-1.5638,-1.47,0.0,0.0,0.0,0.0,0.0,0.0,0.0,0.0,0.0,0.0,0.0,0.0,0.0,0.0,0.0,0.0,0.0,0.0,0.0,0.0,0.0,0.0,0.0,0.0,0.0,0.0,0.0,0.0,0.0,0.0,0.0,0.0,0.0,0.0,0.0,0.0,0.0,0.0,0.0,0.0,0.0,0.0,0.0,0.0,0.0,0.0,0.0,0.0,0.0,0.0,0.0,0.0,0.0,0.0,0.0,0.0,0.0,0.0,0.0,0.0,0.0,0.0,0.0,-2.876,-2.9158,-2.9158,-2.9251,-2.998,-3.0907,-2.7926,-2.7098,-2.7595,-2.4282,0.0,0.0,0.0,0.0,0.0,0.0,0.0,0.0,0.0,0.0,0.0,0.0,0.0,0.0,0.0,0.0,0.0,0.0,0.0,-0.9905,-1.0534,-1.1263,-1.1959,-1.2621,-1.2091,-1.1429,-1.0799,-1.0071,0.0,0.0,0.0,0.0,-0.964,-1.0269,-1.1694,-1.3894,-1.769,-2.0406,-2.2062,-2.276,-2.2534,-2.133,-1.7332,-1.5461,-1.5172,0.0,0.0,0.0,0.0,0.0,0.0,0.0,0.0,0.0,0.0,0.0,0.0,0.0,0.0,0.0,0.0,0.0,0.0,0.0,0.0,0.0,0.0,0.0,0.0,0.0,0.0,0.0,0.0,0.0,0.0,0.0,0.0,0.0,0.0,0.0,0.0,0.0,0.0,0.0,0.0,0.0,-2.1135,-2.1334,0.0,0.0,0.0,0.0,0.0,0.0,0.0,0.0,0.0,0.0,0.0,0.0,0.0,-2.6936,-2.7926,-2.9284,-2.998,-3.0112,-3.147,-3.21,-3.2133,-3.2796,-3.3193,-3.3326,-3.2862,0.0,-2.9947,-2.8224,0.0,0.0,0.0,0.0,0.0,0.0,0.0,0.0,0.0,0.0,0.0,0.0,0.0,0.0,0.0,0.0,0.0,0.0,0.0,0.0,0.0,-1.3151,-1.4164,-1.4874,-1.4662,-1.398,-1.282,-1.1694,0.0,0.0,0.0,-0.9673,-1.0402,-1.1959,-1.4443,-1.7855,-2.1433,-2.3455,-2.3983,-2.4603,-2.459,-2.4023,-2.1469,-1.9526,-1.8051,-1.6326,0.0,0.0,0.0,0.0,0.0,0.0,0.0,0.0,0.0,0.0,0.0,0.0,0.0,0.0,0.0,0.0,0.0,0.0,0.0,0.0,0.0,0.0,0.0,0.0,0.0,0.0,0.0,0.0,0.0,0.0,0.0,0.0,0.0,0.0,0.0,0.0,0.0,0.0,0.0,-2.0671,-2.1797,-2.1797,-2.1499,-2.1164,0.0,0.0,0.0,0.0,0.0,0.0,0.0,0.0,0.0,-2.8555,-2.892,-2.9847,-3.1404,-3.2034,-3.2762,-3.3624,-3.4253,-3.4783,-3.5181,-3.5512,-3.5644,-3.5644,-3.5644,-3.5114,-3.4021,-3.1305,-2.9019,-2.7098,0.0,0.0,0.0,0.0,-2.6535,-2.7429,0.0,0.0,0.0,0.0,0.0,0.0,0.0,0.0,0.0,0.0,0.0,0.0,-1.3781,-1.5259,-1.6486,-1.7415,-1.7349,-1.6663,-1.5383,-1.3582,-1.1992,-1.07,-1.0283,-1.0601,-1.1727,-1.4642,-1.7922,-2.1532,-2.4083,-2.5236,-2.5095,-2.5505,-2.5578,-2.5355,-2.4659,-2.3088,-2.0862,-1.9242,-1.7559,-1.5773,0.0,0.0,0.0,0.0,0.0,0.0,0.0,0.0,0.0,0.0,0.0,0.0,0.0,0.0,0.0,0.0,0.0,0.0,0.0,0.0,0.0,0.0,0.0,0.0,0.0,0.0,0.0,0.0,0.0,0.0,0.0,0.0,0.0,0.0,0.0,0.0,0.0,-2.1897,-2.2924,-2.2924,-2.3255,-2.3123,0.0,0.0,0.0,0.0,0.0,0.0,-2.7263,-2.7992,-2.9383,-3.157,-3.1835,-3.2796,-3.4618,-3.4651,-3.5214,-3.6274,-3.6274,-3.6572,-3.7102,-3.7102,-3.7102,-3.7102,-3.7102,-3.7102,-3.6903,-3.4154,-3.2365,-3.1305,-3.0742,-3.0344,-3.0079,-3.041,-3.1007,-3.1835,0.0,0.0,0.0,0.0,0.0,0.0,0.0,0.0,0.0,0.0,0.0,-1.4609,-1.6088,-1.7491,-1.8915,-2.0368,-1.9843,-1.9121,-1.8327,-1.5648,-1.3729,-1.2986,-1.1594,-1.1859,-1.3994,-1.8882,-2.2195,-2.3818,-2.5201,-2.5848,-2.5848,-2.5881,-2.577,-2.5551,-2.5519,-2.4842,-2.3575,-2.1521,-2.0225,-1.9246,-1.5801,0.0,0.0,0.0,0.0,0.0,0.0,0.0,0.0,0.0,0.0,0.0,0.0,0.0,0.0,0.0,0.0,0.0,0.0,0.0,0.0,0.0,0.0,0.0,0.0,0.0,0.0,0.0,0.0,0.0,0.0,0.0,0.0,0.0,0.0,0.0,0.0,0.0,0.0,-2.6005,-2.7197,0.0,0.0,0.0,0.0,-2.8097,-2.8158,-2.882,-3.0245,-3.0964,-3.2431,-3.4618,-3.5346,-3.6108,-3.6936,-3.6936,-3.697,-3.7036,-3.7036,-3.7069,-3.7102,-3.7102,-3.7102,-3.7102,-3.7102,-3.7102,-3.7102,-3.6903,-3.5578,-3.3624,-3.3591,-3.2729,-3.1669,-3.3061,-3.4054,-3.4883,0.0,0.0,0.0,-0.8447,-0.8517,-0.8592,-0.8677,-0.929,-1.0194,-1.1462,-1.3516,-1.5801,-1.822,-1.9744,-2.1234,-2.2692,-2.2592,-2.193,-2.0704,-1.7922,-1.6398,-1.6574,-1.4741,-1.5657,-1.971,-2.2029,-2.4149,-2.6104,-2.6598,-2.6982,-2.7289,-2.7173,-2.6944,-2.6744,-2.6614,-2.6322,-2.5819,-2.3702,-2.2153,-2.0952,-1.8803,-1.656,0.0,0.0,0.0,0.0,0.0,0.0,0.0,0.0,0.0,0.0,0.0,0.0,0.0,0.0,0.0,0.0,0.0,0.0,0.0,0.0,0.0,0.0,0.0,0.0,0.0,0.0,0.0,0.0,0.0,0.0,0.0,0.0,0.0,0.0,0.0,0.0,0.0,-2.6932,-2.8158,0.0,-2.7694,-2.892,-2.9947,-3.0444,-3.1769,-3.2994,-3.3988,-3.475,-3.5512,-3.6307,-3.6572,-3.6837,-3.7102,-3.7102,-3.7334,-3.7831,-3.7831,-3.8063,-3.8493,-3.8493,-3.8493,-3.8493,-3.8493,-3.8493,-3.8493,-3.8493,-3.7765,-3.6671,-3.7135,-3.7003,-3.6605,-3.7135,-3.75,-3.7798,0.0,0.0,0.0,-0.8356,-0.8428,-0.8517,-0.8665,-0.9719,-1.1004,-1.2538,-1.4874,-1.7392,-2.0075,-2.1433,-2.2758,-2.4249,-2.4381,-2.3951,-2.299,-2.0174,-1.8783,-1.9214,-1.788,-1.9173,-2.3553,-2.4348,-2.5706,-2.7699,-2.7514,-2.7623,-2.7956,-2.7721,-2.7557,-2.739,-2.7254,-2.7211,-2.7074,-2.5638,-2.4334,-2.3133,-2.1489,-1.9435,-1.7155,0.0,0.0,0.0,0.0,0.0,0.0,0.0,0.0,0.0,0.0,0.0,0.0,0.0,0.0,0.0,0.0,0.0,0.0,0.0,0.0,0.0,0.0,0.0,0.0,0.0,0.0,0.0,0.0,0.0,0.0,0.0,0.0,0.0,0.0,-2.7374,-2.9076,-2.8461,-2.9847,-3.051,-2.9582,-3.1239,-3.2564,-3.3061,-3.4684,-3.5876,-3.634,-3.6837,-3.7235,-3.7466,-3.7466,-3.7599,-3.7831,-3.7831,-3.8096,-3.856,-3.856,-3.8825,-3.9288,-3.9288,-3.9288,-3.9288,-3.9288,-3.9288,-3.9288,-3.9288,-3.899,-3.8626,-3.909,-3.9288,-3.9288,-3.9288,-3.9288,-3.9288,0.0,0.0,-0.7927,-0.833,-0.8382,-0.846,-0.8685,-1.0586,-1.2505,-1.3994,-1.6739,-1.9379,-2.1599,-2.2493,-2.3553,-2.5011,-2.5143,-2.5143,-2.5143,-2.2361,-2.0732,-2.0732,-2.0865,-2.2228,-2.511,-2.5905,-2.6965,-2.8461,-2.7996,-2.7753,-2.7786,-2.758,-2.7454,-2.7454,-2.7486,-2.7454,-2.7444,-2.7232,-2.6735,-2.5882,-2.3828,-2.2153,-2.0605,0.0,0.0,0.0,0.0,0.0,0.0,0.0,0.0,0.0,0.0,0.0,0.0,0.0,0.0,0.0,0.0,0.0,0.0,0.0,0.0,0.0,0.0,0.0,0.0,0.0,0.0,0.0,0.0,0.0,0.0,0.0,0.0,0.0,-2.8495,-3.004,-3.1019,-3.0651,-3.2531,-3.3292,-3.1858,-3.4352,-3.6042,-3.6075,-3.6738,-3.7135,-3.7168,-3.7168,-3.75,-3.8228,-3.8228,-3.8593,-3.9255,-3.9288,-3.9288,-3.9288,-3.9288,-3.9288,-3.9288,-3.9288,-3.9288,-3.9288,-3.9288,-3.9322,-3.9408,-3.9408,-3.9408,-3.9322,-3.9342,-3.9288,-3.9288,-3.9288,-3.9288,-3.9375,-0.765,-0.7753,-0.794,-0.8205,-0.8303,-0.8422,-0.864,-1.0513,-1.2418,-1.3994,-1.7169,-2.0114,-2.2361,-2.3719,-2.4878,-2.5839,-2.5905,-2.5905,-2.5905,-2.3123,-2.1499,-2.1499,-2.4083,-2.5874,-2.6703,-2.7212,-2.8036,-2.9118,-2.8837,-2.9059,-2.9708,-2.9329,-2.9157,-2.9157,-2.8761,-2.8659,-2.8614,-2.8568,-2.8158,-2.7431,-2.6356,-2.4776,-2.2912,0.0,0.0,0.0,0.0,0.0,0.0,0.0,0.0,0.0,0.0,0.0,0.0,0.0,0.0,0.0,0.0,0.0,0.0,0.0,0.0,0.0,0.0,0.0,0.0,0.0,0.0,0.0,0.0,0.0,0.0,0.0,-2.9059,-3.1269,-3.0494,-3.1934,-3.3029,-3.2895,-3.4386,-3.5247,-3.4849,-3.6009,-3.7036,-3.7566,-3.7798,-3.8129,-3.8659,-3.8692,-3.8758,-3.899,-3.899,-3.909,-3.9288,-3.9288,-3.9288,-3.9288,-3.9288,-3.9288,-3.9288,-3.9288,-3.9553,-4.0083,-4.0083,-4.0348,-4.0812,-4.0812,-4.0812,-4.0713,-3.9686,-3.9288,-3.9288,-3.9288,-3.962,-4.015,-0.7605,-0.768,-0.7854,-0.815,-0.8205,-0.8419,-0.9047,-1.094,-1.2977,-1.4854,-1.8021,-2.0903,-2.3123,-2.4414,-2.5408,-2.6137,-2.6203,-2.6071,-2.5773,-2.4149,-2.3321,-2.3619,-2.6007,-2.7599,-2.8158,-2.8438,-2.9032,-2.988,-2.9675,-2.9747,-3.0215,-2.9837,-2.9605,-2.9515,-2.9198,-2.9091,-2.9091,-2.9091,-2.8884,-2.8474,-2.8094,-2.6862,-2.5155,-2.446,-2.3449,-2.2216,-2.0793,-2.0131,-1.9783,-1.9214,0.0,0.0,0.0,0.0,0.0,0.0,0.0,0.0,0.0,0.0,0.0,0.0,0.0,0.0,0.0,0.0,0.0,0.0,0.0,0.0,0.0,0.0,0.0,0.0,-3.1393,-3.3212,-3.333,-3.4298,-3.4872,-3.4764,-3.5744,-3.6473,-3.6473,-3.7135,-3.7765,-3.8195,-3.8493,-3.8825,-3.9255,-3.9288,-3.9288,-3.9288,-3.9288,-3.9288,-3.9288,-3.9501,-3.9634,-3.9719,-3.9934,-4.0014,-4.0183,-4.0183,-4.0415,-4.0812,-4.0812,-4.1044,-4.1409,-4.1409,-4.1409,-4.1342,0.0,0.0,0.0,0.0,-4.0448,-4.0878,-0.7605,-0.7662,-0.7827,-0.8219,-0.8247,-0.859,-0.9697,-1.1712,-1.387,-1.61,-1.8882,-2.1532,-2.3752,-2.4679,-2.5408,-2.6137,-2.6203,-2.5905,-2.5143,-2.5276,-2.5607,-2.6203,-2.7065,-2.8125,-2.9383,-2.9443,-2.9806,-3.051,-3.0258,-3.0044,-2.9837,-2.9605,-2.938,-2.9106,-2.9137,-2.9091,-2.9091,-2.9091,-2.9091,-2.9091,-2.9091,-2.8347,-2.7146,-2.6483,-2.6198,-2.5977,-2.4713,-2.3891,-2.3164,-2.2027,0.0,0.0,0.0,0.0,0.0,0.0,0.0,0.0,0.0,0.0,0.0,0.0,0.0,0.0,0.0,0.0,0.0,0.0,0.0,0.0,0.0,0.0,0.0,0.0,-3.348,-3.4672,-3.6357,-3.6673,-3.6563,-3.6191,-3.6771,-3.7235,-3.7235,-3.7897,-3.8328,-3.8328,-3.8924,-3.9288,-3.9288,-3.9288,0.0,0.0,0.0,-3.9322,-3.9388,-3.9759,-4.0127,-4.0514,-4.0829,-4.1109,-4.1409,-4.1409,-4.1475,-4.1541,-4.1541,-4.1574,-4.1674,-4.1674,-4.1674,-4.164,-4.1475,-4.1409,-4.1442,-4.1508,-4.1541,-4.1541,-0.7691,-0.8041,-0.8471,-0.8725,-0.8789,-0.9142,-1.0113,-1.2223,-1.4329,-1.6022,-1.8856,-2.1532,-2.3752,-2.4679,-2.5408,-2.6137,-2.6203,-2.5905,-2.5143,-2.6203,-2.6667,-2.6236,-2.7992,-2.9118,-2.9417,-2.9848,-3.0168,-3.051,-3.0087,-2.9957,-3.0087,-2.9694,-2.947,-2.9425,-2.9229,-2.9091,-2.9091,-2.9091,-2.9091,-2.9091,-2.9091,-2.8632,-2.7873,-2.7747,-2.7367,-2.6862,-2.6577,-2.6419,-2.6325,-2.6577,-2.5471,-2.3992,-2.3872,-2.2296,0.0,0.0,0.0,0.0,0.0,0.0,0.0,0.0,0.0,0.0,0.0,0.0,0.0,0.0,0.0,0.0,0.0,0.0,0.0,-3.2782,-3.4645,-3.6195,-3.6887,-3.7502,-3.7668,-3.697,-3.7566,-3.7996,-3.7996,-3.8659,-3.9056,-3.9056,-3.9189,-3.9288,-3.9288,-3.9288,-3.9288,-3.9288,-3.9288,-3.9553,-4.015,-4.0259,-4.0624,-4.121,-4.1266,0.0,-4.1409,-4.1409,-4.174,-4.2303,-4.2303,-4.2634,-4.3197,-4.3197,-4.3197,-4.3065,-4.1872,-4.1409,-4.1475,-4.2104,-4.2303,-4.2402,-0.7736,-0.8418,-0.9145,-0.9319,-0.9438,-0.9833,-1.0756,-1.2562,-1.4518,-1.6492,-1.9009,-2.1341,-2.3255,-2.3785,-2.4149,-2.4514,-2.4547,-2.4713,-2.5077,-2.6137,-2.6899,-2.7263,-2.8537,-2.9461,-2.9947,-3.0136,-3.0248,-3.0342,-3.013,-2.9957,-2.9826,-2.9605,-2.9425,-2.9289,-2.9183,-2.9091,-2.9091,-2.9091,-2.9091,-2.9091,-2.9091,-2.8916,-2.86,-2.86,-2.841,-2.8063,-2.7715,-2.7589,-2.7589,-2.7589,-2.6978,-2.6149,-2.5918,-2.4612,-2.2919,0.0,0.0,0.0,0.0,0.0,0.0,0.0,0.0,0.0,0.0,0.0,0.0,0.0,0.0,-2.8833,-2.9691,0.0,-3.3728,-3.4622,-3.588,-3.697,-3.7566,-3.7996,-3.8063,-3.7698,-3.8295,-3.8758,-3.8758,-3.9056,-3.9288,-3.9288,-3.9288,-3.9288,-3.9288,-3.962,-3.9818,-3.9818,-4.0183,-4.0514,-4.0912,-4.11,-4.1466,-4.1972,-4.2166,-4.2309,-4.2535,-4.2535,-4.2734,-4.3065,-4.3065,-4.3495,-4.4191,-4.4556,-4.4721,-4.4622,-4.3893,-4.3396,-4.3131,-4.3893,-4.4158,-4.4191,-0.7909,-0.8854,-0.9753,-0.9772,-1.0007,-1.0504,-1.1374,-1.2752,-1.4498,-1.675,-1.8673,-2.05,-2.2233,-2.233,-2.233,-2.2659,-2.2824,-2.352,-2.5011,-2.5938,-2.6998,-2.8323,-2.8893,-2.9576,-3.0468,-3.0342,-3.0248,-3.0205,-3.0162,-2.9913,-2.9515,-2.9425,-2.9289,-2.9091,-2.9091,-2.9091,-2.9091,-2.9091,-2.9091,-2.9091,-2.9091,-2.9091,-2.9091,-2.9091,-2.9091,-2.8996,-2.8505,-2.8284,-2.8221,-2.7683,-2.7497,-2.7486,-2.7074,-2.6398,-2.5502,-2.4081,-2.3424,0.0,0.0,0.0,0.0,0.0,0.0,0.0,0.0,-2.6327,-2.7465,-2.9008,-3.0443,-3.1764,-3.2997,-3.4134,-3.5316,-3.6625,-3.7103,-3.7566,-3.8328,-3.8427,-3.8427,-3.8427,-3.8924,-3.9288,-3.9288,-3.9288,-3.9288,-3.9288,-3.9288,-3.9322,-3.9487,-4.005,-4.0448,-4.058,-4.111,-4.1475,-4.164,-4.1944,-4.2311,-4.2734,-4.3046,-4.3447,-4.3827,-4.3827,-4.3926,-4.4059,-4.4059,-4.4357,-4.4953,-4.5549,-4.5781,-4.5814,-4.5947,-4.5649,-4.5185,-4.5616,-4.5781,-4.5781,-0.8493,-0.9522,-1.0247,-0.9705,-1.0324,-1.1119,-1.1841,-1.2926,-1.4272,-1.5839,-1.6897,-1.83,-2.0533,-2.0205,-2.0365,-2.1797,-2.2526,-2.352,-2.5011,-2.6402,-2.7566,-2.8357,-2.9013,-2.9707,-3.051,-3.0468,-3.0384,-3.0205,-2.9957,-2.9738,-2.947,-2.9275,-2.9137,-2.9091,-2.9091,-2.9091,-2.9091,-2.9091,-2.9091,-2.9091,-2.9091,-2.9091,-2.9091,-2.9091,-2.9091,-2.9059,-2.9042,-2.9011,-2.9011,-2.887,-2.8505,-2.8056,-2.8147,-2.7879,-2.73,-2.6727,-2.6155,-2.5438,-2.3951,-2.3156,-2.3212,-2.4978,-2.5902,-2.7335,0.0,-3.1268,-3.1031,-3.2724,-3.4016,-3.4914,-3.5071,-3.6283,-3.7382,-3.79,-3.803,-3.8328,-3.9056,-3.9156,-3.9156,-3.9156,-3.9222,-3.9288,-3.9288,-3.9288,-3.9288,-3.9288,-3.9288,-3.9553,-4.0216,-4.0348,-4.0647,-4.1276,-4.1375,-4.174,-4.2402,-4.246,-4.2767,-4.3495,-4.3495,-4.392,-4.4556,-4.4556,-4.492,-4.5549,-4.5549,-4.5582,-4.5682,-4.5748,-4.5781,-4.5847,-4.651,-4.6709,-4.6576,-4.6013,-4.5781,-4.5781,-0.8012,-0.9086,-0.9899,-0.9657,-1.0614,-1.1523,-1.193,-1.2884,-1.3929,-1.5085,-1.6045,-1.7109,-1.8496,-1.8054,-1.8244,-1.9695,-2.0908,-2.2427,-2.4348,-2.5733,-2.6854,-2.7694,-2.8188,-2.8878,-2.9847,-3.0186,-3.0258,-3.0205,-3.0087,-2.987,-2.9515,-2.938,-2.9275,-2.9091,-2.9091,-2.9091,-2.9091,-2.9091,-2.9091,-2.9091,-2.9091,-2.9091,-2.9091,-2.9091,-2.9091,-2.9028,-2.8663,-2.8537,0.0,-2.864,-2.8626,-2.8533,-2.8757,-2.8103,-2.7277,-2.7212,-2.6323,-2.5565,-2.6333,-2.6005,-2.5878,-2.7737,-2.8986,-3.0306,-3.2329,-3.2622,-3.3148,-3.5215,-3.6014,-3.6457,-3.6619,-3.7595,-3.8254,-3.8214,-3.856,-3.8924,-3.9222,-3.9288,-3.9288,-3.9288,-3.9288,-3.9288,-3.9288,-3.9288,-3.9454,-3.9885,-3.9918,-4.0216,-4.0945,-4.1409,-4.174,-4.2038,-4.2469,-4.2866,-4.3164,-4.3562,-4.3926,-4.4257,-4.4688,-4.5052,-4.5317,-4.5317,-4.5483,-4.5814,-4.6245,-4.6444,-4.6477,-4.6908,-4.7073,-4.7106,-4.7404,-4.7537,-4.7504,-4.7206,-4.7073,-4.7073,-0.7605,-0.868,-0.9598,-0.9598,-1.0749,-1.1755,-1.197,-1.2623,-1.342,-1.4313,-1.5014,-1.57,-1.6259,-1.6,-1.6342,-1.7724,-1.922,-2.1102,-2.3553,-2.4939,-2.6158,-2.723,-2.7492,-2.8141,-2.9343,-2.9782,-3.0018,-3.0205,-3.0205,-2.9957,-2.9605,-2.9605,-2.9425,-2.9198,-2.9198,-2.9183,-2.9091,-2.9091,-2.9091,-2.9091,-2.9091,-2.9091,-2.9106,-2.8962,-2.8772,-2.846,-2.8,-2.781,-2.7759,-2.737,-2.7474,-2.7809,-2.7858,-2.7355,-2.6803,-2.7425,-2.6759,-2.6158,-2.7694,-2.7959,-2.8301,-3.004,-3.1556,-3.2749,-3.3325,-3.3938,-3.4839,-3.6514,-3.7148,-3.7516,-3.7718,-3.8422,-3.8823,-3.8546,-3.8924,-3.9288,-3.9288,-3.9288,-3.9288,-3.9288,-3.9288,-3.9355,-3.9553,-3.9587,-3.9785,-4.0348,-4.0547,-4.0978,-4.1674,-4.2237,-4.2601,-4.2833,-4.3529,-4.3926,-4.3926,-4.4622,-4.4986,-4.4986,-4.5516,-4.5914,-4.6113,-4.6311,-4.6411,-4.6444,-4.6974,-4.7206,-4.7239,-4.7769,-4.8001,-4.8034,-4.8233,-4.8299,-4.8332,-4.8531,-4.8365,-4.8034,-0.7605,-0.868,-0.9598,-0.9598,-1.0645,-1.1623,-1.1949,-1.2138,-1.2552,-1.3431,-1.3579,-1.3643,-1.3863,-1.414,-1.4874,-1.6321,-1.7756,-1.981,-2.2725,-2.4315,-2.5773,-2.7234,-2.7296,-2.7959,-2.9383,-2.945,-2.9692,-3.0205,-3.0205,-3.0044,-2.9793,-2.9793,-2.9694,-2.947,-2.947,-2.9335,-2.9091,-2.9091,-2.9091,-2.9091,-2.9091,-2.9091,-2.9042,-2.8602,-2.7922,-2.7178,-2.7146,-2.7146,-2.6799,-2.49,-2.4722,-2.5246,-2.4948,-2.5285,-2.6176,-2.7888,-2.8323,-2.8125,-2.7533,-2.829,-2.9795,-3.1631,-3.3195,-3.452,-3.5547,-3.6118,-3.6417,-3.6485,-3.7402,-3.8162,-3.8162,-3.8758,-3.9309,-3.9255,-3.9309,-3.9288,-3.9288,-3.9288,-3.9288,-3.9288,-3.9288,-3.9553,-4.0282,-4.0348,-4.0348,-4.0382,-4.1011,-4.1707,-4.2435,-4.2502,-4.2866,-4.3562,-4.4291,-4.4655,-4.4655,-4.5384,-4.5748,-4.5748,-4.5781,-4.6179,-4.6874,-4.7603,-4.7934,-4.7934,-4.7968,-4.7968,-4.7968,-4.8001,-4.8001,-4.8067,-4.8796,-4.9094,-4.916,-4.9889,-4.9226,-4.81,-0.8186,-0.8988,-0.9744,-1.0131,-1.0936,-1.1578,-1.1768,-1.1982,-1.2303,-1.2717,-1.2959,0.0,0.0,0.0,0.0,0.0,-1.75,-1.9048,-2.1963,-2.3456,-2.4643,-2.5806,-2.6656,-2.7382,-2.7992,-2.8489,-2.9046,-2.9659,-2.9659,-2.9798,-3.0044,-3.0044,-2.9957,-2.9694,-2.9694,-2.9617,-2.9528,-2.9528,-2.9515,-2.938,-2.938,-2.8989,-2.8474,-2.874,-2.791,-2.6427,0.0,-2.5155,-2.5105,-2.4705,-2.4749,-2.5013,-2.5527,-2.517,-2.471,-2.5307,-2.6501,-2.7931,-2.9085,-3.0145,-3.1338,-3.3473,-3.4705,-3.5552,-3.588,-3.6467,-3.7036,-3.7536,-3.7736,-3.7953,-3.8181,-3.8602,-3.889,-3.8612,-3.8957,-3.9288,-3.9288,-3.9288,-3.9288,-3.9288,-3.9719,-4.0117,-4.0348,-4.0382,-4.0779,-4.174,-4.2005,-4.2469,-4.3197,-4.3264,-4.3595,-4.4291,-4.4556,-4.492,-4.5417,-4.6146,-4.651,-4.6543,-4.704,-4.7404,-4.7636,-4.7901,-4.8001,-4.8001,-4.8001,-4.8299,-4.873,-4.873,-4.9028,-4.9491,-4.9756,-4.9856,-4.9856,-5.0121,-4.9889,-4.9525,0.0,-0.8929,-0.9453,-1.0073,-1.0712,0.0,0.0,0.0,0.0,0.0,0.0,0.0,0.0,0.0,0.0,0.0,0.0,-1.822,-2.0837,-2.2038,-2.3127,-2.4282,-2.5106,-2.5865,-2.6501,-2.67,-2.7429,-2.8655,-2.8655,-2.894,-2.9543,-2.9543,-2.9419,-2.9176,-2.9176,-2.9134,-2.9081,-2.9081,-2.9371,-2.979,-2.8766,-2.8455,-2.8468,-2.7763,-2.6541,0.0,-2.4051,-2.3506,-2.3215,-2.2932,-2.2998,-2.3259,-2.4017,-2.4315,-2.4448,-2.4713,-2.6336,-2.8555,-3.1007,-3.2034,-3.2928,-3.5148,-3.6042,-3.6456,-3.657,-3.707,-3.7683,-3.8302,-3.7903,-3.7603,-3.8114,-3.8202,-3.817,-3.8214,-3.9023,-3.9587,-3.9375,-3.9541,-3.9653,-3.9653,-4.0083,-4.058,-4.111,-4.1143,-4.1541,-4.2435,-4.2767,-4.3131,-4.3595,-4.3628,-4.3959,-4.4655,-4.4953,-4.545,-4.6179,-4.6908,-4.7305,-4.7305,-4.7769,-4.8133,-4.8398,-4.8398,-4.8531,-4.8796,-4.8796,-4.9061,-4.9491,-4.9491,-4.979,-5.0253,-5.0485,-5.0585,-5.0618,-5.0883,-5.0982,-5.0949,0.0,0.0,-0.8813,0.0,0.0,0.0,0.0,0.0,0.0,0.0,0.0,0.0,0.0,0.0,0.0,0.0,0.0,0.0,-1.9353,-2.0174,-2.1234,-2.2659,-2.2824,-2.3553,-2.4978,-2.4348,-2.5044,-2.7201,-2.7201,-2.7566,-2.8296,-2.8296,-2.818,-2.7912,-2.7912,-2.7793,-2.7615,-2.7615,-2.8651,-3.0032,-2.7358,-2.7412,-2.8818,-2.5722,-2.4058,-2.3317,-2.2996,-2.2302,-2.1357,-1.9979,-1.9902,-2.0462,-2.0916,-2.2957,-2.5375,-2.6137,-2.786,-3.0145,-3.3027,-3.3856,-3.4419,-3.6572,-3.7135,-3.7269,-3.7633,-3.8003,-3.8332,-3.864,-3.7803,-3.7201,-3.7798,-3.7433,-3.7235,-3.793,-3.9322,-4.0083,-3.9441,-3.9918,-4.0382,-4.0382,-4.0448,-4.1011,-4.2369,-4.2535,-4.2568,-4.2568,-4.323,-4.3628,-4.3628,-4.3661,-4.3992,-4.4721,-4.545,-4.6212,-4.6941,-4.7636,-4.8001,-4.8001,-4.8001,-4.8398,-4.9094,-4.9094,-4.9525,-5.022,-5.022,-5.022,-5.0286,-5.0286,-5.0286,-5.0386,-5.1082,-5.1347,-5.1413,-5.2108,-5.2373,-5.2274,0.0,0.0,0.0,0.0,0.0,0.0,0.0,0.0,0.0,0.0,0.0,0.0,0.0,0.0,0.0,0.0,0.0,0.0,-1.7922,-1.8684,-1.9479,-2.0378,-2.2029,-2.3089,-2.3454,-2.3818,-2.4547,-2.5673,-2.5673,-2.6038,-2.6766,-2.6766,-2.673,-2.6693,-2.6693,-2.6656,-2.6582,-2.6582,-2.6727,-2.6958,-2.6211,-2.5843,-2.5657,-2.5341,-2.4223,-2.2802,-2.2736,-2.1911,-2.0945,-2.111,-2.2005,-2.3357,-2.5077,-2.6139,-2.6965,-2.8224,-2.9781,-3.147,-3.3292,-3.4584,-3.5711,-3.6837,-3.7533,-3.793,-3.8085,-3.8598,-3.8745,-3.7752,-3.639,-3.5181,-3.4253,-3.4849,-3.5512,-3.5711,-3.7897,-3.9487,-3.9288,-3.9918,-4.0382,-4.0382,-4.1342,-4.2137,-4.2502,-4.3032,-4.333,-4.333,-4.3529,-4.3628,-4.3628,-4.4125,-4.4754,-4.5483,-4.6212,-4.6974,-4.7703,-4.7901,-4.8001,-4.8001,-4.8001,-4.8398,-4.9094,-4.9094,-4.9525,-5.022,-5.022,-5.0518,-5.1015,-5.1015,-5.1313,-5.1843,-5.2042,-5.2108,-5.2108,-5.2307,-5.2373,-5.234,0.0,0.0,0.0,0.0,0.0,0.0,0.0,0.0,0.0,0.0,0.0,0.0,0.0,0.0,0.0,0.0,0.0,0.0,0.0,-1.7557,-1.8054,-1.9055,-2.0307,-2.1135,-2.1466,-2.1566,-2.2261,-2.3653,-2.3321,-2.3719,-2.4746,-2.4414,-2.4282,-2.4282,-2.4613,-2.4746,-2.4779,-2.511,-2.5631,0.0,0.0,-2.417,-2.4389,-2.3254,-2.2182,-2.1322,-2.165,-2.1939,-2.2294,-2.3354,-2.4481,-2.564,-2.6792,-2.7656,-2.8489,-2.9947,-3.1437,-3.2961,-3.475,-3.6108,-3.7135,-3.7864,-3.8361,-3.8479,-3.7686,-3.7685,-3.7285,-3.5352,-3.3894,-3.2729,-3.1901,-3.3193,-3.4518,-3.4849,-3.7632,-3.9752,-3.9752,-4.0382,-4.0945,-4.1276,-4.2038,-4.2634,-4.2965,-4.3396,-4.3628,-4.3628,-4.3628,-4.3761,-4.4092,-4.4489,-4.5185,-4.6245,-4.6676,-4.7239,-4.8001,-4.8001,-4.8001,-4.8001,-4.8332,-4.8862,-4.9591,-4.9922,-5.0452,-5.1181,-5.1181,-5.138,-5.1744,-5.1744,-5.2009,-5.2373,-5.2373,-5.2373,-5.2373,-5.2373,-5.2373,-5.2373,0.0,0.0,0.0,0.0,0.0,0.0,0.0,0.0,0.0,0.0,0.0,-1.4995,-1.5671,-1.6645,0.0,0.0,0.0,0.0,0.0,0.0,-1.6928,-1.8187,-1.8393,-1.879,-1.9452,-1.8923,-1.9611,-2.1499,-2.087,-2.1201,-2.246,-2.1797,-2.1499,-2.1532,-2.2162,-2.2526,-2.2659,-2.3288,-2.4577,-2.5873,-2.2736,-2.2539,-2.3715,0.0,-1.9503,-1.9684,-2.0439,-2.2096,-2.4216,-2.5706,-2.68,-2.7595,-2.774,-2.8768,-3.0278,-3.1636,-3.2961,-3.4419,-3.6539,-3.7566,-3.8261,-3.9056,-3.9288,-3.8797,-3.6961,-3.62,-3.5077,-3.237,-3.089,-3.0046,-2.998,-3.1802,-3.3624,-3.4452,-3.7765,-4.0282,-4.0382,-4.1077,-4.1806,-4.2435,-4.2601,-4.2932,-4.3562,-4.3628,-4.3661,-4.3761,-4.3761,-4.4026,-4.4655,-4.4887,-4.5616,-4.7007,-4.704,-4.7338,-4.8001,-4.8001,-4.8001,-4.8001,-4.8763,-4.9491,-5.0253,-5.0949,-5.1678,-5.2373,-5.2373,-5.2373,-5.2373,-5.2373,-5.2373,-5.2373,-5.2373,-5.2373,-5.2373,-5.2373,-5.2373,-5.2373,0.0,0.0,0.0,0.0,0.0,0.0,0.0,0.0,0.0,0.0,-1.4763,-1.4927,0.0,0.0,0.0,0.0,0.0,0.0,0.0,0.0,0.0,-1.6752,-1.7888,-1.8559,-1.8691,-1.9154,-1.9584,-1.9981,-1.9849,-1.9915,-2.018,-2.0014,-1.9981,-1.9981,-2.0114,-2.0505,-2.1069,-2.1201,-2.1801,-2.2564,-2.1338,-2.1073,-2.1242,-2.002,0.0,0.0,-2.0439,-2.2096,-2.4216,-2.5706,-2.7462,-2.935,-3.113,-3.2332,-3.3193,-3.4054,-3.4518,-3.5048,-3.6671,-3.7201,-3.7599,-3.8924,-3.9288,-3.8745,-3.6605,-3.556,-3.4087,-3.0593,-2.8793,-2.7661,-2.7065,-2.9218,-3.1504,-3.2862,-3.6671,-3.9686,-4.0282,-4.1508,-4.2369,-4.2502,-4.3065,-4.3495,-4.3628,-4.3628,-4.386,-4.4456,-4.4489,-4.4556,-4.4688,-4.5847,-4.6908,-4.7769,-4.7802,-4.7868,-4.8001,-4.8001,-4.8001,-4.8001,-4.8763,-4.9491,-5.0253,-5.0949,-5.1678,-5.2373,-5.2373,-5.2373,-5.2373,-5.2373,-5.2373,-5.2373,-5.2373,-5.2373,-5.2373,-5.2373,-5.2373,-5.2373,0.0,0.0,0.0,0.0,0.0,0.0,0.0,-1.4689,-1.5763,-1.7098,-1.7111,-1.6781,-1.6233,-1.6328,-1.6617,0.0,0.0,0.0,0.0,0.0,0.0,-1.6951,-1.7623,-1.7988,-1.7988,-1.8319,-1.8684,-1.9022,0.0,-1.8684,-1.9022,-1.8684,-1.8518,-1.8518,-1.8856,-1.922,-1.9578,-1.9975,-2.034,-2.0605,-1.9843,-1.9545,-1.9479,-1.8783,0.0,0.0,-2.0009,-2.1797,-2.4116,-2.4812,-2.6998,-2.9781,-3.2,-3.3458,-3.4419,-3.4783,-3.5181,-3.5711,-3.6804,-3.74,-3.793,-3.9023,-3.9288,-3.8394,-3.5048,-3.3723,-3.1934,-2.7495,-2.6038,-2.5475,-2.511,-2.7727,-3.041,-3.1901,-3.5843,-3.9123,-4.0216,-4.1607,-4.2667,-4.3065,-4.3396,-4.3628,-4.3628,-4.3959,-4.4324,-4.4655,-4.5384,-4.5847,-4.5847,-4.6874,-4.7636,-4.8001,-4.8001,-4.8001,-4.8001,-4.8001,-4.8001,-4.8001,-4.916,-4.9856,-5.0253,-5.1347,-5.2042,-5.2373,-5.2373,-5.2373,-5.2373,-5.2373,-5.2373,-5.2373,-5.2373,-5.2373,-5.2373,-5.2373,-5.2373,-5.2373,0.0,0.0,0.0,0.0,0.0,0.0,0.0,-1.6169,-1.7475,-1.9275,-1.9508,-1.8921,-1.7439,-1.6818,-1.658,0.0,0.0,0.0,0.0,0.0,0.0,0.0,0.0,0.0,-1.7515,0.0,0.0,-1.8286,-1.7756,0.0,0.0,0.0,0.0,0.0,-1.8153,-1.8393,-1.8352,-1.9055,-1.9452,0.0,0.0,-1.8493,-1.8426,0.0,0.0,0.0,0.0,-2.1201,-2.3354,-2.3851,-2.6104,-2.9085,-3.1106,-3.3094,-3.4651,-3.4651,-3.5181,-3.5976,-3.687,-3.7533,-3.8195,-3.9056,-3.9156,-3.793,-3.3657,-3.1868,-2.9781,-2.4978,-2.3752,-2.3619,-2.3951,-2.6601,-2.935,-3.1262,-3.5081,-3.8361,-4.0117,-4.1607,-4.28,-4.3529,-4.3628,-4.3628,-4.3628,-4.4257,-4.4754,-4.492,-4.6311,-4.7139,-4.7139,-4.7703,-4.8001,-4.8001,-4.8001,-4.8001,-4.8001,-4.8001,-4.8067,-4.8266,-4.9591,-5.0286,-5.0485,-5.1777,-5.2373,-5.2373,-5.2373,-5.2373,-5.2373,-5.2373,-5.2373,-5.2373,-5.2373,-5.2373,-5.2373,-5.2373,-5.2373,-5.2373,0.0,0.0,0.0,0.0,0.0,0.0,0.0,-1.733,-1.9304,-2.064,-2.0814,-2.032,-1.9022,-1.8085,-1.7243,0.0,0.0,0.0,0.0,0.0,0.0,0.0,0.0,0.0,0.0,0.0,0.0,-1.7614,-1.7548,0.0,0.0,0.0,0.0,0.0,0.0,-1.8153,-1.7623,-1.8294,0.0,0.0,0.0,0.0,0.0,0.0,0.0,0.0,0.0,-2.0207,-2.1301,-2.3321,-2.511,-2.6766,-2.829,-3.1139,-3.3889,-3.3889,-3.4419,-3.5313,-3.6738,-3.7168,-3.7533,-3.8924,-3.8791,-3.7334,-3.3557,-3.1106,-2.8555,-2.4779,-2.2924,-2.2394,-2.3752,-2.5375,-2.7628,-3.1031,-3.4187,-3.7168,-3.9984,-4.1607,-4.28,-4.3529,-4.3628,-4.3628,-4.3628,-4.4257,-4.4953,-4.5649,-4.7073,-4.7901,-4.7901,-4.7968,-4.8001,-4.8001,-4.8001,-4.8001,-4.8001,-4.8001,-4.8332,-4.9028,-4.9823,-5.0551,-5.1214,-5.2009,-5.2373,-5.2373,-5.2373,-5.2373,-5.2373,-5.2373,-5.2373,-5.2373,-5.2373,-5.2373,-5.2373,-5.2373,-5.2373,-5.2373,0.0,0.0,0.0,0.0,0.0,0.0,-1.5589,-1.7388,-1.9304,-2.1336,-2.1598,-2.1249,-2.0349,-1.925,-1.7848,-1.6205,0.0,0.0,0.0,0.0,0.0,0.0,0.0,0.0,0.0,0.0,-1.7888,-1.7515,-1.7888,0.0,0.0,0.0,0.0,0.0,0.0,-1.8327,-1.8063,-1.7748,0.0,0.0,0.0,0.0,0.0,0.0,0.0,0.0,0.0,0.0,-2.0903,-2.2228,-2.3653,-2.4978,-2.5574,-2.7959,-3.0874,-3.263,-3.3657,-3.4651,-3.6572,-3.7102,-3.7367,-3.8394,-3.8096,-3.6572,-3.2895,-3.0344,-2.7893,-2.4646,-2.2824,-2.2228,-2.3719,-2.4845,-2.6733,-3.0377,-3.3061,-3.5545,-3.8063,-4.005,-4.1508,-4.2204,-4.27,-4.3131,-4.3595,-4.4257,-4.5185,-4.6378,-4.7404,-4.8001,-4.8001,-4.8001,-4.8001,-4.8001,-4.8001,-4.8001,-4.8001,-4.8001,-4.8365,-4.9127,-4.9856,-5.0585,-5.1313,-5.2042,-5.2373,-5.2373,-5.2373,-5.2373,-5.2373,-5.2373,-5.2373,-5.2373,-5.2373,-5.2373,-5.2373,-5.2373,-5.2373,-5.2373,0.0,0.0,0.0,0.0,0.0,-1.4107,-1.6169,-1.7621,-1.9246,-2.1423,-2.1685,-2.1452,-2.0814,-1.942,-1.7934,-1.6458,-1.5883,0.0,0.0,0.0,0.0,0.0,0.0,0.0,0.0,0.0,-1.8353,-1.7963,-1.8431,-1.8746,0.0,0.0,-1.9214,-1.9287,0.0,0.0,0.0,0.0,0.0,0.0,0.0,0.0,0.0,0.0,0.0,0.0,0.0,0.0,0.0,0.0,0.0,-2.3686,-2.3686,-2.5408,-2.7992,-3.0874,-3.2564,-3.3889,-3.5909,-3.6605,-3.697,-3.7698,-3.7168,-3.5545,-3.21,-2.9615,-2.7267,-2.4282,-2.2659,-2.2228,-2.3719,-2.4613,-2.6236,-2.9648,-3.2034,-3.4319,-3.6771,-3.8791,-4.0382,-4.1309,-4.1872,-4.2469,-4.323,-4.4357,-4.5616,-4.7106,-4.7703,-4.8001,-4.8001,-4.8001,-4.8001,-4.8001,-4.8001,-4.8001,-4.8001,-4.8001,-4.8498,-4.9425,-4.9955,-5.0684,-5.1612,-5.2142,-5.2373,-5.2373,-5.2373,-5.2373,-5.2373,-5.2373,-5.2373,-5.2373,-5.2373,-5.2373,-5.2373,-5.2373,-5.2373,-5.2373,0.0,0.0,0.0,0.0,0.0,0.0,-1.6808,-1.8288,-1.9566,-2.0843,-2.1017,-2.0785,-2.0175,-1.8375,-1.7248,-1.7286,-1.589,0.0,0.0,0.0,0.0,0.0,0.0,0.0,0.0,0.0,-1.8765,-1.9083,-1.9083,-1.9251,-1.9584,-2.034,-1.9909,-1.8559,0.0,0.0,0.0,0.0,0.0,0.0,0.0,0.0,0.0,0.0,0.0,0.0,0.0,0.0,0.0,0.0,0.0,0.0,0.0,-2.3918,-2.5706,-2.8588,-3.0974,-3.3027,-3.4518,-3.5446,-3.6208,-3.6936,-3.6009,-3.4154,-3.1205,-2.8853,-2.6471,-2.352,-2.2327,-2.2228,-2.3719,-2.4613,-2.6071,-2.8953,-3.1272,-3.3723,-3.6704,-3.8361,-3.9818,-4.1243,-4.1409,-4.1707,-4.2469,-4.4489,-4.6378,-4.7868,-4.8001,-4.8001,-4.8001,-4.8001,-4.8001,-4.8001,-4.8001,-4.8001,-4.8001,-4.8001,-4.8763,-5.0187,-5.022,-5.0982,-5.2373,-5.2373,-5.2373,-5.2373,-5.2373,-5.2373,-5.2373,-5.2373,-5.2373,-5.2373,-5.2373,-5.2373,-5.2373,-5.2373,-5.2373,-5.2373,0.0,0.0,0.0,0.0,0.0,0.0,0.0,-1.6982,-1.8259,-1.9537,-1.9711,-1.9798,-2.0059,-1.8375,-1.7011,-1.6608,-1.5389,0.0,0.0,0.0,0.0,0.0,0.0,0.0,0.0,-1.7729,-1.8708,-1.8736,-1.9273,-1.9556,-1.9677,-2.014,-2.001,-1.9386,-1.9467,-1.876,0.0,0.0,0.0,0.0,0.0,0.0,0.0,0.0,0.0,0.0,0.0,0.0,0.0,0.0,0.0,0.0,0.0,0.0,0.0,-2.5309,-2.7959,-3.0775,-3.2266,-3.3193,-3.3657,-3.3425,-3.263,-3.1404,-2.9483,-2.7363,-2.5375,-2.3951,-2.2659,-2.2228,-2.3719,-2.4183,-2.564,-2.9549,-3.1172,-3.2994,-3.5943,-3.803,0.0,-4.058,-4.2005,-4.3032,-4.3264,-4.4787,-4.598,-4.6444,-4.7438,-4.8001,-4.8001,-4.8001,-4.8001,-4.8001,-4.8001,-4.8001,-4.8001,-4.8498,-4.926,-5.022,-5.0717,-5.1446,-5.2373,-5.2373,-5.2373,-5.2373,-5.2373,-5.2373,-5.2373,-5.2373,-5.2373,-5.2373,-5.2373,-5.2373,-5.2373,-5.2373,-5.2373,-5.2373,0.0,0.0,0.0,0.0,0.0,0.0,0.0,-1.6314,-1.7214,-1.8259,-1.8172,-1.8259,-1.8927,-1.7272,-1.6053,-1.5879,-1.4514,0.0,0.0,0.0,0.0,0.0,0.0,0.0,-1.6075,-1.7788,-1.8998,-1.9559,-2.0309,-2.0563,-2.0477,-2.0926,-2.0799,-2.0162,-1.9494,-1.8736,0.0,0.0,0.0,0.0,0.0,0.0,-1.6722,0.0,0.0,0.0,0.0,0.0,0.0,0.0,0.0,0.0,0.0,0.0,0.0,0.0,-2.5375,-2.7827,-2.9847,-3.1106,-3.1769,-3.1305,-3.0642,-2.9648,-2.7959,-2.6303,-2.4746,-2.3421,-2.2659,-2.2559,-2.3785,-2.4448,-2.5806,-2.882,-3.0609,-3.2564,-3.5214,-3.7466,0.0,-4.0613,-4.2204,-4.333,-4.3595,-4.492,-4.5914,-4.6179,-4.7305,-4.8001,-4.8001,-4.8001,-4.8001,-4.8001,-4.8001,-4.8001,-4.8001,-4.8465,-4.9193,-5.022,-5.0651,-5.1413,-5.2373,-5.2373,-5.2373,-5.2373,-5.2373,-5.2373,0.0,-5.2373,-5.2373,-5.2373,-5.2373,-5.2373,-5.2373,-5.2373,-5.2373,-5.2373,0.0,0.0,0.0,0.0,0.0,0.0,0.0,-1.6169,-1.643,-1.704,-1.6547,-1.6372,-1.7011,-1.5385,-1.4485,-1.5066,0.0,0.0,0.0,0.0,0.0,0.0,0.0,0.0,-1.7059,-1.8082,-1.9446,-2.1075,-2.1804,-2.2022,-2.1729,-2.2451,-2.211,-2.0726,-1.971,-1.8838,-1.7976,0.0,0.0,0.0,-1.5408,-1.5633,0.0,0.0,0.0,0.0,0.0,0.0,0.0,0.0,0.0,0.0,0.0,0.0,0.0,0.0,0.0,0.0,0.0,-2.9052,-3.0112,-3.0079,-2.9549,-2.8489,-2.6501,-2.5475,0.0,-2.2294,-2.2361,-2.3089,-2.3984,-2.5209,-2.6402,-2.7466,-2.9914,-3.2497,-3.475,-3.7069,0.0,-4.1409,-4.2204,-4.2899,-4.3628,-4.4986,-4.6079,-4.6775,-4.7537,-4.8001,-4.8001,-4.8001,-4.8001,-4.8001,-4.8001,-4.8001,-4.8001,-4.81,-4.8862,-5.022,-5.032,-5.1082,-5.2373,-5.2373,-5.2373,-5.2373,-5.2373,-5.2373,-5.2373,-5.2373,-5.2373,-5.2373,-5.2373,-5.2373,-5.2373,-5.2373,-5.2373,-5.2373,0.0,0.0,0.0,0.0,0.0,0.0,0.0,0.0,0.0,0.0,-1.5908,-1.5589,-1.5734,-1.4456,-1.3496,0.0,0.0,0.0,0.0,0.0,0.0,0.0,0.0,0.0,-1.6758,-1.7535,-1.8616,-2.0044,-2.125,-2.1801,-2.1728,-2.3161,-2.2731,-2.0697,-2.0181,-1.8617,-1.6336,-1.5797,0.0,0.0,-1.5704,-1.5902,0.0,0.0,0.0,0.0,-1.6971,-1.7668,0.0,0.0,0.0,0.0,0.0,0.0,0.0,0.0,-2.2559,-2.3321,-2.3984,0.0,-2.6236,-2.5673,-2.5408,-2.5143,0.0,-2.3951,-2.3255,-2.2758,-2.2327,-2.2791,-2.5243,-2.5044,-2.5872,-2.9947,-3.1636,-3.3392,-3.6208,-3.9421,0.0,-4.3727,-4.3595,-4.3661,-4.4357,-4.5251,-4.5881,-4.6046,-4.7272,-4.8001,-4.8001,-4.8001,-4.8001,-4.8001,-4.8001,-4.8001,-4.8001,-4.9127,-4.9856,-5.022,-5.1347,-5.2042,-5.2373,-5.2373,-5.2373,-5.2373,-5.2373,-5.2373,-5.2373,-5.2373,-5.2373,-5.2373,-5.2373,-5.2373,-5.2373,-5.2373,-5.2373,-5.2373,0.0,0.0,0.0,0.0,0.0,0.0,0.0,0.0,0.0,0.0,0.0,-1.4747,-1.4456,-1.3528,0.0,0.0,0.0,0.0,0.0,0.0,0.0,0.0,0.0,-1.5328,-1.7083,-1.7503,-1.8672,-2.0617,-2.1934,-2.2562,-2.2592,-2.3492,-2.2949,-2.1096,-1.9693,-1.7999,-1.6189,-1.5589,-1.5529,-1.5769,-1.5469,0.0,0.0,0.0,0.0,0.0,-1.657,-1.7253,0.0,-1.8772,-1.9654,-2.0574,0.0,0.0,0.0,0.0,-2.1941,-2.2394,-2.2394,-2.3984,-2.5508,-2.511,-2.5011,-2.4944,-2.458,-2.3686,-2.2791,-2.246,-2.2626,-2.3388,-2.5342,-2.6137,-2.7495,-3.0609,-3.2564,-3.4949,0.0,0.0,-4.3794,-4.4589,-4.4357,-4.4125,-4.4191,-4.5152,-4.5781,-4.5781,-4.7173,-4.8001,-4.8001,-4.8001,-4.8001,-4.8001,-4.8001,-4.8001,-4.8001,-4.9127,-4.9889,-5.022,-5.1347,-5.2042,-5.2373,-5.2373,-5.2373,-5.2373,-5.2373,-5.2373,-5.2373,-5.2373,-5.2373,-5.2373,-5.2373,-5.2373,-5.2373,-5.2373,-5.2373,-5.2373,0.0,0.0,0.0,0.0,0.0,0.0,0.0,0.0,0.0,0.0,0.0,0.0,0.0,0.0,0.0,0.0,0.0,0.0,0.0,0.0,0.0,0.0,-1.486,-1.6157,-1.7555,-1.7769,-1.8996,-2.1395,-2.2981,-2.3699,-2.361,-2.4029,-2.331,-2.1575,-1.9001,-1.7413,-1.6637,-1.5441,-1.5289,-1.5739,-1.5171,0.0,0.0,0.0,0.0,0.0,0.0,0.0,0.0,-1.8327,-1.9142,-2.0058,-2.0512,0.0,0.0,0.0,0.0,0.0,-2.181,-2.3951,-2.6129,-2.5568,-2.5667,-2.57,-2.4876,-2.3753,-2.2758,-2.2228,-2.3123,-2.4381,-2.5706,-2.7827,-2.988,-3.1305,-3.3889,-3.7069,-4.0878,-4.3197,-4.4556,-4.4688,-4.4589,-4.4324,-4.3827,-4.4986,-4.5781,-4.5781,-4.7173,-4.8001,-4.8001,-4.8001,-4.8001,-4.8001,-4.8001,-4.8001,-4.7935,-4.8795,-4.9591,-5.022,-5.1048,-5.1777,-5.2373,-5.2373,-5.2373,-5.2373,-5.2373,-5.2373,-5.2302,-5.2373,-5.2373,-5.2302,-5.2373,-5.2373,-5.2302,-5.2373,-5.2373,-5.2302,0.0,0.0,0.0,0.0,0.0,0.0,0.0,0.0,0.0,0.0,0.0,0.0,0.0,0.0,0.0,0.0,0.0,0.0,0.0,0.0,0.0,-1.4165,-1.4979,-1.6095,-1.7555,-1.8149,-1.8991,-1.9989,-2.3011,-2.4178,-2.364,-2.5914,-2.5076,-2.1605,-1.948,-1.7861,-1.6667,-1.5949,-1.5709,-1.5799,-1.5679,0.0,0.0,0.0,0.0,0.0,0.0,0.0,0.0,-1.7288,-1.8152,-1.9053,-1.9719,0.0,0.0,0.0,0.0,0.0,-2.1727,-2.3971,-2.5675,-2.28,-2.3351,-2.4288,-2.3094,-2.2866,-2.3056,-2.3553,-2.3851,-2.5176,-2.8986,-2.9549,-3.0874,-3.5379,-3.803,-3.9984,-4.1243,-4.28,-4.4026,-4.4622,-4.4158,-4.3992,-4.4489,-4.5284,-4.5781,-4.5781,-4.7173,-4.8001,-4.8001,-4.8001,-4.8001,-4.8001,-4.8001,-4.7869,-4.7471,-4.9191,-5.0088,-5.022,-5.1578,-5.2274,-5.2373,-5.2373,-5.2373,-5.2373,-5.2373,-5.223,-5.1941,-5.223,-5.223,-5.1941,-5.2302,-5.2158,-5.1941,-5.2302,-5.2158,-5.1868,0.0,0.0,0.0,0.0,0.0,0.0,0.0,0.0,0.0,0.0,0.0,0.0,0.0,0.0,0.0,0.0,0.0,0.0,0.0,0.0,-1.399,-1.5269,-1.6346,-1.7441,-1.8525,-1.9199,-2.0389,-2.223,-2.4462,-2.5563,-2.5592,-2.5478,-2.3909,-2.1066,-1.9061,-1.7802,-1.7174,-1.6189,-1.5799,-1.5799,0.0,0.0,0.0,0.0,0.0,0.0,0.0,0.0,0.0,0.0,-1.7363,-1.8004,-1.89,0.0,0.0,0.0,0.0,0.0,-2.1209,-2.2933,-2.4304,-2.266,-2.4508,-2.6598,-2.5891,-2.5321,-2.5029,-2.5381,-2.5999,-2.7218,-2.9649,-3.1373,-3.3565,-3.715,-3.9224,-4.0515,-4.0901,-4.2509,-4.3614,-4.3557,-4.3616,-4.3608,-4.3604,-4.462,-4.5403,-4.5781,-4.7173,-4.8001,-4.8001,-4.8001,-4.8001,-4.8001,-4.777,-4.7571,-4.7404,-4.9017,-4.9912,-4.9912,-5.1607,-5.2302,-5.2086,-5.2086,-5.2086,-5.2086,-5.1835,-5.1762,-5.1794,-5.2013,-5.1941,-5.1868,-5.2013,-5.1941,-5.1794,-5.1762,-5.1582,-5.1434,0.0,0.0,0.0,0.0,0.0,0.0,0.0,0.0,0.0,0.0,0.0,0.0,0.0,0.0,0.0,0.0,0.0,0.0,0.0,-1.2943,-1.4165,-1.5908,-1.7417,-1.871,-1.9773,-2.0558,-2.2069,-2.4354,-2.5834,-2.6683,-2.6802,-2.4775,-2.2622,-2.0408,-1.8668,-1.7742,-1.7384,-1.6248,-1.577,-1.5741,0.0,0.0,0.0,0.0,0.0,0.0,0.0,0.0,0.0,0.0,0.0,0.0,0.0,0.0,0.0,-1.9871,-2.0326,-2.0595,-2.0749,-2.1929,-2.3142,-2.308,-2.561,-2.8108,-2.834,-2.7518,-2.6873,-2.7484,-2.8379,-2.9416,-3.0602,-3.3512,-3.6241,-3.7842,-3.9371,-4.0347,-4.0293,-4.1949,-4.3008,-4.2417,-4.2845,-4.2977,-4.2365,-4.3621,-4.4788,-4.553,-4.6881,-4.777,-4.8001,-4.7935,-4.7869,-4.7869,-4.7504,-4.7202,-4.7134,-4.8637,-4.9458,-4.9458,-5.1361,-5.2086,-5.1614,-5.1614,-5.1614,-5.1614,-5.1285,-5.1285,-5.154,-5.1721,-5.1688,-5.154,-5.1688,-5.1688,-5.1614,-5.1135,-5.0951,-5.0951,0.0,0.0,0.0,0.0,0.0,0.0,0.0,0.0,0.0,0.0,0.0,0.0,0.0,0.0,0.0,0.0,0.0,0.0,0.0,-1.2711,-1.399,-1.5327,-1.7185,-1.908,-2.1035,-2.2293,-2.3362,-2.4217,-2.6129,-2.6553,-2.5515,-2.4835,-2.2832,-1.972,-1.8972,-1.7921,-1.6726,-1.6069,-1.5741,-1.5595,-1.5595,0.0,0.0,0.0,0.0,0.0,0.0,0.0,0.0,0.0,0.0,0.0,0.0,0.0,-1.9095,-1.9587,-2.012,-2.0519,-2.0691,-2.184,-2.3061,-2.3314,-2.4442,-2.5922,-2.7406,-2.7272,-2.748,-2.985,-3.041,-3.1165,-3.3379,-3.6242,-3.807,-3.7567,-3.9184,-4.023,-3.9598,-4.0704,-4.1654,-4.1588,-4.1588,-4.1654,-4.1591,-4.269,-4.3786,-4.4821,-4.595,-4.7033,-4.7935,-4.7638,-4.7404,-4.7404,-4.7066,-4.6722,-4.6372,-4.8142,-4.903,-4.903,-5.0928,-5.1614,-5.1135,-5.1135,-5.1135,-5.1135,-5.1102,-5.0908,-5.0679,-5.1466,-5.1317,-5.0679,-5.1466,-5.154,-5.1135,-5.0679,-5.0525,-5.0525,0.0,0.0,0.0,0.0,0.0,0.0,0.0,0.0,0.0,0.0,0.0,0.0,0.0,0.0,0.0,0.0,0.0,0.0,0.0,-1.2914,-1.4339,-1.6401,-1.7592,-1.9275,-2.164,-2.3327,-2.4742,-2.5862,-2.6696,-2.6503,-2.5367,-2.3956,-2.2211,-2.0154,-1.9075,-1.8089,-1.7166,-1.6576,-1.601,-1.5536,-1.5566,-1.5566,0.0,0.0,0.0,0.0,0.0,0.0,0.0,0.0,-1.5713,-1.6037,-1.7258,-1.7763,-1.8144,-1.9325,-1.9726,-1.9792,-1.9982,-2.1555,-2.3212,-2.3319,-2.4686,-2.6411,-2.8211,-2.9109,-3.0129,-3.1887,-3.2421,-3.3157,-3.4961,-3.6222,-3.6971,-3.6723,-3.7994,-3.8758,-3.7946,-3.948,-4.0447,-3.9889,-4.0239,-4.0516,-4.0516,-4.1718,-4.2918,-4.4157,-4.5056,-4.6064,-4.7235,-4.6791,-4.6722,-4.7066,-4.6722,-4.6442,-4.6301,-4.7886,-4.8519,-4.8328,-5.038,-5.1135,-5.0755,-5.0755,-5.0755,-5.0755,-5.0448,-5.0448,-5.0525,-5.0832,-5.0832,-5.0525,-5.0832,-5.0755,-5.037,-5.0136,-5.0136,-5.0136,0.0,0.0,0.0,0.0,0.0,0.0,0.0,0.0,0.0,0.0,0.0,0.0,0.0,0.0,0.0,0.0,0.0,0.0,-1.184,-1.2659,-1.397,-1.5909,-1.7192,-1.8845,-2.0969,-2.3224,-2.5069,-2.6549,-2.6909,-2.6129,-2.4354,-2.3023,-2.1613,-2.0131,-1.9034,-1.8258,-1.7747,-1.6895,-1.6275,-1.5742,-1.5595,-1.5507,0.0,0.0,0.0,0.0,0.0,0.0,0.0,0.0,-1.5154,-1.5359,-1.7045,-1.7386,-1.7486,-1.8886,-1.9583,-1.9865,-2.0055,-2.1344,-2.2878,-2.3922,-2.5136,-2.6642,-2.9046,-3.0334,-3.1486,-3.3288,-3.3958,-3.4514,-3.5431,-3.5734,-3.5879,-3.5816,-3.6869,-3.7541,-3.698,-3.8542,-3.9493,-3.887,-3.9277,-3.9535,-3.9535,-4.0664,-4.1906,-4.32,-4.4018,-4.5017,-4.6269,-4.5985,-4.5985,-4.6442,-4.623,-4.6159,-4.6159,-4.7342,-4.7921,-4.7909,-4.9623,-5.0338,-5.0292,-5.0292,-5.0292,-5.0292,-4.9979,-5.0089,-5.0292,-5.0448,-5.0525,-5.0525,-5.037,-5.0136,-4.9931,-4.9931,-4.9931,-4.9931,0.0,0.0,0.0,0.0,0.0,0.0,0.0,0.0,-1.1226,-1.0741,-1.1701,0.0,0.0,0.0,0.0,0.0,0.0,0.0,-1.0721,-1.183,-1.2755,-1.3353,-1.5692,-1.7554,-1.8837,-2.1703,-2.4055,-2.5778,-2.6601,-2.5306,-2.2075,-2.2203,-2.1256,-1.9362,-1.872,-1.839,-1.8332,-1.7037,-1.6476,-1.6325,-1.5652,-1.5389,-1.5389,0.0,0.0,0.0,0.0,0.0,0.0,0.0,-1.4451,-1.4688,-1.6831,-1.7349,-1.7364,-1.8214,-1.9698,-2.1029,-2.1234,-2.1252,-2.203,-2.5238,-2.5639,-2.6226,-2.99,-3.0514,-3.1161,-3.409,-3.4964,-3.5096,-3.4765,-3.4964,-3.5133,-3.4935,-3.6055,-3.691,-3.691,-3.8001,-3.8797,-3.8797,-3.8797,-3.8797,-3.8797,-3.9748,-4.079,-4.1832,-4.2848,-4.396,-4.4911,-4.5227,-4.5405,-4.5405,-4.5614,-4.5823,-4.5823,-4.6438,-4.72,-4.7909,-4.8604,-4.9228,-4.9931,-4.9931,-4.9931,-4.9931,-4.9931,-4.9931,-4.9931,-5.0292,-5.0525,-5.0448,-5.0089,-4.9931,-4.9931,-4.9931,-4.9931,-4.9931,0.0,0.0,0.0,0.0,0.0,0.0,0.0,0.0,-1.078,-1.0634,-1.1345,0.0,0.0,0.0,0.0,0.0,0.0,0.0,-1.0721,-1.1475,-1.2348,-1.3353,-1.4533,-1.5927,-1.7526,-1.9265,-2.1812,-2.5168,-2.4538,-2.3272,-2.1462,-2.1515,-2.0764,-1.9354,-1.9551,-1.9163,-1.8214,-1.747,-1.6793,-1.6201,-1.5622,-1.5359,-1.527,0.0,0.0,0.0,0.0,0.0,0.0,0.0,0.0,0.0,-1.5652,-1.6906,-1.7888,-1.7831,-1.9016,-2.0215,-1.9397,-2.1754,-2.4509,-2.4634,-2.7237,-3.0075,-3.1156,-3.1684,-3.2478,-3.4155,-3.4735,-3.4935,-3.4765,-3.4765,-3.4831,-3.4765,-3.5849,-3.6599,-3.6529,-3.7711,-3.8501,-3.8427,-3.8352,-3.8352,-3.8352,-3.9518,-4.048,-4.1324,-4.208,-4.3061,-4.4174,-4.3897,-4.3897,-4.4358,-4.4389,-4.4465,-4.4465,-4.555,-4.6462,-4.7232,-4.8333,-4.9228,-4.9931,-4.9931,-4.9931,-4.9931,-4.9931,-4.9931,-4.9931,-5.001,-5.0058,-5.0058,-4.9931,-4.9931,-4.9931,-4.9931,-4.9931,-4.9995,0.0,0.0,0.0,0.0,0.0,0.0,-0.9658,-1.0177,-1.0479,-1.0281,-1.0812,-1.0965,0.0,0.0,0.0,-1.0174,-1.0457,-1.056,-1.0399,-1.1163,-1.1957,-1.2671,-1.3709,-1.5052,-1.6752,-1.7558,-1.921,-2.1826,-2.1826,-2.1255,-2.0171,-2.0893,-2.0802,-2.0002,-2.0402,-2.0114,-1.9246,-1.7913,-1.7257,-1.6924,-1.6058,-1.5677,-1.5589,0.0,0.0,0.0,0.0,0.0,0.0,0.0,0.0,0.0,-1.5067,-1.6288,-1.7475,-1.7992,-1.9584,-2.122,-2.1274,-2.388,-2.6678,-2.7307,-2.9376,-3.1533,-3.2582,-3.3106,-3.3602,-3.4254,-3.4601,-3.4735,-3.4631,-3.4631,-3.4698,-3.4563,-3.5642,-3.6458,-3.6315,-3.7492,-3.8352,-3.8202,-3.8202,-3.8202,-3.8202,-3.9363,-4.0246,-4.0636,-4.158,-4.2392,-4.317,-4.3061,-4.314,-4.3536,-4.3771,-4.3927,-4.3927,-4.4992,-4.5819,-4.6493,-4.7598,-4.849,-4.9066,-4.9661,-4.9931,-4.9931,-4.9931,-4.9931,-4.9931,-4.9931,-4.9931,-4.9931,-4.9931,-4.9931,-4.9852,-4.9582,-4.9661,-4.9915,0.0,0.0,0.0,0.0,0.0,0.0,-0.9579,-1.0073,-1.0248,-0.9758,-1.0155,-1.0334,0.0,0.0,0.0,-0.9893,-0.9893,-0.9893,-0.9893,-1.0872,-1.1475,-1.1605,-1.3191,-1.4775,-1.6231,-1.6297,-1.6464,-1.6818,-1.8796,-1.9308,-1.8549,-2.0302,-2.104,-2.0848,-2.0981,-2.0939,-2.0575,-1.8275,-1.7551,-1.7892,-1.6564,-1.6048,-1.599,-1.5325,0.0,0.0,0.0,0.0,0.0,0.0,0.0,0.0,-1.4747,-1.5618,-1.6547,-1.8317,-2.0756,-2.3178,-2.4907,-2.6591,-2.8594,-3.1526,-3.1584,-3.1526,-3.3877,-3.4399,-3.4399,-3.4399,-3.4563,-3.4631,-3.4428,-3.4563,-3.4631,-3.4428,-3.5473,-3.6315,-3.6315,-3.7389,-3.8202,-3.8202,-3.8202,-3.8202,-3.8202,-3.9363,-4.0089,-4.0089,-4.1337,-4.2092,-4.2092,-4.2607,-4.29,-4.29,-4.3457,-4.3771,-4.3771,-4.4452,-4.5161,-4.5849,-4.6535,-4.7249,-4.7904,-4.9259,-4.9821,-4.9821,-4.9741,-4.9741,-4.9821,-4.9741,-4.9773,-4.9931,-4.9773,-4.9773,-4.9741,-4.9066,-4.9147,-4.9533,0.0,0.0,0.0,0.0,0.0,0.0,-0.9579,-0.9702,-0.9751,-0.963,-0.9782,-0.9833,-0.9736,-0.9762,0.0,-0.9893,-0.9893,-0.9893,-0.9893,-1.0119,-1.0646,-1.155,-1.3191,-1.4272,-1.4611,-1.4636,-1.4648,-1.4758,-1.7221,-1.8187,-1.7871,-1.928,-1.9875,-1.9696,-1.9887,-1.9427,-1.8411,-1.692,-1.6373,-1.6371,-1.5186,-1.4818,-1.4836,-1.3798,-1.317,0.0,0.0,0.0,0.0,0.0,0.0,0.0,-1.3554,-1.4892,-1.6285,-1.6721,-1.9362,-2.2178,-2.2062,-2.5546,-2.9377,-3.0074,-3.1932,-3.3732,-3.4283,-3.4399,-3.4399,-3.4399,-3.4428,-3.4496,-3.4399,-3.4428,-3.4496,-3.4399,-3.5473,-3.6315,-3.6315,-3.7389,-3.8202,-3.8202,-3.8202,-3.8202,-3.8202,-3.9363,-4.0089,-4.0089,-4.1337,-4.2092,-4.2092,-4.2257,-4.231,-4.231,-4.2392,-4.2474,-4.2474,-4.3595,-4.4549,-4.5191,-4.6364,-4.7249,-4.7904,-4.8738,-4.9147,-4.9066,-4.8573,-4.8656,-4.9066,-4.8573,-4.8903,-4.9852,-4.8738,-4.8656,-4.9066,-4.8407,-4.824,-4.8477,0.0,0.0,0.0,0.0,0.0,0.0,0.0,0.0,-0.987,-0.9601,-0.9605,-0.9658,-0.9658,-0.971,0.0,0.0,-0.9866,-0.9867,-0.9893,-1.0091,-1.0741,-1.1927,-1.2806,-1.3292,-1.3292,-1.3569,-1.3534,-1.3292,-1.5488,-1.6689,-1.7074,-1.8876,-1.9773,-1.9855,-2.0051,-1.9467,-1.818,-1.6728,-1.622,-1.6399,-1.5203,-1.4943,-1.5092,-1.367,-1.3011,-1.2702,-1.1665,0.0,0.0,0.0,0.0,0.0,0.0,0.0,-1.556,-1.6808,-1.9014,-2.1394,-2.2904,-2.6155,-2.9552,-3.109,-3.2948,-3.4399,-3.4399,-3.4399,-3.4399,-3.4399,-3.4399,-3.4399,-3.4399,-3.4399,-3.4516,-3.4806,-3.5677,-3.6431,-3.6751,-3.7593,-3.8202,-3.8202,-3.8202,-3.8202,-3.8202,-3.9363,-4.0089,-4.0089,-4.1337,-4.2092,-4.2092,-4.2092,-4.2092,-4.2092,-4.2092,-4.2092,-4.2092,-4.334,-4.4151,-4.4579,-4.5786,-4.6726,-4.7422,-4.8157,-4.8407,-4.8407,-4.8072,-4.8072,-4.8407,-4.8072,-4.8324,-4.8903,-4.8157,-4.8157,-4.8324,-4.7649,-4.7649,-4.797,0.0,0.0,0.0,0.0,0.0,0.0,0.0,0.0,0.0,-0.9572,-0.955,-0.9579,-0.9579,-0.9658,-0.9736,0.0,0.0,0.0,-0.9867,-1.0311,-1.1032,-1.2046,-1.2196,-1.2246,-1.2278,-1.2672,-1.2797,-1.2554,-1.391,-1.526,-1.6621,-1.8643,-1.9793,-2.012,-2.0246,-1.9529,-1.815,-1.6533,-1.6047,-1.6241,-1.5065,-1.4877,-1.5119,-1.3587,-1.2939,-1.267,-1.146,-1.1395,-1.1788,-1.1461,0.0,0.0,0.0,0.0,-1.4456,-1.6837,-1.8608,-2.0465,-2.3746,-2.662,-2.9435,-3.2658,-3.3935,-3.4399,-3.4399,-3.4399,-3.4399,-3.4399,-3.4399,-3.4399,-3.4399,-3.4399,-3.4632,-3.527,-3.5909,-3.6548,-3.7215,-3.7825,-3.8202,-3.8202,-3.8202,-3.8202,-3.8202,-3.9247,-3.9973,-4.0089,-4.1221,-4.1976,-4.2092,-4.2092,-4.2092,-4.2092,-4.2092,-4.215,-4.2237,-4.3398,-4.4037,-4.4153,-4.5314,-4.6225,-4.6756,-4.7336,-4.7649,-4.7734,-4.7563,-4.7649,-4.7734,-4.7563,-4.7649,-4.7904,-4.7649,-4.7649,-4.7649,-4.6989,-4.7135,-4.7662,0.0,0.0,0.0,0.0,0.0,0.0,0.0,0.0,0.0,0.0,-0.9523,-0.955,-0.9603,-0.9658,-0.9736,-0.9788,-0.9814,-0.9814,-0.9814,0.0,0.0,-1.0919,-1.1365,-1.164,-1.1701,-1.1776,-1.2228,-1.3098,-1.3323,-1.4714,-1.7264,-1.8046,-1.861,-1.8982,-1.8712,-1.7612,-1.6049,-1.4892,-1.4131,-1.3598,-1.2513,-1.2234,-1.2446,-1.1686,-1.1269,-1.1019,-1.0824,-1.1098,-1.1479,-1.0982,-1.1322,0.0,0.0,0.0,-1.2921,-1.437,-1.6547,-1.8695,-1.9711,-2.4239,-2.9435,-3.2658,-3.3935,-3.4399,-3.4399,-3.4399,-3.4399,-3.4399,-3.4399,-3.4399,-3.4399,-3.4399,-3.4632,-3.527,-3.5909,-3.6548,-3.7215,-3.7825,-3.8202,-3.8202,-3.8202,-3.8202,-3.8202,-3.887,-3.9538,-4.006,-4.0786,-4.1482,-4.2063,-4.2092,-4.2092,-4.2092,-4.2092,-4.2353,-4.2876,-4.3602,-4.424,-4.4763,-4.5518,-4.5985,-4.6075,-4.6135,-4.6491,-4.6989,-4.6403,-4.6491,-4.6989,-4.6403,-4.6814,-4.7819,-4.6638,-4.6491,-4.6901,-4.6314,-4.6395,-4.707,0.0,0.0,0.0,0.0,0.0,0.0,0.0,0.0,0.0,0.0,0.0,-0.9523,-0.955,-0.9605,-0.9658,-0.9684,-0.9684,-0.971,-0.9736,-0.9931,-1.0257,-1.0694,-1.0887,-1.119,-1.1575,-1.16,-1.1826,-1.2303,-1.2597,-1.4036,-1.6446,-1.6999,-1.7996,-1.9279,-1.8248,-1.7149,-1.6045,-1.4312,-1.3458,-1.3098,-1.2027,-1.2601,-1.3836,-1.1704,-1.1763,-1.2812,-1.111,-1.0818,-1.1243,-1.1186,-1.137,-1.1746,-1.2155,0.0,0.0,0.0,-1.4598,-1.6779,-2.0291,-2.4617,-2.8913,-3.2135,-3.3412,-3.3964,-3.4341,-3.4399,-3.4399,-3.4399,-3.4399,-3.4399,-3.4399,-3.4399,-3.4748,-3.5735,-3.6141,-3.6664,-3.768,-3.8028,-3.8202,-3.8202,-3.8202,-3.8202,-3.8202,-3.9102,-3.9799,-4.0089,-4.1076,-4.1773,-4.2092,-4.2092,-4.2092,-4.2092,-4.2092,-4.2382,-4.2992,-4.366,-4.4472,-4.5459,-4.575,-4.5895,-4.5895,-4.5895,-4.6046,-4.6314,-4.6075,-4.6075,-4.6314,-4.6046,-4.6225,-4.6726,-4.6135,-4.6046,-4.6314,-4.5985,-4.6272,-4.6911,0.0,0.0,0.0,0.0,0.0,0.0,0.0,0.0,0.0,0.0,0.0,-0.9497,-0.9497,0.0,0.0,0.0,-0.9579,-0.9557,-0.9462,-0.9315,-0.9464,-1.0041,-0.9988,-1.0212,-1.0721,-1.0872,-1.1098,-1.1374,-1.2046,-1.3498,-1.5693,-1.6271,-1.7551,-1.9334,-1.8129,-1.72,-1.6371,-1.4125,-1.3198,-1.3123,-1.2328,-1.3232,-1.4864,-1.2897,-1.3483,-1.4928,-1.207,-1.1386,-1.18,-1.1399,-1.1428,-1.1696,-1.2046,-1.2321,0.0,0.0,0.0,-1.4801,-2.005,-2.3454,-2.6385,-3.0185,-3.1893,-3.2847,-3.3964,-3.4283,-3.4399,-3.4399,-3.4399,-3.4399,-3.4399,-3.4399,-3.4835,-3.6083,-3.6315,-3.6751,-3.8028,-3.8202,-3.8202,-3.8202,-3.8202,-3.8202,-3.8202,-3.9218,-3.9915,-4.0089,-4.1192,-4.1918,-4.2092,-4.2092,-4.2092,-4.2092,-4.2092,-4.2469,-4.3224,-4.4066,-4.4937,-4.5895,-4.5895,-4.5895,-4.5895,-4.5895,-4.5895,-4.5895,-4.5895,-4.5895,-4.5895,-4.5895,-4.5895,-4.5895,-4.5895,-4.5895,-4.5895,-4.5895,-4.6388,-4.7143,0.0,0.0,0.0,0.0,0.0,0.0,0.0,0.0,0.0,0.0,0.0,-0.9497,-0.9497,-0.9577,-0.9579,-0.9579,-0.9579,-0.9385,-0.8876,-0.8319,-0.8051,-0.8211,-0.8235,0.0,-0.8371,-0.8869,-0.9666,-1.0744,-1.1784,-1.3463,-1.5693,-1.6271,-1.7149,-1.8279,-1.8204,-1.7551,-1.6371,-1.4125,-1.3198,-1.3198,-1.3148,-1.3198,-1.3549,-1.5452,-1.6296,-1.6145,-1.386,-1.3443,-1.3629,-1.1454,-1.1273,-1.1864,-1.1344,-1.1349,-1.148,0.0,0.0,0.0,-1.6534,-1.8504,-2.0757,-2.6094,-2.8824,-3.0683,-3.3028,-3.3993,-3.4399,-3.4399,-3.4399,-3.4399,-3.4399,-3.4399,-3.4835,-3.6083,-3.6315,-3.6751,-3.8028,-3.8202,-3.8202,-3.8202,-3.8202,-3.8202,-3.8202,-3.8841,-3.9479,-4.006,-4.0757,-4.1424,-4.2063,-4.2092,-4.2092,-4.2092,-4.2092,-4.2673,-4.3921,-4.5169,-4.5808,-4.5895,-4.5895,-4.5895,-4.5895,-4.5895,-4.5895,-4.5895,-4.5895,-4.5895,-4.5895,-4.5895,-4.5895,-4.5895,-4.5895,-4.5895,-4.5895,-4.5895,-4.6679,-4.7724,0.0,0.0,0.0,0.0,0.0,0.0,0.0,0.0,0.0,0.0,0.0,0.0,0.0,-0.9716,-0.9671,-1.0032,-0.9405,-0.8803,-0.8318,-0.8031,-0.7978,-0.8088,-0.8066,-0.8235,-0.8719,-0.8525,-0.8995,-1.0193,-1.0189,-1.154,-1.4136,-1.4689,-1.5718,-1.7099,-1.6748,-1.6572,-1.6346,-1.3749,-1.2872,-1.3223,-1.3609,-1.4613,-1.5944,-1.6371,-1.74,-1.8329,-1.612,0.0,-1.4022,-1.3534,-1.2872,-1.2157,-1.1598,-1.1622,-1.1666,-1.0915,-1.1293,-1.2584,-1.5379,-1.7263,-1.9405,-2.3441,-2.6246,-2.8624,-3.074,-3.2445,-3.3756,-3.4264,-3.4399,-3.4399,-3.4399,-3.4399,-3.4835,-3.6083,-3.6315,-3.6751,-3.8028,-3.8202,-3.8202,-3.8202,-3.8202,-3.8202,-3.8202,-3.8812,-3.945,-4.006,-4.0728,-4.1395,-4.2063,-4.2092,-4.2092,-4.2092,-4.2092,-4.2702,-4.3979,-4.5256,-4.5895,-4.5895,-4.5895,-4.5895,-4.5895,-4.5895,-4.5895,-4.5895,-4.5895,-4.5895,-4.5895,-4.5895,-4.5895,-4.5895,-4.5895,-4.5895,-4.5924,-4.633,-4.7027,-4.784,0.0,0.0,0.0,0.0,0.0,0.0,0.0,0.0,-1.0053,-1.0053,0.0,0.0,0.0,0.0,-0.9905,-1.0269,-0.9307,-0.8489,-0.8005,-0.7597,-0.74,-0.7486,-0.7486,-0.7677,-0.8131,-0.7916,-0.8307,-0.9342,-0.9492,-1.0588,-1.2672,-1.3433,-1.4438,-1.5668,-1.4876,-1.5377,-1.6647,-1.4061,-1.3383,-1.4099,-1.5065,-1.6162,-1.72,-1.8103,-1.9032,-1.961,-1.8059,0.0,-1.5768,-1.6103,-1.5461,-1.4275,-1.3107,-1.2081,-1.1182,-1.061,-1.0978,-1.1968,-1.3494,-1.5011,-1.7018,-2.0525,-2.2944,-2.5298,-2.8703,-3.0629,-3.2162,-3.3654,-3.3825,-3.3687,-3.3962,-3.3962,-3.4531,-3.6012,-3.6072,-3.6432,-3.8028,-3.8202,-3.8202,-3.8202,-3.8202,-3.8202,-3.8202,-3.8812,-3.945,-4.006,-4.0728,-4.1395,-4.2063,-4.2092,-4.2092,-4.2092,-4.2498,-4.3137,-4.3979,-4.5256,-4.5895,-4.5895,-4.5895,-4.5895,-4.5895,-4.5895,-4.5895,-4.5895,-4.5895,-4.5895,-4.5895,-4.5895,-4.5895,-4.5895,-4.5895,-4.5895,-4.5953,-4.6592,-4.723,-4.7869,0.0,0.0,0.0,0.0,0.0,0.0,0.0,0.0,-0.9569,-0.9593,0.0,0.0,0.0,0.0,0.0,-1.0341,-0.9331,-0.8489,-0.7936,-0.6926,-0.6307,-0.6307,-0.6367,-0.6384,-0.6384,-0.6911,-0.7506,-0.8171,-0.9765,-1.0862,-1.1575,-1.2589,-1.3423,-1.3997,-1.2814,-1.4138,-1.7124,-1.4953,-1.4676,-1.5819,-1.7476,-1.7526,-1.6979,-2.0865,-2.1343,-1.9935,-1.9828,-1.9506,-1.9108,-1.8883,-1.8759,-1.8166,-1.5627,-1.2554,-0.9918,-0.9918,-1.0295,-1.0719,0.0,0.0,0.0,-1.7274,-1.8825,-2.0898,-2.7006,-2.852,-2.9481,-3.2457,-3.2467,-3.2208,-3.3003,-3.3143,-3.3847,-3.5841,-3.5682,-3.5918,-3.7849,-3.8127,-3.8127,-3.8127,-3.8127,-3.8127,-3.8127,-3.8783,-3.9421,-4.006,-4.0699,-4.1366,-4.2063,-4.2092,-4.2092,-4.2092,-4.334,-4.3979,-4.3979,-4.5256,-4.5895,-4.5895,-4.5895,-4.5895,-4.5895,-4.5895,-4.5895,-4.5895,-4.5895,-4.5895,-4.5895,-4.5895,-4.5895,-4.5895,-4.5895,-4.5895,-4.5982,-4.6621,-4.7259,-4.7898,0.0,0.0,0.0,0.0,0.0,-1.0221,-1.0606,-1.099,-1.1375,0.0,0.0,0.0,-1.1952,-1.1688,-1.1303,-1.0918,-0.9908,-0.8898,-0.796,-0.7263,-0.6691,-0.6307,-0.6325,-0.6325,-0.6325,-0.6469,-0.6863,-0.7473,-0.8311,-0.9243,-1.0232,-1.1405,-1.2232,-1.2789,-1.2489,-1.3098,-1.4188,-1.2856,-1.3393,-1.5205,-1.6045,-1.7335,-1.9033,-2.1642,-2.3046,-2.3614,-2.3944,-2.3009,-2.1617,-2.1559,-1.9715,-1.7024,-1.4013,-1.1902,-1.0393,-1.0018,-1.0596,-1.1249,-1.0819,0.0,0.0,0.0,0.0,0.0,-2.184,-2.3795,-2.5926,-2.9316,-2.9855,-3.0241,-3.2034,-3.1928,-3.2098,-3.367,-3.5079,-3.5894,-3.5725,-3.6641,-3.726,-3.726,-3.726,-3.726,-3.726,-3.7968,-3.8698,-3.9207,-3.9945,-4.0873,-4.2034,-4.2092,-4.2092,-4.2092,-4.334,-4.3979,-4.3979,-4.5256,-4.5895,-4.5895,-4.5895,-4.5895,-4.5895,-4.5895,-4.5895,-4.5895,-4.5895,-4.5895,-4.5895,-4.5895,-4.5895,-4.5895,-4.5895,-4.6156,-4.665,-4.7288,-4.7927,-4.8566,0.0,0.0,-0.9833,-0.9833,-1.0461,-1.099,-1.1087,-1.1544,-1.2001,0.0,0.0,0.0,-1.2661,-1.2987,-1.2818,-1.1832,-1.0798,-0.9812,-0.897,-0.7984,-0.7191,-0.6643,-0.6835,-0.6878,-0.6643,-0.6619,-0.6921,-0.7538,-0.7632,-0.824,-0.9391,-1.0057,-1.0677,-1.1226,-1.0978,-1.133,-1.2008,-1.094,-1.2196,-1.4976,-1.6635,-1.8111,-1.9475,-2.1655,-2.2941,-2.379,-2.4795,-2.4232,-2.3157,-2.3937,-2.1476,-1.7793,-1.5595,-1.3467,-1.1595,-1.0822,-1.155,-1.2461,-1.165,-1.2479,-1.3684,-1.4136,0.0,0.0,-2.0603,-2.2055,-2.3864,-2.813,-2.8932,-2.931,-3.0975,-3.1035,-3.1075,-3.1593,-3.3696,-3.5143,-3.4886,-3.5723,-3.6346,-3.6346,-3.6346,-3.6346,-3.6346,-3.7155,-3.7848,-3.82,-3.9453,-4.0699,-4.2034,-4.1702,-4.1647,-4.2092,-4.334,-4.3979,-4.3979,-4.5256,-4.5895,-4.5895,-4.5895,-4.5895,-4.5895,-4.5895,-4.5895,-4.5895,-4.5895,-4.5895,-4.5895,-4.5895,-4.5895,-4.5895,-4.5895,-4.6272,-4.6911,-4.755,-4.8188,-4.8827,0.0,0.0,-1.0341,-1.0461,-1.1303,-1.1832,-1.1423,-1.1808,-1.2203,0.0,-1.2289,-1.253,-1.3095,-1.4261,-1.4437,-1.3059,-1.1904,-1.099,-1.0283,-0.8848,-0.775,-0.7114,-0.7562,-0.7562,-0.7039,-0.7035,-0.7291,-0.7765,-0.7372,-0.7726,-0.8703,-0.8754,-0.9071,-0.9488,-0.9022,-0.9389,-1.0331,-0.964,-1.1424,-1.4977,-1.7821,-1.8904,-1.9044,-2.1269,-2.2034,-2.2231,-2.3791,-2.4143,-2.4042,-2.5584,-2.3296,-1.9687,-1.8729,-1.6293,-1.3538,-1.2178,-1.2981,-1.4086,-1.2906,-1.3393,-1.4425,-1.5367,-1.4953,0.0,-2.0991,-2.1543,-2.2325,-2.7155,-2.8017,-2.8189,-2.9165,-2.9803,-2.9899,-2.9277,-3.1494,-3.3526,-3.4281,-3.5062,-3.5467,-3.5467,-3.5467,-3.5467,-3.5467,-3.6267,-3.6872,-3.7253,-3.8971,-4.0573,-4.184,-4.0972,-4.0972,-4.2092,-4.3226,-4.3892,-4.3979,-4.5167,-4.5776,-4.5895,-4.5776,-4.5776,-4.5895,-4.5895,-4.5895,-4.5895,-4.5895,-4.5895,-4.5895,-4.5895,-4.5895,-4.5895,-4.5895,-4.633,-4.6998,-4.7579,-4.8217,-4.8914,-0.9377,-0.9956,-1.0582,-1.1423,-1.2131,-1.2661,-1.2975,-1.3481,-1.3987,-1.4341,-1.4749,-1.5229,-1.58,-1.5325,-1.4893,-1.4581,-1.3227,-1.1685,-1.0014,-0.9243,-0.8307,-0.7078,-0.7122,-0.6969,-0.6549,-0.6692,-0.6655,-0.639,-0.6892,-0.7235,-0.7473,-0.8391,-0.8633,-0.8341,-0.8704,-0.8973,-0.9241,-1.0866,-1.2579,-1.4212,-1.4963,-1.6991,-1.968,-2.1464,-2.2855,-2.4047,-2.5054,-2.5156,-2.4713,-2.4181,-2.284,-2.095,-1.8748,-1.7749,-1.6864,-1.3777,-1.43,-1.5554,-1.4161,-1.4249,-1.4802,-1.5004,-1.5191,0.0,-1.6321,-1.6999,-1.815,-2.0496,-2.1327,-2.2178,-2.4115,-2.4988,-2.5304,-2.5134,-2.7424,-2.9909,-3.1826,-3.3554,-3.462,-3.462,-3.462,-3.462,-3.462,-3.5413,-3.5953,-3.6313,-3.8228,-3.9837,-4.0859,-4.0,-4.0287,-4.2009,-4.2567,-4.3136,-4.3979,-4.439,-4.5081,-4.5895,-4.4989,-4.5081,-4.5895,-4.5895,-4.5895,-4.5895,-4.5895,-4.5895,-4.5895,-4.5895,-4.5895,-4.5895,-4.5895,-4.6592,-4.7608,-4.7724,-4.8508,-4.9494,-0.9908,-1.0774,-1.1664,-1.2227,-1.3155,-1.3775,-1.3517,-1.3964,-1.4355,-1.4561,-1.5496,-1.5934,-1.5517,-1.5429,-1.5085,-1.4376,-1.3298,-1.2152,-1.0932,-1.0131,-0.9162,-0.7896,-0.8102,-0.8035,-0.7554,-0.7387,-0.7173,-0.6955,-0.6676,-0.6758,-0.7099,-0.7735,-0.8246,-0.8705,-0.8454,-0.8942,-0.9915,-1.0463,-1.1637,-1.3305,-1.5612,-1.8114,-2.0685,-2.1803,-2.326,-2.4777,-2.508,-2.5099,-2.4821,-2.3913,-2.2795,-2.1583,-2.0288,-1.9569,-1.8729,0.0,-1.6213,-1.7124,-1.5271,-1.5226,-1.5768,-1.6045,0.0,0.0,0.0,-1.735,-1.8003,-2.0213,-2.0665,-2.1142,-2.2824,-2.315,-2.3351,-2.3904,-2.6088,-2.7896,-2.8423,-3.1284,-3.3392,-3.37,-3.3725,-3.3725,-3.3725,-3.4538,-3.5485,-3.6657,-3.7385,-3.8405,-3.9826,-3.9033,-3.9257,-4.0994,-4.1563,-4.2084,-4.2935,-4.3277,-4.3843,-4.434,-4.3843,-4.3843,-4.434,-4.434,-4.462,-4.511,-4.4527,-4.4926,-4.5805,-4.4805,-4.462,-4.5201,-4.5685,-4.6679,-4.7782,-4.7782,-4.8595,-4.9571,-1.0408,-1.1431,-1.2472,-1.2663,-1.3887,-1.4575,-1.3766,-1.4084,-1.4496,-1.4522,-1.5604,-1.6019,-1.5105,-1.5659,-1.5604,-1.4273,-1.3608,-1.2892,-1.1948,-1.1035,-1.0094,-0.9157,-0.9147,-0.9054,-0.8889,-0.8155,-0.7735,-0.7613,-0.6586,-0.6375,-0.6896,-0.7102,-0.7874,-0.9027,-0.8507,-0.927,0.0,0.0,0.0,-1.3219,-1.7028,-1.921,-2.0307,-2.1411,-2.2745,-2.4019,-2.4198,-2.4409,-2.4548,-2.3932,-2.3091,-2.2185,-2.1909,-2.1534,-2.0718,-1.8166,0.0,0.0,0.0,0.0,0.0,0.0,0.0,-1.671,0.0,0.0,0.0,-2.0614,-2.0765,-2.079,-2.1694,-2.1493,-2.1543,-2.2548,-2.4481,-2.5611,-2.4908,-2.8172,-3.0959,-3.1863,-3.2516,-3.2842,-3.2616,-3.3264,-3.4585,-3.6743,-3.6109,-3.6585,-3.8827,-3.8069,-3.8333,-3.9988,-4.0518,-4.1086,-4.1748,-4.2274,-4.2598,-4.2792,-4.2598,-4.2598,-4.2792,-4.2792,-4.3273,-4.3937,-4.3177,-4.3748,-4.5201,-4.3464,-4.3273,-4.4125,-4.5344,-4.6368,-4.7186,-4.752,-4.8269,-4.8951,-1.0451,-1.0836,-1.1559,-1.2522,-1.3638,-1.4357,-1.4224,-1.4654,-1.5175,-1.5559,-1.6068,-1.6678,-1.7422,-1.7356,-1.6977,-1.6314,-1.5657,-1.4333,-1.2042,-1.145,-1.1023,-1.0666,-0.8888,-0.8408,-0.9472,-0.8164,-0.7164,-0.6573,-0.6422,-0.6281,-0.6149,-0.688,-0.7415,-0.7875,-0.94,-1.021,0.0,0.0,-1.3474,-1.5593,-1.7059,-1.6926,-1.6113,-1.9043,-2.0269,-2.0681,-2.2591,-2.328,-2.3315,-2.3659,-2.3892,-2.3689,-2.2321,-2.3508,-2.4575,-2.0367,0.0,0.0,0.0,0.0,-1.883,-1.7994,-1.8018,-1.787,-1.6331,0.0,-1.716,-1.6597,0.0,-1.7124,-1.725,0.0,0.0,-1.8028,-1.956,-2.0966,-2.182,-2.3678,-2.5686,-2.7695,-3.0532,-3.1938,-3.0984,-3.0964,-3.2129,-3.4793,-3.3532,-3.427,-3.7756,-3.7083,-3.7593,-3.9897,-3.9841,-4.0425,-4.1748,-4.1497,-4.1914,-4.2792,-4.1815,-4.1914,-4.2792,-4.2792,-4.2889,-4.2985,-4.2889,-4.2889,-4.3177,-4.2889,-4.2889,-4.3136,-4.4741,-4.5191,-4.5111,-4.6587,-4.7002,-4.6632,-1.0073,-1.141,-1.2559,-1.2361,-1.3666,-1.4496,-1.3686,-1.4314,-1.5046,-1.5328,-1.5867,-1.6514,-1.7326,-1.6717,-1.6214,-1.6118,-1.5612,-1.4538,-1.2682,-1.2141,-1.1634,-1.11,-0.9716,-0.9232,-0.9757,-0.8367,-0.7386,-0.6859,-0.6169,-0.5823,-0.5837,-0.6443,-0.752,-0.8972,-1.0164,0.0,-1.3265,0.0,-1.3882,-1.4623,-1.6046,-1.5786,-1.4999,-1.9644,-2.1582,-2.1914,-2.2812,-2.3144,-2.3105,-2.3342,-2.3227,-2.3061,-2.3003,-2.3682,-2.4097,-2.1823,-2.183,0.0,-2.0287,-1.9456,-1.903,-1.8435,-1.8087,-1.7623,-1.6622,-1.6554,-1.6691,-1.6479,0.0,0.0,0.0,0.0,0.0,0.0,-1.7909,-1.8709,-1.8582,-2.0836,-2.3416,-2.6013,-2.7519,-2.885,-3.003,-3.0432,-3.1763,-3.4525,-3.3169,-3.3593,-3.6836,-3.664,-3.7115,-3.8843,-3.8717,-3.9282,-4.0582,-4.0438,-4.0567,-4.0945,-4.0567,-4.0567,-4.0945,-4.0945,-4.1345,-4.1815,-4.1246,-4.1743,-4.2695,-4.1544,-4.1555,-4.2498,-4.356,-4.4238,-4.4738,-4.5742,-4.6243,-4.6215,-0.953,-1.126,-1.2541,-1.2016,-1.3357,-1.4224,-1.347,-1.3892,-1.448,-1.4953,-1.5426,-1.6118,-1.7105,-1.6457,-1.61,-1.6574,-1.6181,-1.5294,-1.3879,-1.3193,-1.2706,-1.2389,-1.0847,-1.0193,-1.0619,-0.8889,-0.7676,-0.7072,-0.6127,-0.5714,-0.5826,-0.6354,-0.7641,-0.9504,-1.0705,-1.2616,-1.4879,0.0,-1.4841,-1.5169,-1.6377,-1.6773,-1.6928,-2.0605,-2.2461,-2.3144,-2.3144,-2.3144,-2.3125,-2.3008,-2.2848,-2.2755,-2.3166,-2.3552,-2.37,-2.2767,-2.264,-2.2521,-2.1033,-2.0323,-1.9773,-1.8936,-1.8243,-1.7631,-1.69,-1.6737,-1.6781,-1.6962,-1.6663,0.0,0.0,0.0,-1.548,-1.6207,0.0,-1.7045,-1.625,-1.8111,0.0,0.0,-2.4356,-2.5963,-2.8624,-2.8699,-3.008,-3.3771,-3.2215,-3.2616,-3.6182,-3.6358,-3.686,-3.7965,-3.8015,-3.8542,-3.9697,-3.9697,-3.9697,-3.9697,-3.9697,-3.9697,-3.9697,-3.9697,-4.0083,-4.0743,-3.9981,-4.0567,-4.1815,-4.0262,-4.0516,-4.1673,-4.232,-4.3127,-4.4063,-4.4858,-4.534,-4.5289,-0.8911,-0.9592,-1.0463,-1.1265,-1.2337,-1.3294,-1.4047,-1.3491,-1.3429,-1.4645,-1.4841,-1.5527,-1.7194,-1.7341,-1.7688,-1.8521,-1.8211,-1.7364,-1.5872,-1.4746,-1.4506,-1.534,-1.2107,-1.0974,-1.2503,-0.9807,-0.784,-0.6718,-0.6463,-0.6268,-0.6085,-0.6761,-0.7517,-0.8471,-1.1023,-1.2696,-1.3703,-1.5345,-1.7252,-1.9082,-1.9141,-2.0644,-2.2695,-2.1191,-2.168,-2.3144,-2.3144,-2.3144,-2.3086,-2.2676,-2.2988,-2.3474,-2.2631,-2.3541,-2.4668,-2.3102,-2.3395,-2.3831,-2.2635,-2.2298,-2.1724,-1.9523,-1.8975,-1.8422,-1.6511,-1.6827,-1.7435,-1.7063,-1.7798,-1.8363,-1.7872,-1.7235,-1.6696,-1.6274,-1.5782,0.0,0.0,0.0,0.0,0.0,0.0,0.0,-2.6339,-2.4632,-2.5862,-3.1838,-2.9779,-3.0608,-3.6056,-3.6358,-3.686,-3.7965,-3.8015,-3.8542,-3.9697,-3.9697,-3.9697,-3.9697,-3.9697,-3.9697,-3.9697,-3.9697,-3.9697,-3.98,-3.9697,-3.9697,-3.98,-3.9697,-4.0023,-4.0576,-4.1128,-4.1764,-4.2511,-4.4136,-4.4016,-4.3073,-1.041,-1.0289,-1.0252,-1.0508,-1.1902,-1.3073,-1.3282,-1.3488,-1.4135,-1.5399,-1.5684,-1.6529,-1.8666,-1.8485,-1.8469,-1.9219,-1.914,-1.8489,-1.719,-1.6075,-1.5576,-1.5921,-1.3118,-1.2018,-1.296,-1.0485,-0.8744,-0.7831,-0.7175,-0.6666,-0.6328,-0.6842,-0.7675,-0.8868,-1.1175,-1.3292,0.0,0.0,0.0,-1.8906,-1.9473,-2.0918,-2.2695,-2.2383,-2.2637,-2.3144,-2.3144,-2.3144,-2.3125,-2.2969,-2.2906,-2.2924,-2.2819,-2.3288,-2.3675,-2.3405,-2.3551,-2.3655,-2.3229,-2.2756,-2.191,-2.0023,-1.9482,-1.894,-1.718,-1.774,-1.8285,-1.6977,-1.7678,-1.8043,-1.6733,-1.63,-1.6009,-1.5605,-1.5404,0.0,0.0,0.0,0.0,0.0,0.0,0.0,0.0,0.0,-2.6389,-3.0306,-3.0407,-3.1913,-3.5629,-3.6157,-3.686,-3.7965,-3.8015,-3.8542,-3.9697,-3.9697,-3.9697,-3.9697,-3.9697,-3.9697,-3.9697,-3.9697,-3.9697,-3.9697,-3.9697,-3.9697,-3.9697,-3.9697,-4.0249,-4.1078,-4.1254,-4.1907,-4.2821,-4.333,-4.3295,-4.2986,-1.0966,-1.0557,-1.0315,-1.0791,-1.2064,-1.3037,-1.3292,-1.3937,-1.479,-1.5979,-1.6432,-1.735,-1.9263,-1.9201,-1.9257,-2.0,-1.9993,-1.9321,-1.8007,-1.739,-1.6917,-1.6468,-1.4754,-1.3914,-1.4091,-1.1834,-1.0176,-0.9172,-0.825,-0.7539,-0.7109,-0.7422,-0.8066,-0.9082,-1.0937,-1.3184,-1.5723,-1.7324,-1.8711,-1.9863,-2.0723,-2.1738,-2.2754,-2.3027,-2.3047,-2.293,-2.3086,-2.3144,-2.3144,-2.3144,-2.2949,-2.2773,-2.3047,-2.3097,-2.314,-2.3584,-2.3637,-2.3635,-2.371,-2.3366,-2.2608,-2.1105,-2.0492,-1.9833,-1.7997,-1.8384,-1.8821,-1.7502,-1.7775,-1.8084,-1.7565,-1.6822,-1.615,-1.5631,-1.5305,0.0,0.0,-1.3095,0.0,0.0,0.0,0.0,0.0,0.0,0.0,-2.9704,-2.9603,-3.116,-3.5328,-3.5881,-3.6659,-3.7965,-3.8015,-3.8542,-3.9697,-3.9697,-3.9697,-3.9697,-3.9697,-3.9697,-3.9697,-3.9697,-3.9697,-3.9697,-3.9594,-3.9594,-3.9594,-3.9594,-4.0245,-4.1114,-4.1114,-4.1788,-4.2874,-4.2986,-4.2986,-4.2874,-1.0571,-1.0402,-1.0685,-1.2045,-1.2609,-1.3145,-1.3951,-1.4619,-1.5365,-1.6325,-1.7006,-1.7868,-1.9203,-1.9575,-1.9956,-2.0717,-2.0642,-1.9997,-1.8564,-1.8805,-1.849,-1.7339,-1.6936,-1.6487,-1.5975,-1.3734,-1.1931,-1.0719,-0.9616,-0.8848,-0.843,-0.843,-0.8633,-0.9062,-1.0332,-1.2363,-1.4961,-1.7109,-1.9531,-2.2012,-2.2812,-2.3125,-2.3105,-2.3164,-2.291,-2.2598,-2.3027,-2.3164,-2.3184,-2.3203,-2.3203,-2.3203,-2.3203,-2.3203,-2.3281,-2.3691,-2.3828,-2.391,-2.4176,-2.4227,-2.3883,-2.2724,-2.2147,-2.119,-1.8871,-1.8912,-1.9168,-1.8652,-1.8382,-1.8637,-2.0049,-1.8696,-1.7133,-1.6294,0.0,0.0,0.0,0.0,0.0,0.0,0.0,0.0,0.0,0.0,0.0,0.0,0.0,0.0,0.0,-3.5361,-3.6232,-3.7965,-3.8015,-3.8542,-3.9672,-3.9697,-3.9697,-3.9697,-3.9697,-3.9697,-3.9697,-3.9697,-3.9697,-3.9594,-3.9387,-3.9258,-3.9258,-3.9283,-3.9929,-4.0898,-4.0923,-4.1593,-4.2513,-4.2874,-4.2737,-4.2513,-1.1914,-1.2275,-1.2569,-1.2508,-1.2347,-1.2648,-1.3912,-1.4277,-1.5012,-1.6845,-1.7524,-1.8469,-2.0061,-2.0495,-2.0808,-2.101,-2.1236,-2.1108,-2.0458,-2.0042,-1.9765,-1.9586,-1.8061,-1.7329,-1.7639,-1.4881,-1.3138,-1.251,-1.0835,-0.957,-0.8848,-0.8848,-0.8906,-0.9062,-1.0332,-1.252,-1.5371,-1.7227,-1.9863,-2.2832,-2.3047,-2.2949,-2.2734,-2.3379,-2.3359,-2.3047,-2.3477,-2.3633,-2.3672,-2.3984,-2.4082,-2.4082,-2.4082,-2.4082,-2.4102,-2.4219,-2.4258,-2.4238,-2.4303,-2.4354,-2.4098,-2.3162,-2.296,-2.2631,-2.1377,-2.1891,-2.2317,-2.102,-2.1375,-2.1252,-1.9148,-1.8649,-1.7832,-1.5669,-1.4226,0.0,0.0,0.0,0.0,0.0,0.0,0.0,0.0,0.0,0.0,0.0,0.0,0.0,-3.4479,-3.3881,-3.4844,-3.7914,-3.8015,-3.8442,-3.9362,-3.9362,-3.9362,-3.9362,-3.9362,-3.9362,-3.9362,-3.9362,-3.9258,-3.905,-3.8945,-3.8945,-3.897,-3.9389,-3.9956,-4.0621,-4.104,-4.1607,-4.2199,-4.2312,-4.2425,-4.2513,-1.2532,-1.3153,-1.3523,-1.2953,-1.3143,-1.373,-1.4601,-1.4885,-1.5532,-1.698,-1.8064,-1.8981,-1.9897,-2.0814,-2.1383,-2.1383,-2.1603,-2.1401,-2.0716,-2.0837,-2.0671,-2.0108,-1.9358,-1.8951,-1.8985,-1.6887,-1.5219,-1.4184,-1.2196,-1.0797,-0.9824,-0.9258,-0.9102,-0.9316,-1.043,-1.2168,-1.4512,-1.7539,-2.0293,-2.2637,-2.3203,-2.3281,0.0,-2.3809,-2.3906,-2.3769,-2.4199,-2.4219,-2.4102,-2.4336,-2.4414,-2.4414,-2.4414,-2.4414,-2.4453,-2.4648,-2.4707,-2.4746,-2.4941,-2.5,-2.4883,-2.4394,-2.4216,-2.3867,-2.2788,-2.2899,-2.3042,-2.2124,-2.1998,-2.1768,-2.0818,-1.9541,-1.7775,-1.5351,-1.3842,0.0,0.0,0.0,0.0,0.0,0.0,0.0,0.0,0.0,0.0,0.0,0.0,0.0,0.0,0.0,-3.3966,-3.7494,-3.7394,-3.7916,-3.905,-3.8931,-3.8931,-3.905,-3.905,-3.905,-3.905,-3.905,-3.8945,-3.8841,-3.8631,-3.8631,-3.868,-3.9193,-3.9756,-4.0343,-4.1101,-4.159,-4.1859,-4.1745,-4.1859,-4.2061,-1.2856,-1.3607,-1.4035,-1.3412,-1.4541,-1.5619,-1.5794,-1.6196,-1.6674,-1.7394,-1.869,-1.9567,-1.9622,-2.0888,-2.1731,-2.1731,-2.1731,-2.1379,-2.0476,-2.1231,-2.1108,-1.9956,-2.066,-2.0778,-2.0099,-1.8874,-1.7357,-1.5476,-1.3468,-1.1918,-1.0723,-0.9551,-0.9199,-0.9554,-1.0566,-1.1973,-1.3873,-1.8184,-2.082,-2.2227,-2.334,-2.3828,-2.3906,-2.4336,-2.4492,-2.4551,-2.5,-2.4883,-2.4512,-2.457,-2.459,-2.459,-2.459,-2.459,-2.4668,-2.5039,-2.5156,-2.5234,-2.5625,-2.5742,-2.5742,-2.5742,-2.5449,-2.4863,-2.373,-2.3203,-2.293,-2.293,-2.2031,-2.1758,-2.3398,-2.0795,-1.7634,-1.55,-1.4391,0.0,0.0,0.0,0.0,0.0,0.0,0.0,0.0,0.0,0.0,0.0,0.0,0.0,0.0,0.0,-3.2965,-3.6997,-3.6727,-3.7194,-3.8515,-3.8221,-3.8221,-3.8515,-3.8662,-3.8736,-3.8736,-3.8736,-3.8736,-3.8631,-3.8421,-3.8315,-3.834,-3.897,-3.9576,-4.0207,-4.1128,-4.1606,-4.1492,-4.1287,-4.1402,-4.1606,-1.3893,-1.4563,-1.4986,-1.4482,-1.5705,-1.6954,-1.7567,-1.7733,-1.8175,-1.9474,-2.0292,-2.0924,-2.1273,-2.1566,-2.1731,-2.1731,-2.1731,-2.164,-2.1438,-2.1621,-2.1603,-2.1328,-2.1181,-2.1034,-2.0906,-1.915,-1.7506,-1.597,-1.3673,-1.1567,-0.9807,-0.9277,-0.9043,-0.918,-1.0742,-1.3646,-1.7485,-1.9574,-2.152,-2.321,-2.3602,-2.4004,-2.4355,-2.4785,-2.4961,-2.5019,-2.5469,-2.5332,-2.5019,-2.5371,-2.5508,-2.5508,-2.5508,-2.5508,-2.5527,-2.5605,-2.5625,-2.5644,-2.5723,-2.5742,-2.5742,-2.5742,-2.5684,-2.5566,-2.5332,-2.5215,-2.5176,-2.5176,-2.498,-2.4512,-2.3457,-2.1271,-1.899,-1.7248,-1.6454,0.0,0.0,0.0,0.0,0.0,0.0,-1.8144,0.0,0.0,0.0,0.0,0.0,0.0,0.0,0.0,-3.11,-3.6407,-3.6899,-3.7118,-3.7185,-3.799,-3.799,-3.7209,-3.8087,-3.8526,-3.8526,-3.8526,-3.8315,-3.8104,-3.808,-3.808,-3.8176,-3.9165,-4.0154,-4.1022,-4.1215,-4.1287,-4.1287,-4.1172,-4.1172,-4.1287,-1.5137,-1.5754,-1.6166,-1.5864,-1.6812,-1.7954,-1.8907,-1.9402,-1.9659,-1.9765,-2.02,-2.0576,-2.0778,-2.1365,-2.1731,-2.1731,-2.1731,-2.1731,-2.1731,-2.1731,-2.1731,-2.1731,-2.1548,-2.1328,-2.1108,-2.0255,-1.8729,-1.6589,-1.4674,-1.2707,-1.0833,-0.9769,-0.9301,-0.9398,-1.1514,-1.4253,-1.7475,-1.9602,-2.1345,-2.2675,-2.3645,-2.4311,-2.4636,-2.5063,-2.5314,-2.5449,-2.545,-2.5489,-2.5449,-2.5664,-2.5742,-2.5742,-2.5742,-2.5742,-2.5742,-2.5742,-2.5742,-2.5742,-2.5742,-2.5742,-2.5742,-2.5742,-2.5742,-2.5742,-2.5742,-2.5742,-2.5742,-2.5742,-2.5742,-2.5215,-2.3477,-2.1562,-1.998,-1.916,-1.793,0.0,0.0,0.0,0.0,0.0,0.0,0.0,0.0,0.0,0.0,0.0,0.0,0.0,0.0,0.0,-3.041,0.0,-3.6281,-3.6691,-3.7436,-3.7678,-3.7678,-3.7436,-3.7944,-3.821,-3.821,-3.821,-3.808,-3.7974,-3.7974,-3.8142,-3.8503,-3.9561,-4.0475,-4.1172,-4.1172,-4.1172,-4.1172,-4.1172,-4.1172,-4.1172,-1.6723,-1.7089,-1.7442,-1.7309,-1.8045,-1.8962,-1.9916,-2.0723,-2.0906,-1.9934,-2.0118,-2.0319,-2.0319,-2.1163,-2.1731,-2.1731,-2.1731,-2.1731,-2.1731,-2.1731,-2.1731,-2.1731,-2.1731,-2.1585,-2.1255,-2.1145,-1.9942,-1.7506,-1.575,-1.3922,-1.2044,-1.0522,-1.0137,-1.0791,-1.2807,-1.5058,-1.751,-1.9769,-2.1353,-2.2391,-2.3786,-2.4469,-2.4794,-2.5101,-2.5333,-2.5528,-2.5333,-2.5333,-2.5528,-2.5645,-2.5645,-2.5742,-2.5742,-2.5742,-2.5742,-2.5742,-2.5742,-2.5742,-2.5742,-2.5742,-2.5742,-2.5742,-2.5742,-2.5742,-2.5742,-2.5742,-2.5742,-2.5742,-2.5742,-2.5215,-2.3457,-2.2324,-2.1445,-2.082,-1.9531,-1.9082,0.0,0.0,0.0,0.0,0.0,0.0,0.0,0.0,0.0,0.0,0.0,0.0,-2.7144,0.0,0.0,-3.419,-3.4766,-3.558,-3.69,-3.7172,-3.7445,-3.7637,-3.7878,-3.7974,-3.7974,-3.7974,-3.7974,-3.7974,-3.7974,-3.8359,-3.9056,-4.0018,-4.0715,-4.1172,-4.1172,-4.1172,-4.1172,-4.1172,-4.1172,-4.1196,-1.8734,-1.8648,-1.858,-1.854,-1.9512,-2.0338,-2.0448,-2.1163,-2.164,-2.153,-2.1548,-2.1566,-2.1566,-2.1676,-2.1731,-2.1731,-2.1731,-2.1731,-2.1731,-2.1731,-2.1731,-2.1731,-2.1731,-2.1713,-2.1676,-2.131,-2.0347,-1.8692,-1.6307,-1.4183,-1.2307,-1.101,-1.1818,-1.4354,-1.4974,-1.7161,-2.0466,-2.125,-2.2434,-2.3709,-2.4164,-2.4543,-2.4884,-2.4922,-2.4941,-2.4941,-2.4941,-2.4941,-2.5039,-2.5235,-2.5528,-2.5742,-2.5742,-2.5742,-2.5742,-2.5742,-2.5742,-2.5742,-2.5742,-2.5742,-2.5742,-2.5742,-2.5742,-2.5742,-2.5742,-2.5742,-2.5742,-2.5742,-2.5742,-2.5215,-2.3477,-2.4297,-2.4355,-2.1621,-2.1973,-2.2656,0.0,0.0,0.0,0.0,0.0,0.0,0.0,-1.6527,0.0,0.0,0.0,0.0,0.0,0.0,0.0,-3.0075,-3.2121,-3.3184,-3.3203,-3.6312,-3.7445,-3.6555,-3.7517,-3.7974,-3.7974,-3.7974,-3.7974,-3.7974,-3.7974,-3.8575,-3.9585,-4.0162,-4.0715,-4.1172,-4.1172,-4.1172,-4.1172,-4.1172,-4.1172,-4.1244,-2.0137,-1.9774,-1.9687,-2.0108,-2.0154,-2.0411,-2.1145,-2.153,-2.1731,-2.1731,-2.1731,-2.1731,-2.1731,-2.1731,-2.1731,-2.1731,-2.1731,-2.1731,-2.1731,-2.1731,-2.1731,-2.1731,-2.1731,-2.1731,-2.1731,-2.1566,-2.0814,-1.9519,-1.7398,-1.5594,-1.411,-1.3156,-1.4035,-1.6318,-1.7409,-1.8935,-2.0782,-2.2168,-2.313,-2.3662,-2.4096,-2.4398,-2.4627,-2.4627,-2.4726,-2.4843,-2.4726,-2.4726,-2.4979,-2.5107,-2.5229,-2.5235,-2.543,-2.5604,-2.5916,-2.5916,-2.6209,-2.6504,-2.6504,-2.6504,-2.6445,-2.6191,-2.6133,-2.6055,-2.5801,-2.5742,-2.5742,-2.5742,-2.5742,-2.5527,-2.4824,-2.4414,-2.4121,-2.3965,-2.3496,-2.3516,-2.4551,0.0,0.0,0.0,0.0,0.0,0.0,0.0,0.0,0.0,0.0,0.0,0.0,0.0,-2.6117,-2.8077,-3.1292,-3.2824,-3.2532,-3.5478,-3.6671,-3.6297,-3.6694,-3.7334,-3.7974,-3.7227,-3.7311,-3.8022,-3.8671,-3.92,-3.9681,-4.0523,-4.1004,-4.1172,-4.1172,-4.1172,-4.1172,-4.1172,-4.1172,-4.1293,-2.1154,-2.0761,-2.063,-2.1213,-2.0833,-2.0741,-2.1603,-2.1731,-2.1731,-2.1731,-2.1731,-2.1731,-2.1731,-2.1731,-2.1731,-2.1731,-2.1731,-2.1731,-2.1731,-2.1731,-2.1731,-2.1731,-2.1731,-2.1731,-2.1731,-2.1731,-2.131,-2.0466,-1.8616,-1.7324,-1.6455,-1.5557,-1.6346,-1.849,-1.9487,-2.0597,-2.1599,-2.307,-2.373,-2.3749,-2.4042,-2.4251,-2.443,-2.443,-2.4548,-2.4646,-2.4579,-2.4734,-2.4889,-2.52,-2.5245,-2.5102,-2.54,-2.571,-2.6059,-2.6059,-2.6473,-2.691,-2.691,-2.691,-2.6953,-2.6641,-2.6562,-2.6484,-2.6191,-2.6113,-2.6113,-2.6113,-2.6113,-2.6113,-2.6113,-2.5117,-2.4512,-2.5234,-2.4746,-2.4531,-2.5254,-2.5469,0.0,-2.5781,-2.4258,-2.3379,-2.3926,-2.0801,0.0,0.0,0.0,0.0,0.0,0.0,0.0,-2.7008,-3.0342,-3.206,-3.1971,-3.4378,-3.5685,-3.5685,-3.5685,-3.634,-3.7441,-3.6989,-3.7203,-3.8046,-3.9128,-3.9609,-3.9681,-4.0739,-4.1172,-4.1172,-4.1172,-4.1172,-4.1172,-4.1172,-4.1268,-4.1557,-2.1978,-2.1521,-2.1218,-2.1658,-2.1713,-2.1713,-2.1731,-2.1731,-2.1731,-2.1731,-2.1731,-2.1731,-2.1731,-2.1731,-2.1731,-2.1731,-2.1731,-2.1731,-2.1731,-2.1731,-2.1731,-2.1731,-2.1731,-2.1731,-2.1731,-2.1731,-2.1731,-2.1713,-2.0081,-1.9274,-1.9219,-1.8009,-1.8742,-2.1053,-2.1071,-2.1988,-2.3529,-2.3969,-2.4152,-2.4152,-2.4152,-2.4152,-2.4152,-2.4152,-2.4251,-2.4306,-2.4629,-2.4776,-2.4932,-2.5544,-2.557,-2.5466,-2.5966,-2.6069,-2.6088,-2.6088,-2.6397,-2.6602,-2.6602,-2.6807,-2.7012,-2.7012,-2.7012,-2.7012,-2.7012,-2.6992,-2.6992,-2.6992,-2.6992,-2.6992,-2.6992,-2.6973,-2.6406,-2.4707,-2.5859,-2.6367,-2.4668,-2.4805,-2.4922,-2.4492,-2.1055,-2.0215,-2.4043,-2.0156,0.0,0.0,0.0,0.0,0.0,0.0,0.0,-2.6996,-2.9064,-3.037,-3.0701,-3.3179,-3.4447,-3.4447,-3.4447,-3.5002,-3.6231,-3.7441,-3.7974,-3.8046,-3.9128,-3.9609,-3.9681,-4.0739,-4.1172,-4.1172,-4.1172,-4.1172,-4.1172,-4.1172,-4.1509,-4.2038,-2.1776,-2.1618,-2.1585,-2.1713,-2.1731,-2.1731,-2.1731,-2.1731,-2.1731,-2.1731,-2.1731,-2.1731,-2.1731,-2.1731,-2.1731,-2.1731,-2.1731,-2.1731,-2.1731,-2.1731,-2.1731,-2.1731,-2.1731,-2.1731,-2.1731,-2.1731,-2.186,-2.2135,-2.0796,-2.0264,-2.0521,-2.0136,-2.0961,-2.2777,-2.2777,-2.3217,-2.3969,-2.4097,-2.4152,-2.4152,-2.4152,-2.4152,-2.4152,-2.4152,-2.4152,-2.4207,-2.4629,-2.4776,-2.4886,-2.5651,-2.5872,-2.5927,-2.6328,-2.643,-2.6293,-2.6293,-2.671,-2.7237,-2.7449,-2.7554,-2.7602,-2.7539,-2.7461,-2.7383,-2.709,-2.7012,-2.7012,-2.7012,-2.7012,-2.7012,-2.7012,-2.7012,-2.6836,-2.6269,-2.666,-2.6816,-2.6269,-2.6309,-2.6465,-2.6621,-2.5273,-2.4941,-2.6484,-2.3672,0.0,0.0,0.0,0.0,0.0,0.0,-2.5283,-2.5234,-2.847,-2.9908,-2.9451,-3.1981,-3.3233,-3.3233,-3.3233,-3.3459,-3.3797,-3.5002,-3.5733,-3.6094,-3.677,-3.7244,-3.7582,-3.8236,-3.898,-3.9709,-3.8862,-3.9121,-3.9826,-3.9826,-3.9561,-3.9439,-2.1642,-2.1731,-2.1731,-2.1731,-2.1731,-2.1731,-2.1731,-2.1731,-2.1731,-2.1731,-2.1731,-2.1731,-2.1731,-2.1731,-2.1731,-2.1731,-2.1731,-2.1731,-2.1731,-2.1731,-2.1731,-2.1731,-2.1878,-2.1951,-2.1951,-2.2116,-2.2318,-2.2557,-2.1951,-2.1786,-2.2025,-2.2171,-2.2795,-2.3767,-2.3767,-2.3914,-2.4152,-2.4152,-2.4152,-2.4152,-2.4152,-2.4152,-2.427,-2.4335,-2.439,-2.4464,-2.5032,-2.5234,-2.5326,-2.5986,-2.6188,-2.6243,-2.6499,-2.6516,-2.6528,-2.6528,-2.6803,-2.7314,-2.753,-2.7638,-2.7688,-2.7651,-2.7574,-2.7516,-2.7246,-2.7188,-2.7188,-2.7292,-2.7376,-2.7396,-2.75,-2.75,-2.7441,-2.7285,-2.7402,-2.7441,-2.7285,-2.7402,-2.7363,-2.6992,-2.6562,-2.6465,-2.6894,-2.5332,-2.4394,-2.4668,0.0,0.0,0.0,-2.4824,-2.5664,-2.6562,-2.9101,-3.0195,-2.9668,-3.1251,-3.2018,-3.2018,-3.2457,-3.2685,-3.2685,-3.3888,-3.4709,-3.5098,-3.5692,-3.6151,-3.6513,-3.7112,-3.779,-3.8387,-3.767,-3.779,-3.8506,-3.8506,-3.8309,-3.8313,-2.1553,-2.1642,-2.175,-2.1768,-2.175,-2.175,-2.1805,-2.1786,-2.1786,-2.1823,-2.1823,-2.1823,-2.1823,-2.1823,-2.1823,-2.1823,-2.1768,-2.175,-2.1768,-2.1786,-2.1786,-2.1823,-2.2171,-2.2373,-2.2373,-2.2758,-2.2866,-2.2902,-2.34,-2.3584,-2.3602,-2.3969,-2.4152,-2.4152,-2.4152,-2.4152,-2.4152,-2.4152,-2.4152,-2.4152,-2.4152,-2.427,-2.4244,-2.4629,-2.4794,-2.4922,-2.5693,-2.5968,-2.6023,-2.6444,-2.6591,-2.6591,-2.6591,-2.6591,-2.6591,-2.6591,-2.6791,-2.6989,-2.6989,-2.7206,-2.7422,-2.7422,-2.7422,-2.7422,-2.7422,-2.7422,-2.753,-2.7853,-2.7853,-2.796,-2.8194,-2.8301,-2.8164,-2.7773,-2.8047,-2.8164,-2.7754,-2.8047,-2.7695,-2.6094,-2.5547,-2.5449,-2.5879,-2.5547,-2.6094,-2.8008,0.0,0.0,-2.8828,-2.6191,-2.6387,-3.0078,-3.0644,-3.0898,-3.0898,-3.0898,-3.0898,-3.0898,-3.2018,-3.2571,-3.2571,-3.3685,-3.4393,-3.4912,-3.5461,-3.5938,-3.6318,-3.6872,-3.7045,-3.7188,-3.7067,-3.7067,-3.7188,-3.7188,-3.7653,-3.8456,-2.1177,-2.1463,-2.1841,-2.2135,-2.1933,-2.1951,-2.2482,-2.2392,-2.23,-2.2537,-2.2574,-2.2574,-2.2574,-2.2574,-2.2574,-2.2574,-2.2007,-2.186,-2.2171,-2.219,-2.2318,-2.2555,-2.2758,-2.272,-2.272,-2.2811,-2.3012,-2.34,-2.3804,-2.4005,-2.4005,-2.4115,-2.4152,-2.4152,-2.4152,-2.4152,-2.4152,-2.4152,-2.4152,-2.4152,-2.4152,-2.4354,-2.4647,-2.4739,-2.4977,-2.5289,-2.5784,-2.5968,-2.6023,-2.6444,-2.6591,-2.6591,-2.6591,-2.6591,-2.6591,-2.6591,-2.67,-2.6682,-2.6989,-2.7098,-2.7098,-2.7314,-2.7422,-2.7422,-2.7422,-2.7422,-2.7422,-2.753,-2.7745,-2.796,-2.796,-2.8174,-2.8262,-2.8164,-2.8223,-2.8262,-2.8164,-2.8223,-2.8144,-2.7734,-2.7598,-2.7578,-2.7676,-2.7598,-2.7344,-2.6875,-2.7226,-2.7617,-2.7949,-2.7598,-2.8242,-3.0137,-3.0644,-3.0898,-3.0898,-3.0898,-3.0898,-3.0898,-3.1228,-3.1344,-3.1344,-3.1556,-3.2093,-3.2835,-3.3055,-3.3538,-3.4117,-3.4218,-3.4881,-3.5746,-3.4757,-3.5005,-3.5848,-3.5848,-3.581,-3.584,-2.1437,-2.1713,-2.2061,-2.2482,-2.2428,-2.2447,-2.2793,-2.2665,-2.2703,-2.2829,-2.2866,-2.2866,-2.2866,-2.2866,-2.2866,-2.2866,-2.2446,-2.2392,-2.2593,-2.2612,-2.2722,-2.2848,-2.3125,-2.3121,-2.3121,-2.34,-2.3602,-2.3822,-2.4042,-2.4152,-2.4152,-2.4152,-2.4152,-2.4152,-2.4152,-2.4152,-2.4152,-2.4152,-2.4152,-2.427,-2.4354,-2.4574,-2.4812,-2.5179,-2.5454,-2.5693,-2.6096,-2.6243,-2.6279,-2.6518,-2.6591,-2.6591,-2.6591,-2.6591,-2.6591,-2.6591,-2.6591,-2.6591,-2.6791,-2.6791,-2.6899,-2.7008,-2.7008,-2.7008,-2.7008,-2.7008,-2.7116,-2.7206,-2.7314,-2.753,-2.7638,-2.7745,-2.7853,-2.7853,-2.7853,-2.7853,-2.7853,-2.7853,-2.796,-2.8067,-2.8067,-2.8174,-2.8301,-2.8457,-2.8281,-2.7598,-2.8125,-2.8574,-2.8809,-2.9238,-2.9805,-3.0488,-3.0762,-3.0898,-3.0898,-3.0898,-3.0898,-3.0898,-3.0898,-3.0898,-3.0898,-3.0898,-3.1367,-3.2168,-3.2168,-3.2656,-3.3418,-3.3418,-3.3796,-3.4403,-3.367,-3.3776,-3.4548,-3.475,-3.4764,-3.4858,-2.1674,-2.196,-2.2185,-2.2749,-2.2808,-2.2902,-2.3012,-2.3088,-2.2975,-2.3125,-2.3143,-2.3143,-2.3143,-2.3143,-2.3143,-2.3143,-2.3143,-2.3107,-2.3052,-2.2957,-2.2975,-2.3125,-2.3455,-2.3639,-2.3639,-2.3969,-2.4152,-2.4152,-2.4152,-2.4152,-2.4152,-2.4152,-2.4152,-2.4152,-2.4152,-2.4152,-2.4152,-2.4225,-2.4244,-2.428,-2.4702,-2.4904,-2.5032,-2.5711,-2.6004,-2.6096,-2.6463,-2.6591,-2.6591,-2.6591,-2.6591,-2.6591,-2.6591,-2.6591,-2.6591,-2.6591,-2.6591,-2.6591,-2.6591,-2.6591,-2.6591,-2.6591,-2.6591,-2.6591,-2.6591,-2.6591,-2.6682,-2.6881,-2.6989,-2.7098,-2.7314,-2.7314,-2.7365,-2.7176,-2.7308,-2.7365,-2.7176,-2.7308,-2.753,-2.7745,-2.7853,-2.7979,-2.8272,-2.8711,-2.8965,-2.9101,-2.9785,-3.0234,-3.0293,-3.0684,-3.0898,-3.0898,-3.0898,-3.0898,-3.0898,-3.0898,-3.0898,-3.0898,-3.0898,-3.0898,-3.0898,-3.0957,-3.1426,-3.2168,-3.2226,-3.2695,-3.3418,-3.3418,-3.3418,-3.3418,-3.3418,-3.3418,-3.3476,-3.3906,-3.4336,-3.4766,-2.0829,-2.1117,-2.1682,-2.2611,-2.2476,-2.2685,-2.3859,-2.3675,-2.3565,-2.3932,-2.3969,-2.3969,-2.3969,-2.3969,-2.3969,-2.3969,-2.3969,-2.3822,-2.3474,-2.3455,-2.3602,-2.395,-2.4024,-2.406,-2.406,-2.4115,-2.4152,-2.4152,-2.4152,-2.4152,-2.4152,-2.4152,-2.4152,-2.4152,-2.4152,-2.4152,-2.417,-2.4537,-2.4684,-2.4721,-2.5124,-2.5472,-2.5784,-2.5913,-2.6188,-2.6499,-2.6573,-2.6591,-2.6591,-2.6591,-2.6591,-2.6591,-2.6591,-2.6591,-2.6591,-2.6591,-2.6591,-2.6591,-2.6591,-2.6591,-2.6591,-2.6591,-2.6591,-2.6591,-2.6591,-2.6591,-2.6591,-2.67,-2.6899,-2.6989,-2.7098,-2.7206,-2.7081,-2.6021,-2.674,-2.7062,-2.6002,-2.6759,-2.7422,-2.7422,-2.7745,-2.8007,-2.8481,-2.8777,-2.9219,-2.9941,-3.0117,-3.0371,-3.0762,-3.0859,-3.0898,-3.0898,-3.0898,-3.0898,-3.0898,-3.0898,-3.0898,-3.0898,-3.0898,-3.0898,-3.0898,-3.1269,-3.1699,-3.2187,-3.2539,-3.2969,-3.3418,-3.3418,-3.3418,-3.3418,-3.3418,-3.3418,-3.3476,-3.3906,-3.4336,-3.4766,-2.1131,-2.1428,-2.1875,-2.2542,-2.2617,-2.2814,-2.3185,-2.3079,-2.3026,-2.322,-2.3538,-2.3737,-2.3737,-2.4053,-2.4152,-2.4152,-2.4152,-2.4079,-2.3877,-2.3877,-2.395,-2.4152,-2.4152,-2.4152,-2.4152,-2.4152,-2.4152,-2.4152,-2.4152,-2.4152,-2.4152,-2.4152,-2.4152,-2.417,-2.439,-2.45,-2.4519,-2.4922,-2.5106,-2.5142,-2.5527,-2.5803,-2.5986,-2.6206,-2.6426,-2.6591,-2.6591,-2.6136,-2.5679,-2.6354,-2.6136,-2.5789,-2.6373,-2.6591,-2.6591,-2.6591,-2.6591,-2.6591,-2.6591,-2.6591,-2.6591,-2.6591,-2.6591,-2.6591,-2.6591,-2.6591,-2.6646,-2.6866,-2.7013,-2.7105,-2.7105,-2.7215,-2.7082,-2.63,-2.6821,-2.7064,-2.6281,-2.684,-2.7343,-2.7453,-2.7654,-2.7933,-2.848,-2.9045,-2.956,-2.9947,-3.0199,-3.0529,-3.0879,-3.0762,-3.0762,-3.0898,-3.0898,-3.0898,-3.0898,-3.0898,-3.0898,-3.0898,-3.0898,-3.0898,-3.0898,-3.1328,-3.1758,-3.2187,-3.2617,-3.3027,-3.3418,-3.3418,-3.3418,-3.3418,-3.3418,-3.3418,-3.3496,-3.416,-3.4531,-3.4805,-2.142,-2.1623,-2.1843,-2.2232,-2.2535,-2.2719,-2.2535,-2.2535,-2.2535,-2.2535,-2.282,-2.312,-2.312,-2.3637,-2.3954,-2.3954,-2.4152,-2.4152,-2.4152,-2.4053,-2.4053,-2.4152,-2.4152,-2.4152,-2.4152,-2.4152,-2.4152,-2.4152,-2.4152,-2.4152,-2.4152,-2.4262,-2.4299,-2.4317,-2.4739,-2.4922,-2.4941,-2.5344,-2.5509,-2.5546,-2.5949,-2.6114,-2.6133,-2.6463,-2.6591,-2.6591,-2.6245,-2.5569,-2.4889,-2.5898,-2.5569,-2.5,-2.6245,-2.6591,-2.6591,-2.6591,-2.6591,-2.6591,-2.6591,-2.6591,-2.6591,-2.6591,-2.6664,-2.6719,-2.6719,-2.6793,-2.694,-2.7251,-2.7306,-2.7306,-2.7306,-2.7306,-2.7123,-2.6536,-2.694,-2.7105,-2.6518,-2.694,-2.7437,-2.7642,-2.766,-2.7921,-2.8559,-2.9241,-2.97,-2.9795,-3.0083,-3.0392,-3.0645,-3.0509,-3.0509,-3.0898,-3.0898,-3.0898,-3.0898,-3.0898,-3.0898,-3.0898,-3.0898,-3.0898,-3.0918,-3.1426,-3.1855,-3.2207,-3.2715,-3.3125,-3.3418,-3.3418,-3.3418,-3.3418,-3.3418,-3.3418,-3.3535,-3.4394,-3.4707,-3.4824,-2.0925,-2.0925,-2.113,-2.1623,-2.1827,-2.1928,-2.2434,-2.2535,-2.2535,-2.2535,-2.2518,-2.2535,-2.2535,-2.302,-2.3338,-2.3338,-2.3836,-2.4152,-2.4152,-2.3637,-2.3637,-2.4152,-2.4152,-2.4152,-2.4152,-2.4152,-2.4152,-2.4152,-2.4152,-2.4152,-2.417,-2.4556,-2.4739,-2.4757,-2.5161,-2.5326,-2.5362,-2.5748,-2.5913,-2.5949,-2.6371,-2.6536,-2.6554,-2.6573,-2.6591,-2.6482,-2.5348,-2.4889,-2.4778,-2.4889,-2.4889,-2.5,-2.6245,-2.6591,-2.6591,-2.6591,-2.6591,-2.6591,-2.6591,-2.6591,-2.6591,-2.6591,-2.6866,-2.7141,-2.7141,-2.7416,-2.7691,-2.771,-2.7728,-2.7728,-2.7728,-2.7728,-2.7343,-2.6188,-2.6976,-2.7325,-2.6169,-2.6995,-2.7728,-2.7728,-2.7955,-2.8331,-2.8741,-2.9181,-2.9467,-2.9846,-2.9903,-2.9922,-2.9922,-3.0274,-3.0509,-3.0898,-3.0898,-3.0898,-3.0898,-3.0898,-3.0898,-3.0898,-3.0898,-3.0898,-3.0918,-3.1738,-3.2148,-3.2207,-3.3027,-3.3398,-3.3418,-3.3418,-3.3418,-3.3418,-3.3418,-3.3418,-3.3535,-3.4394,-3.4707,-3.4824,-2.0925,-2.0925,-2.0925,-2.113,-2.1216,-2.1216,-2.1522,-2.1522,-2.1522,-2.1522,-2.1827,-2.203,-2.203,-2.2535,-2.282,-2.282,-2.3038,-2.3138,-2.3138,-2.2937,-2.3038,-2.3637,-2.3338,-2.3438,-2.4152,-2.3836,-2.3836,-2.4152,-2.4152,-2.428,-2.4556,-2.4702,-2.4904,-2.5161,-2.5564,-2.5729,-2.5766,-2.6169,-2.6353,-2.6353,-2.5735,-2.5459,-2.5348,-2.4667,-2.4334,-2.4334,-2.3871,-2.3199,-2.2636,-2.3424,-2.3648,-2.3871,-2.5128,-2.6026,-2.6591,-2.6591,-2.6591,-2.6591,-2.6591,-2.6591,-2.6646,-2.6885,-2.7068,-2.7233,-2.749,-2.7655,-2.7838,-2.8095,-2.815,-2.815,-2.815,-2.815,-2.7911,-2.7196,-2.7691,-2.7911,-2.7178,-2.7691,-2.815,-2.815,-2.8265,-2.8431,-2.8818,-2.9226,-2.9517,-2.9667,-2.9686,-2.9686,-2.9922,-3.0039,-3.0157,-3.0294,-3.0294,-3.0528,-3.0898,-3.0898,-3.0898,-3.0898,-3.0898,-3.0898,-3.0918,-3.1777,-3.2168,-3.2207,-3.3066,-3.3418,-3.3418,-3.3418,-3.3418,-3.3418,-3.3418,-3.3418,-3.3535,-3.4394,-3.4707,-3.4824,-2.0925,-2.0925,-2.0925,-2.0925,-2.0925,-2.0925,-2.0925,-2.0925,-2.0925,-2.0925,-2.1216,-2.142,-2.142,-2.1928,-2.2232,-2.2232,-2.2434,-2.2535,-2.2535,-2.2333,-2.2535,-2.3038,-2.2719,-2.2837,-2.3637,-2.3238,-2.3291,-2.3835,-2.4035,-2.4354,-2.4754,-2.4984,-2.5185,-2.5354,-2.5754,-2.5936,-2.5954,-2.6245,-2.6482,-2.6482,-2.5679,-2.5128,-2.4667,-2.3888,-2.3311,-2.2974,-2.2974,-2.241,-2.1972,-2.3199,-2.3536,-2.3776,-2.5,-2.5916,-2.6591,-2.6591,-2.6591,-2.6591,-2.6591,-2.6683,-2.683,-2.7105,-2.7361,-2.7636,-2.7893,-2.8058,-2.8223,-2.8517,-2.859,-2.859,-2.859,-2.859,-2.848,-2.8187,-2.8388,-2.848,-2.8187,-2.8388,-2.859,-2.859,-2.859,-2.8682,-2.8957,-2.9213,-2.9331,-2.9331,-2.9331,-2.945,-2.9804,-2.9804,-2.9804,-2.9922,-2.9922,-3.0157,-3.0528,-3.0645,-3.0762,-3.0898,-3.0898,-3.0957,-3.1113,-3.1836,-3.2246,-3.2402,-3.3105,-3.3418,-3.3418,-3.3418,-3.3418,-3.3418,-3.3418,-3.3496,-3.3711,-3.4434,-3.4654,-3.4887,-2.0925,-2.0925,-2.0925,-2.0925,-2.0925,-2.0925,-2.0925,-2.0925,-2.0925,-2.0925,-2.0925,-2.0925,-2.0925,-2.1318,-2.1725,-2.1725,-2.2232,-2.2535,-2.2535,-2.203,-2.1928,-2.2434,-2.2535,-2.2535,-2.2535,-2.2535,-2.2723,-2.3117,-2.3633,-2.4136,-2.4526,-2.5554,-2.5647,-2.5129,-2.5519,-2.5679,-2.5679,-2.5679,-2.6026,-2.6591,-2.6591,-2.5916,-2.4778,-2.4778,-2.3999,-2.2974,-2.2974,-2.2974,-2.3199,-2.4334,-2.4778,-2.5,-2.6245,-2.6591,-2.6591,-2.6591,-2.6591,-2.6591,-2.6591,-2.6885,-2.7178,-2.7178,-2.7783,-2.8388,-2.8407,-2.87,-2.8975,-2.8975,-2.8975,-2.8975,-2.8975,-2.8975,-2.8975,-2.8975,-2.8975,-2.8975,-2.8975,-2.8975,-2.8975,-2.8975,-2.8975,-2.8975,-2.8975,-2.8975,-2.8975,-2.8975,-2.8975,-2.9094,-2.945,-2.945,-2.9568,-2.9922,-2.9922,-2.9922,-2.9922,-3.0274,-3.0509,-3.0898,-3.0898,-3.1113,-3.1523,-3.1973,-3.2402,-3.2812,-3.3242,-3.3418,-3.3418,-3.3418,-3.3418,-3.3418,-3.3418,-3.3691,-3.4121,-3.4551,-3.4716,-3.4893,-2.0925,-2.0925,-2.0925,-2.0925,-2.0925,-2.0925,-2.0925,-2.0925,-2.0925,-2.0925,-2.0925,-2.0925,-2.0925,-2.1027,-2.113,-2.113,-2.1318,-2.142,-2.142,-2.1232,-2.1216,-2.1318,-2.142,-2.1841,-2.2929,-2.2535,-2.2719,-2.3406,-2.3616,-2.3911,-2.4274,-2.4611,-2.4802,-2.4844,-2.4948,-2.511,-2.511,-2.511,-2.5459,-2.5898,-2.5,-2.4223,-2.3424,-2.2636,-2.1517,-2.05,-2.05,-2.05,-2.05,-2.0831,-2.1631,-2.2636,-2.4667,-2.5916,-2.6591,-2.6591,-2.6591,-2.6646,-2.6921,-2.7288,-2.7581,-2.7581,-2.7985,-2.8462,-2.8737,-2.8902,-2.8975,-2.8975,-2.8975,-2.8975,-2.8975,-2.8975,-2.8975,-2.8975,-2.8975,-2.8975,-2.8975,-2.8975,-2.8975,-2.8975,-2.8975,-2.8975,-2.8975,-2.8975,-2.8975,-2.8975,-2.8975,-2.9094,-2.9094,-2.9094,-2.9213,-2.9213,-2.9213,-2.9331,-2.9568,-2.9922,-3.0274,-3.0509,-3.0509,-3.0741,-3.1185,-3.1852,-3.2157,-3.2085,-3.2738,-3.2931,-3.2676,-3.2676,-3.2676,-3.2676,-3.2676,-3.3181,-3.3733,-3.3896,-3.4337,-3.4893,-2.0925,-2.0925,-2.0925,-2.0925,-2.0925,-2.0925,-2.0925,-2.0925,-2.0925,-2.0925,-2.0925,-2.0925,-2.0925,-2.0925,-2.0925,-2.0925,-2.0925,-2.0925,-2.0925,-2.1052,-2.1131,-2.1131,-2.1258,-2.1683,-2.2391,-2.2314,-2.247,-2.3154,-2.3369,-2.3661,-2.4124,-2.4343,-2.4463,-2.4462,-2.4462,-2.4462,-2.4462,-2.4462,-2.4795,-2.5238,-2.4556,-2.376,-2.2862,-2.1972,-2.0831,-1.9822,-1.9924,-1.991,-2.0026,-2.0486,-2.1502,-2.2974,-2.4889,-2.6026,-2.6591,-2.6591,-2.6701,-2.6866,-2.7105,-2.7581,-2.8022,-2.8022,-2.8315,-2.8682,-2.892,-2.8975,-2.8975,-2.8975,-2.8975,-2.8975,-2.8975,-2.8975,-2.8975,-2.8975,-2.8975,-2.8975,-2.8975,-2.8975,-2.8975,-2.8975,-2.8975,-2.8975,-2.8975,-2.8975,-2.8975,-2.8975,-2.8975,-2.8975,-2.8975,-2.8975,-2.8975,-2.8975,-2.8975,-2.9094,-2.9331,-2.945,-2.9804,-3.0157,-3.0157,-3.0462,-3.1054,-3.1546,-3.1865,-3.2062,-3.2562,-3.2549,-3.2422,-3.2422,-3.2422,-3.2422,-3.2422,-3.291,-3.3574,-3.3709,-3.4031,-3.4717,-2.0925,-2.0925,-2.0925,-2.0925,-2.0925,-2.0925,-2.0925,-2.0925,-2.0925,-2.0925,-2.0925,-2.0925,-2.0925,-2.0925,-2.0925,-2.0925,-2.0925,-2.0925,-2.0925,-2.1258,-2.1449,-2.1449,-2.1814,-2.1862,-2.1544,-2.1846,-2.218,-2.2529,-2.308,-2.348,-2.3809,-2.4351,-2.4351,-2.3809,-2.3809,-2.3809,-2.3809,-2.3809,-2.4128,-2.4667,-2.4667,-2.3999,-2.2974,-2.241,-2.1402,-2.0385,-2.0587,-2.0573,-2.0802,-2.1813,-2.3183,-2.4667,-2.5898,-2.6354,-2.6482,-2.6628,-2.6774,-2.7085,-2.727,-2.7706,-2.8272,-2.8443,-2.8718,-2.8975,-2.8975,-2.8975,-2.8975,-2.8975,-2.8975,-2.8975,-2.8975,-2.8975,-2.8975,-2.8975,-2.8975,-2.8975,-2.8975,-2.8975,-2.8975,-2.8975,-2.8975,-2.8975,-2.8975,-2.8975,-2.8975,-2.8975,-2.8975,-2.8975,-2.8975,-2.8975,-2.8975,-2.8975,-2.8975,-2.8975,-2.8975,-2.8975,-2.9331,-2.9804,-2.9804,-3.0357,-3.1172,-3.1172,-3.1626,-3.2294,-3.2294,-3.2294,-3.2294,-3.2294,-3.2294,-3.2294,-3.2294,-3.2803,-3.3653,-3.3653,-3.3932,-3.437,-2.0925,-2.0925,-2.0925,-2.0925,-2.0925,-2.0925,-2.0925,-2.0925,-2.0925,-2.0925,-2.0925,-2.0925,-2.0925,-2.0925,-2.0925,-2.0925,-2.0925,-2.0925,-2.0925,-2.1258,-2.1449,-2.1449,-2.2037,-2.2339,-2.2259,-2.2339,-2.2545,-2.2895,-2.3007,-2.3167,-2.3247,-2.3344,-2.3344,-2.3247,-2.3247,-2.3247,-2.3247,-2.3247,-2.3568,-2.4128,-2.4128,-2.368,-2.2974,-2.2862,-2.2085,-2.0945,-2.0256,-2.004,-1.991,-1.9448,-2.0343,-2.1813,-2.3055,-2.4206,-2.5401,-2.6736,-2.6417,-2.6049,-2.7719,-2.7526,-2.7116,-2.8519,-2.892,-2.8975,-2.8975,-2.8975,-2.8975,-2.8975,-2.8975,-2.8975,-2.8975,-2.8975,-2.8975,-2.8975,-2.8975,-2.8975,-2.8975,-2.8975,-2.8975,-2.8975,-2.8975,-2.8975,-2.8975,-2.8975,-2.8975,-2.8975,-2.8975,-2.8975,-2.8975,-2.8975,-2.8975,-2.8975,-2.8975,-2.8975,-2.8975,-2.8975,-2.9213,-2.9568,-2.9568,-2.9998,-3.0803,-3.1049,-3.1358,-3.1635,-3.191,-3.191,-3.1635,-3.1635,-3.1635,-3.1635,-3.1635,-3.2264,-3.3273,-3.2988,-3.3527,-3.437,-2.0925,-2.0925,-2.0925,-2.0925,-2.0925,-2.0925,-2.0925,-2.0925,-2.0925,-2.0925,-2.0925,-2.0925,-2.0925,-2.0925,-2.0925,-2.0925,-2.1084,-2.1179,-2.1179,-2.1655,-2.1941,-2.1941,-2.245,-2.2736,-2.2736,-2.2736,-2.2831,-2.3022,-2.3022,-2.3022,-2.3022,-2.3022,-2.3022,-2.3022,-2.3022,-2.3022,-2.3022,-2.3022,-2.3135,-2.3472,-2.3472,-2.3231,-2.299,-2.2652,-2.2199,-2.1531,-2.0615,-1.991,-1.9564,-1.9216,-2.0012,-2.1259,-2.204,-2.3183,-2.4513,-2.4981,-2.4859,-2.4895,-2.6167,-2.61,-2.6148,-2.7692,-2.8002,-2.8241,-2.8856,-2.8975,-2.8975,-2.8975,-2.8975,-2.8975,-2.8975,-2.8498,-2.8002,-2.8002,-2.7504,-2.7263,-2.8002,-2.8002,-2.8241,-2.8975,-2.8975,-2.8975,-2.8975,-2.8975,-2.8975,-2.8975,-2.8975,-2.8975,-2.8975,-2.8975,-2.8975,-2.8975,-2.8361,-2.8361,-2.8975,-2.8379,-2.848,-2.9213,-2.9213,-2.9638,-3.0433,-3.068,-3.1002,-3.1377,-3.1653,-3.1525,-3.1377,-3.1377,-3.1377,-3.1396,-3.1598,-3.2187,-3.2892,-3.2961,-3.3421,-3.4094,-2.0925,-2.0925,-2.0925,-2.0925,-2.0925,-2.0925,-2.0925,-2.0925,-2.0925,-2.0925,-2.0925,-2.0925,-2.0925,-2.0972,-2.102,-2.102,-2.1338,-2.1513,-2.1481,-2.2116,-2.2482,-2.245,-2.2815,-2.3022,-2.3022,-2.3022,-2.3022,-2.3022,-2.3022,-2.3022,-2.3022,-2.3022,-2.3022,-2.3022,-2.3022,-2.3022,-2.3022,-2.3022,-2.3022,-2.3022,-2.3022,-2.2893,-2.2667,-2.2214,-2.1873,-2.1645,-2.0716,-1.9795,-1.8971,-1.9319,-2.0127,-2.1045,-2.1472,-2.2425,-2.323,-2.299,-2.3216,-2.381,-2.4259,-2.4574,-2.5056,-2.6641,-2.69,-2.7142,-2.8361,-2.8856,-2.8975,-2.8737,-2.8618,-2.8618,-2.8361,-2.7383,-2.6641,-2.6641,-2.579,-2.5423,-2.652,-2.69,-2.7383,-2.8498,-2.8856,-2.8975,-2.8975,-2.8975,-2.8856,-2.8737,-2.8618,-2.8618,-2.8618,-2.8618,-2.8737,-2.8975,-2.7762,-2.7624,-2.8993,-2.7624,-2.7624,-2.8975,-2.881,-2.9228,-3.0204,-3.0277,-3.0699,-3.1377,-3.1377,-3.1377,-3.1377,-3.1377,-3.1377,-3.1414,-3.1763,-3.2184,-3.2661,-3.3138,-3.3523,-3.3817,-2.0925,-2.0925,-2.0925,-2.0925,-2.0925,-2.0925,-2.0925,-2.0925,-2.0925,-2.0925,-2.0925,-2.0925,-2.0925,-2.1195,-2.1385,-2.1385,-2.1687,-2.1814,-2.1624,-2.2164,-2.2434,-2.2339,-2.2768,-2.3022,-2.3022,-2.3022,-2.3022,-2.3022,-2.3022,-2.3022,-2.3022,-2.3022,-2.3022,-2.3022,-2.3022,-2.3022,-2.3022,-2.3022,-2.3022,-2.3022,-2.3022,-2.2554,-2.1744,-2.1729,-2.1174,-2.0385,-1.9448,-1.8532,-1.7713,-1.783,-1.8064,-1.8661,-1.9781,-2.0526,-2.1262,-2.2644,-2.2632,-2.2593,-2.4116,-2.3885,-2.3946,-2.6399,-2.6537,-2.6294,-2.7142,-2.8122,-2.8618,-2.7504,-2.7263,-2.69,-2.579,-2.5423,-2.5301,-2.5301,-2.5178,-2.5056,-2.5301,-2.6277,-2.7021,-2.7263,-2.8241,-2.8975,-2.8975,-2.8975,-2.8498,-2.7383,-2.7263,-2.7263,-2.7263,-2.7263,-2.7762,-2.8975,-2.7762,-2.7624,-2.8993,-2.7624,-2.7624,-2.8993,-2.8096,-2.8624,-3.0204,-3.0552,-3.0956,-3.1377,-3.1377,-3.1377,-3.1377,-3.1377,-3.1377,-3.1377,-3.1433,-3.1928,-3.268,-3.345,-3.3762,-3.3817,-2.0925,-2.0925,-2.0925,-2.0925,-2.0925,-2.0925,-2.0925,-2.0925,-2.0925,-2.0925,-2.0925,-2.1004,-2.1195,-2.1528,-2.1735,-2.1735,-2.2053,-2.2212,-2.2116,-2.2529,-2.2752,-2.2704,-2.2911,-2.3022,-2.3022,-2.3022,-2.3022,-2.3022,-2.3022,-2.3022,-2.3022,-2.3022,-2.3022,-2.3022,-2.3022,-2.3022,-2.3022,-2.2441,-2.2199,-2.2199,-2.1645,-2.1288,-2.0831,-2.0831,-2.0615,-2.0155,-1.9229,-1.8648,-1.8181,-1.7713,-1.796,-1.8532,-1.8519,-1.9298,-2.0183,-2.0588,-2.0659,-2.0846,-2.1742,-2.1713,-2.1839,-2.3807,-2.4054,-2.4054,-2.5146,-2.5757,-2.6139,-2.5912,-2.5912,-2.5668,-2.5056,-2.444,-2.3946,-2.3946,-2.3325,-2.3076,-2.3822,-2.5056,-2.6399,-2.8002,-2.7263,-2.7021,-2.7762,-2.7263,-2.652,-2.5912,-2.5912,-2.6156,-2.7021,-2.7021,-2.7263,-2.7882,-2.652,-2.6156,-2.6779,-2.6156,-2.6255,-2.7085,-2.7582,-2.8622,-3.0222,-2.9833,-2.9842,-3.0325,-3.112,-3.0972,-3.0325,-3.112,-3.1377,-3.1396,-3.1634,-3.2221,-3.301,-3.3596,-3.3817,-3.3817]}]]